ISO8601,Initialization_Date,Location,Lat_[degN],Lon_[degE],SurfacePressure_[hPa],Temperature_[K],Precipitation_[mm],Eastward_wind_[ms-1],Northward_wind_[ms-1],o3_orig_[ugm-3],o3_ML_[ugm-3],no2_orig_[ugm-3],no2_ML_[ugm-3],pm25_gcc_orig_[ugm-3],pm25_gcc_ML_[ugm-3],pm25_gocart_orig_[ugm-3],pm25_gocart_ML_[ugm-3]
2024-02-23T12:00:00Z,2024-02-23T12:00:00Z,Quito_Belisario,-0.1800,-78.4900,709.9154,284.3588,334.2628,1.5294,-0.7421,18.3725,8.9238,22.3505,35.2796,48.3705,25.4995,3.3719,
2024-02-23T13:00:00Z,2024-02-23T12:00:00Z,Quito_Belisario,-0.1800,-78.4900,710.0526,284.8347,400.5432,2.2484,-0.7927,31.3715,13.9993,9.7438,34.0247,19.5934,29.1919,2.2911,
2024-02-23T14:00:00Z,2024-02-23T12:00:00Z,Quito_Belisario,-0.1800,-78.4900,710.1677,285.7476,591.2781,2.4580,-0.7104,36.5377,21.4055,5.5425,33.7311,12.6803,25.3027,2.3753,
2024-02-23T15:00:00Z,2024-02-23T12:00:00Z,Quito_Belisario,-0.1800,-78.4900,710.1758,286.6327,596.0464,2.6615,-0.8397,41.6706,28.1159,3.9296,28.1572,9.7955,19.1825,2.6529,
2024-02-23T16:00:00Z,2024-02-23T12:00:00Z,Quito_Belisario,-0.1800,-78.4900,709.8429,286.6355,745.7733,2.9562,-1.3268,43.0237,29.4756,3.9277,28.1437,9.9646,19.0992,5.0860,
2024-02-23T17:00:00Z,2024-02-23T12:00:00Z,Quito_Belisario,-0.1800,-78.4900,709.3926,286.7314,1115.7990,3.1411,-1.6035,43.4809,28.9302,3.6849,27.3270,9.5731,19.4902,7.6596,
2024-02-23T18:00:00Z,2024-02-23T12:00:00Z,Quito_Belisario,-0.1800,-78.4900,708.8370,287.0427,1749.0387,3.4030,-1.7236,44.4785,38.3172,3.3102,24.1258,8.2427,18.3761,11.4643,
2024-02-23T19:00:00Z,2024-02-23T12:00:00Z,Quito_Belisario,-0.1800,-78.4900,708.2743,287.4636,2700.8057,3.8423,-2.0926,45.9512,44.3001,2.7077,22.6609,6.6856,16.8190,8.5970,
2024-02-23T20:00:00Z,2024-02-23T12:00:00Z,Quito_Belisario,-0.1800,-78.4900,707.8104,287.4401,4081.7261,4.2876,-2.9030,45.1801,37.9171,2.6367,26.9912,5.5211,13.9252,5.8405,
2024-02-23T21:00:00Z,2024-02-23T12:00:00Z,Quito_Belisario,-0.1800,-78.4900,707.8792,286.4564,3898.6206,3.2354,-2.3457,37.8246,19.3435,5.8790,28.8880,6.1784,14.8311,2.5518,
2024-02-23T22:00:00Z,2024-02-23T12:00:00Z,Quito_Belisario,-0.1800,-78.4900,708.5370,285.6989,1987.4573,2.2108,-0.6425,29.2931,9.0491,10.9215,36.5096,7.6645,14.4663,2.4163,
2024-02-23T23:00:00Z,2024-02-23T12:00:00Z,Quito_Belisario,-0.1800,-78.4900,709.3104,285.2268,1279.8309,1.7331,-0.7085,24.6938,7.5401,13.1739,35.8827,8.5566,15.3585,2.2840,
2024-02-24T00:00:00Z,2024-02-23T12:00:00Z,Quito_Belisario,-0.1800,-78.4900,709.3301,284.6925,348.5680,1.8744,0.2166,23.3175,6.1312,13.1589,29.8961,10.2610,14.0946,2.7118,
2024-02-24T01:00:00Z,2024-02-23T12:00:00Z,Quito_Belisario,-0.1800,-78.4900,709.5350,284.2344,116.1098,1.2547,0.1667,19.3564,4.5569,15.5353,27.8996,13.9353,17.0956,2.9948,
2024-02-24T02:00:00Z,2024-02-23T12:00:00Z,Quito_Belisario,-0.1800,-78.4900,710.6526,283.9885,264.1678,0.6876,-0.5451,16.7128,2.5289,17.4267,31.6470,16.0481,15.8791,2.9617,
2024-02-24T03:00:00Z,2024-02-23T12:00:00Z,Quito_Belisario,-0.1800,-78.4900,711.1859,283.8132,216.7225,0.3075,-0.1107,14.1885,-0.2807,19.8513,33.2964,17.5354,16.0293,3.3356,
2024-02-24T04:00:00Z,2024-02-23T12:00:00Z,Quito_Belisario,-0.1800,-78.4900,711.2537,283.6087,76.2939,0.1114,-0.0251,9.4175,1.5056,24.1882,29.3142,23.7139,14.7391,4.1838,
2024-02-24T05:00:00Z,2024-02-23T12:00:00Z,Quito_Belisario,-0.1800,-78.4900,710.7509,283.3606,5.7817,-0.3316,-0.0195,6.1530,6.2916,26.6963,24.1547,33.2032,15.4780,5.2139,
2024-02-24T06:00:00Z,2024-02-23T12:00:00Z,Quito_Belisario,-0.1800,-78.4900,710.1085,283.0963,1.4771,-0.4908,0.0048,3.7298,1.2651,28.3127,21.0628,42.2002,13.9274,6.5020,
2024-02-24T07:00:00Z,2024-02-23T12:00:00Z,Quito_Belisario,-0.1800,-78.4900,709.7428,282.8780,6.4224,-0.1937,0.0196,2.2105,0.5304,29.6127,25.1764,51.9549,19.0254,7.2332,
2024-02-24T08:00:00Z,2024-02-23T12:00:00Z,Quito_Belisario,-0.1800,-78.4900,709.6476,282.6972,23.0968,0.3948,-0.1077,2.6941,2.6936,28.5768,24.7002,58.4682,15.5886,6.6078,
2024-02-24T09:00:00Z,2024-02-23T12:00:00Z,Quito_Belisario,-0.1800,-78.4900,709.4856,282.5596,54.2402,0.5311,-0.1693,3.3539,7.5764,26.1988,19.7536,46.3449,15.2377,5.6540,
2024-02-24T10:00:00Z,2024-02-23T12:00:00Z,Quito_Belisario,-0.1800,-78.4900,709.6081,282.5343,62.1080,0.1514,-0.2140,2.0863,9.0150,26.2865,21.9937,47.7836,17.5190,5.3938,
2024-02-24T11:00:00Z,2024-02-23T12:00:00Z,Quito_Belisario,-0.1800,-78.4900,710.0169,282.5597,78.5589,-0.6301,-0.0286,3.4884,4.8036,24.6000,27.0929,51.4601,18.7333,5.6286,
2024-02-24T12:00:00Z,2024-02-23T12:00:00Z,Quito_Belisario,-0.1800,-78.4900,710.5227,283.2030,124.6929,-1.3447,0.3258,11.3393,5.7891,18.1586,32.7321,39.6427,18.0642,5.1460,
2024-02-24T13:00:00Z,2024-02-23T12:00:00Z,Quito_Belisario,-0.1800,-78.4900,711.0113,284.2640,234.8423,-1.2075,0.1571,18.5121,5.6821,13.2704,38.9933,25.9559,34.0606,4.3292,
2024-02-24T14:00:00Z,2024-02-23T12:00:00Z,Quito_Belisario,-0.1800,-78.4900,711.2664,285.4574,270.8435,-0.3155,-0.5990,25.2862,14.1262,9.0572,37.5095,18.7394,27.7810,4.0654,
2024-02-24T15:00:00Z,2024-02-23T12:00:00Z,Quito_Belisario,-0.1800,-78.4900,711.3923,286.1382,371.4561,0.8211,-1.5200,30.4938,24.0585,6.5953,35.9850,14.9401,27.9902,4.4205,
2024-02-24T16:00:00Z,2024-02-23T12:00:00Z,Quito_Belisario,-0.1800,-78.4900,711.2661,286.2285,611.3052,1.1687,-1.9849,33.6101,38.1571,4.9715,30.9765,13.4692,25.3208,5.7502,
2024-02-24T17:00:00Z,2024-02-23T12:00:00Z,Quito_Belisario,-0.1800,-78.4900,710.8978,286.3365,807.7621,1.4383,-2.1578,34.1641,45.0629,4.3824,30.6316,12.1725,21.4673,7.3351,
2024-02-24T18:00:00Z,2024-02-23T12:00:00Z,Quito_Belisario,-0.1800,-78.4900,710.2263,286.4287,1110.0769,1.7818,-2.1528,33.7875,46.7269,3.8778,25.9712,10.3751,20.4788,9.5023,
2024-02-24T19:00:00Z,2024-02-23T12:00:00Z,Quito_Belisario,-0.1800,-78.4900,709.5159,286.4984,1403.8086,1.9668,-2.0037,33.0798,44.2421,3.8231,25.8347,8.8930,18.8884,10.7971,
2024-02-24T20:00:00Z,2024-02-23T12:00:00Z,Quito_Belisario,-0.1800,-78.4900,708.8809,286.5199,1815.7959,1.9985,-1.6450,32.2579,26.7156,4.0734,24.9264,7.8825,18.1252,11.3053,
2024-02-24T21:00:00Z,2024-02-23T12:00:00Z,Quito_Belisario,-0.1800,-78.4900,708.5010,286.4671,2471.9238,1.8270,-1.1145,31.0830,15.3927,4.7390,26.0468,7.4446,17.8254,11.9159,
2024-02-24T22:00:00Z,2024-02-23T12:00:00Z,Quito_Belisario,-0.1800,-78.4900,708.4877,286.1570,3108.9783,1.3133,-0.3944,26.1242,11.1115,8.2722,31.5910,8.5194,17.4154,9.2226,
2024-02-24T23:00:00Z,2024-02-23T12:00:00Z,Quito_Belisario,-0.1800,-78.4900,708.8987,285.5186,3433.2275,0.5657,0.1129,14.7467,4.1053,19.0496,41.0157,13.6946,19.1876,4.7859,
2024-02-25T00:00:00Z,2024-02-23T12:00:00Z,Quito_Belisario,-0.1800,-78.4900,709.5926,285.2998,2685.5469,0.3819,0.0704,10.2906,3.8953,25.9911,41.7091,19.2274,13.2515,3.7810,
2024-02-25T01:00:00Z,2024-02-23T12:00:00Z,Quito_Belisario,-0.1800,-78.4900,710.2122,285.1118,1102.4475,0.2889,0.0158,8.4229,5.0321,29.8814,43.7646,25.0937,16.9882,4.9171,
2024-02-25T02:00:00Z,2024-02-23T12:00:00Z,Quito_Belisario,-0.1800,-78.4900,710.8196,284.8536,371.9330,0.2691,0.2767,6.8341,5.7826,32.5860,32.1266,32.4385,12.7114,5.8636,
2024-02-25T03:00:00Z,2024-02-23T12:00:00Z,Quito_Belisario,-0.1800,-78.4900,711.2397,284.5323,277.9961,0.2120,0.3486,6.4469,7.7566,33.7288,29.9505,38.3659,16.5926,6.6518,
2024-02-25T04:00:00Z,2024-02-23T12:00:00Z,Quito_Belisario,-0.1800,-78.4900,711.4033,284.2493,195.9801,0.1302,0.1680,5.9712,7.9680,34.3343,30.2953,43.6794,17.6839,7.0595,
2024-02-25T05:00:00Z,2024-02-23T12:00:00Z,Quito_Belisario,-0.1800,-78.4900,711.0579,283.9357,96.0827,0.0685,0.0168,4.7967,6.9549,34.9200,26.8579,48.9385,18.5572,7.4880,
2024-02-25T06:00:00Z,2024-02-23T12:00:00Z,Quito_Belisario,-0.1800,-78.4900,710.6063,283.6638,72.1216,-0.0224,0.0101,3.9982,7.0764,35.0523,25.9288,54.8153,16.1829,8.2293,
2024-02-25T07:00:00Z,2024-02-23T12:00:00Z,Quito_Belisario,-0.1800,-78.4900,710.2416,283.4753,57.8761,-0.1811,0.0038,3.7635,8.5154,35.0173,25.2741,61.5737,15.7759,8.7672,
2024-02-25T08:00:00Z,2024-02-23T12:00:00Z,Quito_Belisario,-0.1800,-78.4900,710.0819,283.2906,52.5117,-0.3199,-0.0008,3.8148,8.8789,35.3955,25.4246,68.7617,15.8389,9.5240,
2024-02-25T09:00:00Z,2024-02-23T12:00:00Z,Quito_Belisario,-0.1800,-78.4900,710.1224,283.0954,55.3131,-0.4747,0.0876,4.1674,11.6017,35.9066,25.9556,75.2665,17.0631,10.6864,
2024-02-25T10:00:00Z,2024-02-23T12:00:00Z,Quito_Belisario,-0.1800,-78.4900,710.3074,282.9103,43.9286,-0.6382,0.1731,4.7722,8.3017,35.8182,26.2849,80.0119,18.7700,11.5295,
2024-02-25T11:00:00Z,2024-02-23T12:00:00Z,Quito_Belisario,-0.1800,-78.4900,710.5690,282.7828,26.0174,-0.8420,0.2849,7.2722,5.4051,33.5413,27.1050,82.2585,18.1243,12.0674,
2024-02-25T12:00:00Z,2024-02-23T12:00:00Z,Quito_Belisario,-0.1800,-78.4900,710.9892,283.2734,12.1593,-1.0677,0.2842,14.6965,5.9849,26.9560,31.8624,72.1287,22.6730,11.1208,
2024-02-25T13:00:00Z,2024-02-23T12:00:00Z,Quito_Belisario,-0.1800,-78.4900,711.3647,284.5323,8.0168,-1.1401,0.0657,28.1023,14.4694,15.9616,35.7103,41.1271,22.1335,7.7134,
2024-02-25T14:00:00Z,2024-02-23T12:00:00Z,Quito_Belisario,-0.1800,-78.4900,711.5154,285.8587,6.1765,-1.0058,-0.4144,38.4329,18.5281,8.9574,39.6048,25.6583,29.0347,6.0897,
2024-02-25T15:00:00Z,2024-02-23T12:00:00Z,Quito_Belisario,-0.1800,-78.4900,711.3895,287.0486,6.8992,-0.7375,-0.8781,46.3033,30.9019,5.4271,36.0459,19.3152,33.9646,5.5356,
2024-02-25T16:00:00Z,2024-02-23T12:00:00Z,Quito_Belisario,-0.1800,-78.4900,710.9844,288.0376,9.2536,-0.1214,-1.3543,53.5003,48.5001,3.3933,32.4320,16.2836,34.2677,5.4393,
2024-02-25T17:00:00Z,2024-02-23T12:00:00Z,Quito_Belisario,-0.1800,-78.4900,710.3065,288.5532,24.0207,0.7655,-1.8583,58.7305,65.8437,2.4401,27.2311,14.8416,26.9596,5.6487,
2024-02-25T18:00:00Z,2024-02-23T12:00:00Z,Quito_Belisario,-0.1800,-78.4900,709.7331,288.1542,96.2019,1.3408,-2.3080,60.6679,67.8279,2.0747,20.8590,14.2493,22.8374,6.7322,
2024-02-25T19:00:00Z,2024-02-23T12:00:00Z,Quito_Belisario,-0.1800,-78.4900,709.3325,287.0009,240.8028,1.5379,-2.4834,57.0570,53.3487,2.5519,20.8657,13.8722,20.6889,9.0188,
2024-02-25T20:00:00Z,2024-02-23T12:00:00Z,Quito_Belisario,-0.1800,-78.4900,709.0857,286.2009,405.7884,1.4109,-2.2633,49.3705,49.5591,3.9046,21.7946,13.1210,21.0080,12.3527,
2024-02-25T21:00:00Z,2024-02-23T12:00:00Z,Quito_Belisario,-0.1800,-78.4900,709.0443,285.7866,463.4857,1.1500,-1.9170,41.9358,37.0390,5.5829,27.5529,12.1051,19.7285,17.1247,
2024-02-25T22:00:00Z,2024-02-23T12:00:00Z,Quito_Belisario,-0.1800,-78.4900,709.2690,285.4010,452.9953,0.7780,-1.4854,34.0305,18.3879,9.1135,33.4731,12.4972,20.0530,28.8245,
2024-02-25T23:00:00Z,2024-02-23T12:00:00Z,Quito_Belisario,-0.1800,-78.4900,709.7627,285.1064,346.6606,0.4000,-1.0736,23.8417,10.3345,16.3746,36.4048,15.5160,21.2120,29.9603,
2024-02-26T00:00:00Z,2024-02-23T12:00:00Z,Quito_Belisario,-0.1800,-78.4900,710.2787,284.8861,168.5619,0.3238,-0.8758,14.5569,6.9666,24.1270,39.8243,23.0358,15.6076,23.1507,
2024-02-26T01:00:00Z,2024-02-23T12:00:00Z,Quito_Belisario,-0.1800,-78.4900,710.7394,284.5531,60.7371,0.1409,-0.7427,6.8198,5.0392,31.7721,42.4364,32.5703,16.9221,17.3019,
2024-02-26T02:00:00Z,2024-02-23T12:00:00Z,Quito_Belisario,-0.1800,-78.4900,711.1577,284.3700,24.5869,-0.2529,-0.4801,3.6083,4.2703,37.8514,38.9308,43.6999,18.7058,13.3308,
2024-02-26T03:00:00Z,2024-02-23T12:00:00Z,Quito_Belisario,-0.1800,-78.4900,711.3344,284.2097,28.3420,-0.4180,-0.2571,2.8858,3.1177,42.7988,35.0019,56.3282,15.0352,13.7451,
2024-02-26T04:00:00Z,2024-02-23T12:00:00Z,Quito_Belisario,-0.1800,-78.4900,711.1835,284.0580,69.0222,-0.2938,-0.4038,2.3899,12.3106,46.4407,35.9679,68.8906,15.2556,15.0731,
2024-02-26T05:00:00Z,2024-02-23T12:00:00Z,Quito_Belisario,-0.1800,-78.4900,710.7319,283.8518,117.5404,-0.1015,-0.5460,1.8852,12.1780,47.5738,30.2412,81.0169,17.5997,15.3963,
2024-02-26T06:00:00Z,2024-02-23T12:00:00Z,Quito_Belisario,-0.1800,-78.4900,710.2642,283.6812,207.9010,-0.0375,-0.5717,1.7064,11.9985,46.1198,29.4383,92.8900,16.3447,14.4667,
2024-02-26T07:00:00Z,2024-02-23T12:00:00Z,Quito_Belisario,-0.1800,-78.4900,709.8390,283.5916,284.6718,-0.0300,-0.5498,1.6691,12.3745,43.5274,29.2110,103.2659,20.3635,12.1755,
2024-02-26T08:00:00Z,2024-02-23T12:00:00Z,Quito_Belisario,-0.1800,-78.4900,709.5334,283.4782,242.4717,0.0500,-0.5667,1.6559,12.3610,40.5034,26.9484,111.5134,19.2526,11.0346,
2024-02-26T09:00:00Z,2024-02-23T12:00:00Z,Quito_Belisario,-0.1800,-78.4900,709.5232,283.3096,123.0240,0.1852,-0.6214,1.7411,14.0482,35.9298,23.1977,102.5146,19.8093,9.9657,
2024-02-26T10:00:00Z,2024-02-23T12:00:00Z,Quito_Belisario,-0.1800,-78.4900,709.6683,283.1553,96.6787,0.1757,-0.6420,1.6347,13.9545,32.7687,22.5719,98.3888,19.7459,8.7995,
2024-02-26T11:00:00Z,2024-02-23T12:00:00Z,Quito_Belisario,-0.1800,-78.4900,710.1521,283.2185,183.5823,0.2979,-0.5432,2.8227,8.0098,30.1190,29.9522,103.2684,17.8799,7.9122,
2024-02-26T12:00:00Z,2024-02-23T12:00:00Z,Quito_Belisario,-0.1800,-78.4900,710.8998,283.9260,179.0524,1.0550,-0.8775,16.7854,8.4508,18.1824,35.5051,45.3968,30.8887,3.8462,
2024-02-26T13:00:00Z,2024-02-23T12:00:00Z,Quito_Belisario,-0.1800,-78.4900,711.4758,284.9055,238.6570,1.6551,-1.1052,28.9510,15.3541,8.5144,38.9932,19.6462,26.7299,2.7690,
2024-02-26T14:00:00Z,2024-02-23T12:00:00Z,Quito_Belisario,-0.1800,-78.4900,711.7136,286.2100,298.0232,2.2943,-1.3150,35.0540,20.8561,5.0300,36.5312,12.3355,21.6615,2.1591,
2024-02-26T15:00:00Z,2024-02-23T12:00:00Z,Quito_Belisario,-0.1800,-78.4900,711.5228,286.8844,379.5624,2.8341,-1.5212,39.5877,27.3007,3.9386,34.5804,9.8217,22.1131,2.4858,
2024-02-26T16:00:00Z,2024-02-23T12:00:00Z,Quito_Belisario,-0.1800,-78.4900,711.0115,286.9358,567.4362,3.1264,-1.5692,43.2160,33.0407,3.2568,32.2530,8.6764,20.9677,3.2984,
2024-02-26T17:00:00Z,2024-02-23T12:00:00Z,Quito_Belisario,-0.1800,-78.4900,710.3151,286.5550,885.9634,3.1303,-1.5077,43.0645,33.7895,3.0983,30.9079,7.9009,20.5017,4.5014,
2024-02-26T18:00:00Z,2024-02-23T12:00:00Z,Quito_Belisario,-0.1800,-78.4900,709.5536,286.4558,1405.7159,3.0347,-1.5049,41.2020,32.8242,3.0312,27.4548,7.2680,17.6488,6.5295,
2024-02-26T19:00:00Z,2024-02-23T12:00:00Z,Quito_Belisario,-0.1800,-78.4900,708.8839,286.6603,2178.1921,2.9439,-1.6230,39.8457,29.6565,2.8918,24.6891,6.5351,16.2118,5.2988,
2024-02-26T20:00:00Z,2024-02-23T12:00:00Z,Quito_Belisario,-0.1800,-78.4900,708.3580,287.0144,3150.9399,2.9272,-1.6487,39.1865,36.3773,2.7917,26.9702,5.7769,15.0402,3.3933,
2024-02-26T21:00:00Z,2024-02-23T12:00:00Z,Quito_Belisario,-0.1800,-78.4900,708.1490,286.6165,4280.0903,2.6264,-1.1562,36.1989,22.3562,4.5054,30.3913,5.9858,15.2490,1.9728,
2024-02-26T22:00:00Z,2024-02-23T12:00:00Z,Quito_Belisario,-0.1800,-78.4900,708.6304,285.7758,4806.5186,1.6056,-0.3318,27.4142,11.0671,11.4990,37.6800,8.5227,15.8055,0.6671,
2024-02-26T23:00:00Z,2024-02-23T12:00:00Z,Quito_Belisario,-0.1800,-78.4900,709.5037,284.5472,3704.0710,0.3798,0.1061,18.0984,6.7869,20.1948,41.5034,12.0327,18.8373,0.7886,
2024-02-27T00:00:00Z,2024-02-23T12:00:00Z,Quito_Belisario,-0.1800,-78.4900,710.1393,283.2802,2616.8823,-1.0410,0.7760,19.8804,10.2431,18.6282,35.7445,11.4813,13.1399,1.3008,
2024-02-27T01:00:00Z,2024-02-23T12:00:00Z,Quito_Belisario,-0.1800,-78.4900,710.7869,281.7348,1840.5914,-2.0808,1.6259,19.6897,9.5359,19.5802,36.7588,12.8773,12.7211,2.0331,
2024-02-27T02:00:00Z,2024-02-23T12:00:00Z,Quito_Belisario,-0.1800,-78.4900,711.1896,280.4721,1121.5210,-2.5116,1.5480,18.7032,8.3584,21.0677,37.3468,15.7519,13.3676,2.4888,
2024-02-27T03:00:00Z,2024-02-23T12:00:00Z,Quito_Belisario,-0.1800,-78.4900,711.1900,279.8867,676.1551,-2.5682,1.0753,16.6290,7.6222,22.3801,30.9549,18.7285,14.1433,3.0292,
2024-02-27T04:00:00Z,2024-02-23T12:00:00Z,Quito_Belisario,-0.1800,-78.4900,710.9282,279.9288,462.5320,-2.2863,0.7318,14.0388,11.9305,23.8407,30.9386,21.4157,14.6082,3.6284,
2024-02-27T05:00:00Z,2024-02-23T12:00:00Z,Quito_Belisario,-0.1800,-78.4900,710.3355,280.1929,300.8842,-1.9049,0.4530,10.3187,9.1020,26.6150,26.6914,24.6356,13.4358,4.3252,
2024-02-27T06:00:00Z,2024-02-23T12:00:00Z,Quito_Belisario,-0.1800,-78.4900,709.7416,280.5938,132.0839,-1.6909,0.4785,8.3935,9.1276,27.9395,24.5570,26.9776,13.7239,4.9898,
2024-02-27T07:00:00Z,2024-02-23T12:00:00Z,Quito_Belisario,-0.1800,-78.4900,709.3159,281.0035,33.7362,-1.2193,0.5590,7.1887,14.6874,28.6543,22.8001,29.2042,13.3566,5.5807,
2024-02-27T08:00:00Z,2024-02-23T12:00:00Z,Quito_Belisario,-0.1800,-78.4900,709.0851,281.3865,24.7061,-0.9693,0.6028,6.2981,8.4319,29.0523,23.9783,31.9243,13.0031,6.1613,
2024-02-27T09:00:00Z,2024-02-23T12:00:00Z,Quito_Belisario,-0.1800,-78.4900,709.2264,281.8064,30.1003,-0.7493,0.5450,5.2383,9.3539,29.4605,23.8760,35.4560,11.8578,6.8351,
2024-02-27T10:00:00Z,2024-02-23T12:00:00Z,Quito_Belisario,-0.1800,-78.4900,709.6321,282.0717,30.2792,-0.5602,0.4798,3.8257,3.3337,30.3003,20.6338,39.7683,13.5160,7.8437,
2024-02-27T11:00:00Z,2024-02-23T12:00:00Z,Quito_Belisario,-0.1800,-78.4900,710.1631,282.2768,30.2792,-0.5485,0.4115,4.8136,4.2386,28.8832,28.4498,44.3932,18.1575,8.9930,
2024-02-27T12:00:00Z,2024-02-23T12:00:00Z,Quito_Belisario,-0.1800,-78.4900,710.7478,283.2498,35.8224,-0.6233,0.0536,17.8759,8.1125,19.3936,39.5630,33.5123,21.6809,7.3347,
2024-02-27T13:00:00Z,2024-02-23T12:00:00Z,Quito_Belisario,-0.1800,-78.4900,711.2219,284.8447,37.5509,-0.1600,-0.8761,33.3518,17.9420,9.2168,33.6508,17.8542,27.7997,4.6836,
2024-02-27T14:00:00Z,2024-02-23T12:00:00Z,Quito_Belisario,-0.1800,-78.4900,711.2788,286.2180,34.5707,0.6015,-1.5230,40.7102,28.8573,6.2122,33.8783,15.2694,28.3836,4.2465,
2024-02-27T15:00:00Z,2024-02-23T12:00:00Z,Quito_Belisario,-0.1800,-78.4900,710.9139,287.4800,47.9221,1.5233,-2.0994,49.5269,45.5570,4.6986,32.8729,14.8935,22.5880,4.0947,
2024-02-27T16:00:00Z,2024-02-23T12:00:00Z,Quito_Belisario,-0.1800,-78.4900,710.2548,288.1857,102.1624,2.3804,-2.3914,59.7121,60.1919,3.6559,34.1344,15.2531,25.2112,4.0516,
2024-02-27T17:00:00Z,2024-02-23T12:00:00Z,Quito_Belisario,-0.1800,-78.4900,709.5526,287.7736,217.6762,2.8314,-2.3551,67.1126,66.3383,3.4838,32.5222,16.4350,27.2169,4.2339,
2024-02-27T18:00:00Z,2024-02-23T12:00:00Z,Quito_Belisario,-0.1800,-78.4900,708.9388,286.8956,440.5975,2.8506,-2.1434,69.5848,61.5651,3.8147,32.0003,17.4295,23.1084,5.4506,
2024-02-27T19:00:00Z,2024-02-23T12:00:00Z,Quito_Belisario,-0.1800,-78.4900,708.3965,286.4980,812.5305,2.7668,-1.8674,68.2986,55.6421,4.2501,30.3565,17.1758,22.8547,5.3060,
2024-02-27T20:00:00Z,2024-02-23T12:00:00Z,Quito_Belisario,-0.1800,-78.4900,708.0123,286.3720,1293.1824,2.6548,-1.4696,65.0515,54.8915,4.6975,32.8977,16.0786,23.5589,5.6697,
2024-02-27T21:00:00Z,2024-02-23T12:00:00Z,Quito_Belisario,-0.1800,-78.4900,708.0408,286.1475,1789.0930,2.4191,-0.9269,60.7814,50.8521,5.8169,31.9422,15.2628,20.4935,7.2636,
2024-02-27T22:00:00Z,2024-02-23T12:00:00Z,Quito_Belisario,-0.1800,-78.4900,708.4885,285.5431,2197.2656,1.7079,-0.2465,54.6953,32.4093,9.2987,35.6403,15.9493,18.7844,6.7771,
2024-02-27T23:00:00Z,2024-02-23T12:00:00Z,Quito_Belisario,-0.1800,-78.4900,709.1353,284.4122,2231.5979,0.3114,0.4818,42.6466,19.0530,19.2505,43.6948,19.9480,20.7560,7.3520,
2024-02-28T00:00:00Z,2024-02-23T12:00:00Z,Quito_Belisario,-0.1800,-78.4900,709.5609,283.6740,1235.9619,-0.5185,0.7791,30.6375,14.9934,29.4415,44.3274,25.1640,19.7743,8.7922,
2024-02-28T01:00:00Z,2024-02-23T12:00:00Z,Quito_Belisario,-0.1800,-78.4900,709.5618,283.4236,249.3858,-0.2442,0.8926,22.2518,8.5618,35.7964,47.1249,30.1887,16.2921,9.6523,
2024-02-28T02:00:00Z,2024-02-23T12:00:00Z,Quito_Belisario,-0.1800,-78.4900,710.0444,283.7355,66.1612,-0.2479,0.5623,17.8907,8.6108,39.7302,41.6662,36.2836,16.2990,10.2944,
2024-02-28T03:00:00Z,2024-02-23T12:00:00Z,Quito_Belisario,-0.1800,-78.4900,710.5952,283.8023,268.4593,-0.7549,-0.0462,12.9362,8.4443,43.0576,32.3597,44.6605,12.4871,11.7473,
2024-02-28T04:00:00Z,2024-02-23T12:00:00Z,Quito_Belisario,-0.1800,-78.4900,710.4468,283.6662,431.0608,-0.8292,-0.0866,7.3851,15.5934,45.7308,26.0805,53.9222,17.3336,13.4186,
2024-02-28T05:00:00Z,2024-02-23T12:00:00Z,Quito_Belisario,-0.1800,-78.4900,709.8547,283.5682,808.7158,-0.4680,0.1330,3.8803,14.4672,47.3208,22.2059,62.6190,12.4886,14.6262,
2024-02-28T06:00:00Z,2024-02-23T12:00:00Z,Quito_Belisario,-0.1800,-78.4900,709.2222,283.3595,660.8963,0.0316,0.7926,2.7239,17.4809,46.5074,14.7794,69.4941,10.3525,16.3436,
2024-02-28T07:00:00Z,2024-02-23T12:00:00Z,Quito_Belisario,-0.1800,-78.4900,708.7051,283.2291,146.1506,-0.1315,0.7309,3.2688,17.2388,43.7552,14.2199,73.9964,14.1460,16.4895,
2024-02-28T08:00:00Z,2024-02-23T12:00:00Z,Quito_Belisario,-0.1800,-78.4900,708.5608,283.2529,26.1664,-0.4396,0.1836,2.7214,12.6485,42.6954,15.6803,82.1243,11.8824,17.2455,
2024-02-28T09:00:00Z,2024-02-23T12:00:00Z,Quito_Belisario,-0.1800,-78.4900,708.8069,283.2000,73.1945,-0.5718,0.0836,2.3497,12.2820,41.9928,18.0698,90.7497,17.3375,19.5740,
2024-02-28T10:00:00Z,2024-02-23T12:00:00Z,Quito_Belisario,-0.1800,-78.4900,709.1301,283.0705,179.0524,-0.6641,0.2745,2.7096,11.3181,40.1353,25.0503,96.3707,17.7684,23.2433,
2024-02-28T11:00:00Z,2024-02-23T12:00:00Z,Quito_Belisario,-0.1800,-78.4900,709.5497,283.0406,234.3655,-0.7543,0.2760,7.0130,9.8528,34.8754,29.9715,98.7400,20.1428,26.5921,
2024-02-23T12:00:00Z,2024-02-23T12:00:00Z,Quito_El_Camal,-0.2500,-78.5100,709.9154,284.3588,334.2628,1.5294,-0.7421,18.3725,8.8956,22.3505,39.3781,48.3705,28.6904,3.3719,
2024-02-23T13:00:00Z,2024-02-23T12:00:00Z,Quito_El_Camal,-0.2500,-78.5100,710.0526,284.8347,400.5432,2.2484,-0.7927,31.3715,11.7719,9.7438,33.3157,19.5934,39.1674,2.2911,
2024-02-23T14:00:00Z,2024-02-23T12:00:00Z,Quito_El_Camal,-0.2500,-78.5100,710.1677,285.7476,591.2781,2.4580,-0.7104,36.5377,24.0095,5.5425,29.1380,12.6803,28.2713,2.3753,
2024-02-23T15:00:00Z,2024-02-23T12:00:00Z,Quito_El_Camal,-0.2500,-78.5100,710.1758,286.6327,596.0464,2.6615,-0.8397,41.6706,31.3363,3.9296,26.7387,9.7955,25.3866,2.6529,
2024-02-23T16:00:00Z,2024-02-23T12:00:00Z,Quito_El_Camal,-0.2500,-78.5100,709.8429,286.6355,745.7733,2.9562,-1.3268,43.0237,43.2078,3.9277,27.9813,9.9646,25.5556,5.0860,
2024-02-23T17:00:00Z,2024-02-23T12:00:00Z,Quito_El_Camal,-0.2500,-78.5100,709.3926,286.7314,1115.7990,3.1411,-1.6035,43.4809,42.2805,3.6849,26.8062,9.5731,25.1642,7.6596,
2024-02-23T18:00:00Z,2024-02-23T12:00:00Z,Quito_El_Camal,-0.2500,-78.5100,708.8370,287.0427,1749.0387,3.4030,-1.7236,44.4785,40.9603,3.3102,24.1880,8.2427,21.3462,11.4643,
2024-02-23T19:00:00Z,2024-02-23T12:00:00Z,Quito_El_Camal,-0.2500,-78.5100,708.2743,287.4636,2700.8057,3.8423,-2.0926,45.9512,41.8051,2.7077,21.8520,6.6856,18.4974,8.5970,
2024-02-23T20:00:00Z,2024-02-23T12:00:00Z,Quito_El_Camal,-0.2500,-78.5100,707.8104,287.4401,4081.7261,4.2876,-2.9030,45.1801,39.9781,2.6367,21.5320,5.5211,17.6011,5.8405,
2024-02-23T21:00:00Z,2024-02-23T12:00:00Z,Quito_El_Camal,-0.2500,-78.5100,707.8792,286.4564,3898.6206,3.2354,-2.3457,37.8246,31.2179,5.8790,26.9573,6.1784,15.9989,2.5518,
2024-02-23T22:00:00Z,2024-02-23T12:00:00Z,Quito_El_Camal,-0.2500,-78.5100,708.5370,285.6989,1987.4573,2.2108,-0.6425,29.2931,13.6221,10.9215,32.0754,7.6645,16.4237,2.4163,
2024-02-23T23:00:00Z,2024-02-23T12:00:00Z,Quito_El_Camal,-0.2500,-78.5100,709.3104,285.2268,1279.8309,1.7331,-0.7085,24.6938,9.5662,13.1739,34.0284,8.5566,16.6024,2.2840,
2024-02-24T00:00:00Z,2024-02-23T12:00:00Z,Quito_El_Camal,-0.2500,-78.5100,709.3301,284.6925,348.5680,1.8744,0.2166,23.3175,8.3687,13.1589,32.1569,10.2610,15.1668,2.7118,
2024-02-24T01:00:00Z,2024-02-23T12:00:00Z,Quito_El_Camal,-0.2500,-78.5100,709.5350,284.2344,116.1098,1.2547,0.1667,19.3564,7.7517,15.5353,32.4533,13.9353,18.8411,2.9948,
2024-02-24T02:00:00Z,2024-02-23T12:00:00Z,Quito_El_Camal,-0.2500,-78.5100,710.6526,283.9885,264.1678,0.6876,-0.5451,16.7128,2.1554,17.4267,33.5405,16.0481,21.0028,2.9617,
2024-02-24T03:00:00Z,2024-02-23T12:00:00Z,Quito_El_Camal,-0.2500,-78.5100,711.1859,283.8132,216.7225,0.3075,-0.1107,14.1885,4.7021,19.8513,33.8779,17.5354,20.8442,3.3356,
2024-02-24T04:00:00Z,2024-02-23T12:00:00Z,Quito_El_Camal,-0.2500,-78.5100,711.2537,283.6087,76.2939,0.1114,-0.0251,9.4175,5.8655,24.1882,33.7741,23.7139,20.1929,4.1838,
2024-02-24T05:00:00Z,2024-02-23T12:00:00Z,Quito_El_Camal,-0.2500,-78.5100,710.7509,283.3606,5.7817,-0.3316,-0.0195,6.1530,4.3107,26.6963,33.5685,33.2032,18.4093,5.2139,
2024-02-24T06:00:00Z,2024-02-23T12:00:00Z,Quito_El_Camal,-0.2500,-78.5100,710.1085,283.0963,1.4771,-0.4908,0.0048,3.7298,2.0413,28.3127,27.6282,42.2002,24.5716,6.5020,
2024-02-24T07:00:00Z,2024-02-23T12:00:00Z,Quito_El_Camal,-0.2500,-78.5100,709.7428,282.8780,6.4224,-0.1937,0.0196,2.2105,1.8227,29.6127,26.9016,51.9549,24.9009,7.2332,
2024-02-24T08:00:00Z,2024-02-23T12:00:00Z,Quito_El_Camal,-0.2500,-78.5100,709.6476,282.6972,23.0968,0.3948,-0.1077,2.6941,1.8887,28.5768,25.8642,58.4682,21.9307,6.6078,
2024-02-24T09:00:00Z,2024-02-23T12:00:00Z,Quito_El_Camal,-0.2500,-78.5100,709.4856,282.5596,54.2402,0.5311,-0.1693,3.3539,5.0968,26.1988,24.6969,46.3449,21.8948,5.6540,
2024-02-24T10:00:00Z,2024-02-23T12:00:00Z,Quito_El_Camal,-0.2500,-78.5100,709.6081,282.5343,62.1080,0.1514,-0.2140,2.0863,4.0746,26.2865,30.1059,47.7836,21.2571,5.3938,
2024-02-24T11:00:00Z,2024-02-23T12:00:00Z,Quito_El_Camal,-0.2500,-78.5100,710.0169,282.5597,78.5589,-0.6301,-0.0286,3.4884,2.3840,24.6000,36.0660,51.4601,33.5198,5.6286,
2024-02-24T12:00:00Z,2024-02-23T12:00:00Z,Quito_El_Camal,-0.2500,-78.5100,710.5227,283.2030,124.6929,-1.3447,0.3258,11.3393,3.3826,18.1586,39.8250,39.6427,35.1120,5.1460,
2024-02-24T13:00:00Z,2024-02-23T12:00:00Z,Quito_El_Camal,-0.2500,-78.5100,711.0113,284.2640,234.8423,-1.2075,0.1571,18.5121,9.1769,13.2704,39.6668,25.9559,42.7453,4.3292,
2024-02-24T14:00:00Z,2024-02-23T12:00:00Z,Quito_El_Camal,-0.2500,-78.5100,711.2664,285.4574,270.8435,-0.3155,-0.5990,25.2862,15.0040,9.0572,38.2463,18.7394,35.3044,4.0654,
2024-02-24T15:00:00Z,2024-02-23T12:00:00Z,Quito_El_Camal,-0.2500,-78.5100,711.3923,286.1382,371.4561,0.8211,-1.5200,30.4938,30.2531,6.5953,35.7201,14.9401,30.7785,4.4205,
2024-02-24T16:00:00Z,2024-02-23T12:00:00Z,Quito_El_Camal,-0.2500,-78.5100,711.2661,286.2285,611.3052,1.1687,-1.9849,33.6101,36.9030,4.9715,33.0246,13.4692,30.3946,5.7502,
2024-02-24T17:00:00Z,2024-02-23T12:00:00Z,Quito_El_Camal,-0.2500,-78.5100,710.8978,286.3365,807.7621,1.4383,-2.1578,34.1641,33.7840,4.3824,31.7448,12.1725,28.9381,7.3351,
2024-02-24T18:00:00Z,2024-02-23T12:00:00Z,Quito_El_Camal,-0.2500,-78.5100,710.2263,286.4287,1110.0769,1.7818,-2.1528,33.7875,32.6360,3.8778,28.2881,10.3751,24.2909,9.5023,
2024-02-24T19:00:00Z,2024-02-23T12:00:00Z,Quito_El_Camal,-0.2500,-78.5100,709.5159,286.4984,1403.8086,1.9668,-2.0037,33.0798,30.6690,3.8231,25.4519,8.8930,21.5330,10.7971,
2024-02-24T20:00:00Z,2024-02-23T12:00:00Z,Quito_El_Camal,-0.2500,-78.5100,708.8809,286.5199,1815.7959,1.9985,-1.6450,32.2579,27.0140,4.0734,25.5124,7.8825,19.7093,11.3053,
2024-02-24T21:00:00Z,2024-02-23T12:00:00Z,Quito_El_Camal,-0.2500,-78.5100,708.5010,286.4671,2471.9238,1.8270,-1.1145,31.0830,20.9747,4.7390,26.4656,7.4446,19.2714,11.9159,
2024-02-24T22:00:00Z,2024-02-23T12:00:00Z,Quito_El_Camal,-0.2500,-78.5100,708.4877,286.1570,3108.9783,1.3133,-0.3944,26.1242,12.9410,8.2722,30.9023,8.5194,16.1284,9.2226,
2024-02-24T23:00:00Z,2024-02-23T12:00:00Z,Quito_El_Camal,-0.2500,-78.5100,708.8987,285.5186,3433.2275,0.5657,0.1129,14.7467,10.0640,19.0496,40.9289,13.6946,16.3804,4.7859,
2024-02-25T00:00:00Z,2024-02-23T12:00:00Z,Quito_El_Camal,-0.2500,-78.5100,709.5926,285.2998,2685.5469,0.3819,0.0704,10.2906,6.9485,25.9911,42.4677,19.2274,17.9926,3.7810,
2024-02-25T01:00:00Z,2024-02-23T12:00:00Z,Quito_El_Camal,-0.2500,-78.5100,710.2122,285.1118,1102.4475,0.2889,0.0158,8.4229,5.4374,29.8814,47.8332,25.0937,17.6592,4.9171,
2024-02-25T02:00:00Z,2024-02-23T12:00:00Z,Quito_El_Camal,-0.2500,-78.5100,710.8196,284.8536,371.9330,0.2691,0.2767,6.8341,3.1201,32.5860,38.7257,32.4385,17.0578,5.8636,
2024-02-25T03:00:00Z,2024-02-23T12:00:00Z,Quito_El_Camal,-0.2500,-78.5100,711.2397,284.5323,277.9961,0.2120,0.3486,6.4469,5.4299,33.7288,38.2603,38.3659,23.2680,6.6518,
2024-02-25T04:00:00Z,2024-02-23T12:00:00Z,Quito_El_Camal,-0.2500,-78.5100,711.4033,284.2493,195.9801,0.1302,0.1680,5.9712,6.1673,34.3343,34.7029,43.6794,22.4340,7.0595,
2024-02-25T05:00:00Z,2024-02-23T12:00:00Z,Quito_El_Camal,-0.2500,-78.5100,711.0579,283.9357,96.0827,0.0685,0.0168,4.7967,7.8263,34.9200,32.0851,48.9385,21.7270,7.4880,
2024-02-25T06:00:00Z,2024-02-23T12:00:00Z,Quito_El_Camal,-0.2500,-78.5100,710.6063,283.6638,72.1216,-0.0224,0.0101,3.9982,7.9735,35.0523,28.5849,54.8153,18.3753,8.2293,
2024-02-25T07:00:00Z,2024-02-23T12:00:00Z,Quito_El_Camal,-0.2500,-78.5100,710.2416,283.4753,57.8761,-0.1811,0.0038,3.7635,8.5088,35.0173,25.9336,61.5737,20.4713,8.7672,
2024-02-25T08:00:00Z,2024-02-23T12:00:00Z,Quito_El_Camal,-0.2500,-78.5100,710.0819,283.2906,52.5117,-0.3199,-0.0008,3.8148,5.4325,35.3955,26.3079,68.7617,18.4895,9.5240,
2024-02-25T09:00:00Z,2024-02-23T12:00:00Z,Quito_El_Camal,-0.2500,-78.5100,710.1224,283.0954,55.3131,-0.4747,0.0876,4.1674,5.5355,35.9066,28.4146,75.2665,15.3785,10.6864,
2024-02-25T10:00:00Z,2024-02-23T12:00:00Z,Quito_El_Camal,-0.2500,-78.5100,710.3074,282.9103,43.9286,-0.6382,0.1731,4.7722,4.1743,35.8182,34.8662,80.0119,15.7380,11.5295,
2024-02-25T11:00:00Z,2024-02-23T12:00:00Z,Quito_El_Camal,-0.2500,-78.5100,710.5690,282.7828,26.0174,-0.8420,0.2849,7.2722,3.1625,33.5413,40.4031,82.2585,25.1621,12.0674,
2024-02-25T12:00:00Z,2024-02-23T12:00:00Z,Quito_El_Camal,-0.2500,-78.5100,710.9892,283.2734,12.1593,-1.0677,0.2842,14.6965,4.6012,26.9560,36.5594,72.1287,35.1587,11.1208,
2024-02-25T13:00:00Z,2024-02-23T12:00:00Z,Quito_El_Camal,-0.2500,-78.5100,711.3647,284.5323,8.0168,-1.1401,0.0657,28.1023,11.6590,15.9616,38.6317,41.1271,33.4838,7.7134,
2024-02-25T14:00:00Z,2024-02-23T12:00:00Z,Quito_El_Camal,-0.2500,-78.5100,711.5154,285.8587,6.1765,-1.0058,-0.4144,38.4329,23.7116,8.9574,37.7718,25.6583,32.3096,6.0897,
2024-02-25T15:00:00Z,2024-02-23T12:00:00Z,Quito_El_Camal,-0.2500,-78.5100,711.3895,287.0486,6.8992,-0.7375,-0.8781,46.3033,35.3121,5.4271,34.5921,19.3152,35.3711,5.5356,
2024-02-25T16:00:00Z,2024-02-23T12:00:00Z,Quito_El_Camal,-0.2500,-78.5100,710.9844,288.0376,9.2536,-0.1214,-1.3543,53.5003,48.2692,3.3933,32.5669,16.2836,32.3395,5.4393,
2024-02-25T17:00:00Z,2024-02-23T12:00:00Z,Quito_El_Camal,-0.2500,-78.5100,710.3065,288.5532,24.0207,0.7655,-1.8583,58.7305,51.5099,2.4401,26.2345,14.8416,30.9861,5.6487,
2024-02-25T18:00:00Z,2024-02-23T12:00:00Z,Quito_El_Camal,-0.2500,-78.5100,709.7331,288.1542,96.2019,1.3408,-2.3080,60.6679,58.2099,2.0747,20.0419,14.2493,30.1336,6.7322,
2024-02-25T19:00:00Z,2024-02-23T12:00:00Z,Quito_El_Camal,-0.2500,-78.5100,709.3325,287.0009,240.8028,1.5379,-2.4834,57.0570,58.2221,2.5519,22.0737,13.8722,28.2800,9.0188,
2024-02-25T20:00:00Z,2024-02-23T12:00:00Z,Quito_El_Camal,-0.2500,-78.5100,709.0857,286.2009,405.7884,1.4109,-2.2633,49.3705,40.1831,3.9046,23.3093,13.1210,22.0871,12.3527,
2024-02-25T21:00:00Z,2024-02-23T12:00:00Z,Quito_El_Camal,-0.2500,-78.5100,709.0443,285.7866,463.4857,1.1500,-1.9170,41.9358,33.2101,5.5829,25.9226,12.1051,16.7802,17.1247,
2024-02-25T22:00:00Z,2024-02-23T12:00:00Z,Quito_El_Camal,-0.2500,-78.5100,709.2690,285.4010,452.9953,0.7780,-1.4854,34.0305,20.5616,9.1135,30.7874,12.4972,16.1680,28.8245,
2024-02-25T23:00:00Z,2024-02-23T12:00:00Z,Quito_El_Camal,-0.2500,-78.5100,709.7627,285.1064,346.6606,0.4000,-1.0736,23.8417,10.6479,16.3746,35.5065,15.5160,16.6531,29.9603,
2024-02-26T00:00:00Z,2024-02-23T12:00:00Z,Quito_El_Camal,-0.2500,-78.5100,710.2787,284.8861,168.5619,0.3238,-0.8758,14.5569,4.6586,24.1270,42.6424,23.0358,19.5453,23.1507,
2024-02-26T01:00:00Z,2024-02-23T12:00:00Z,Quito_El_Camal,-0.2500,-78.5100,710.7394,284.5531,60.7371,0.1409,-0.7427,6.8198,3.7692,31.7721,42.7341,32.5703,20.8601,17.3019,
2024-02-26T02:00:00Z,2024-02-23T12:00:00Z,Quito_El_Camal,-0.2500,-78.5100,711.1577,284.3700,24.5869,-0.2529,-0.4801,3.6083,6.2641,37.8514,42.7372,43.6999,22.8207,13.3308,
2024-02-26T03:00:00Z,2024-02-23T12:00:00Z,Quito_El_Camal,-0.2500,-78.5100,711.3344,284.2097,28.3420,-0.4180,-0.2571,2.8858,4.9099,42.7988,40.6769,56.3282,21.8308,13.7451,
2024-02-26T04:00:00Z,2024-02-23T12:00:00Z,Quito_El_Camal,-0.2500,-78.5100,711.1835,284.0580,69.0222,-0.2938,-0.4038,2.3899,6.9212,46.4407,38.3699,68.8906,19.3174,15.0731,
2024-02-26T05:00:00Z,2024-02-23T12:00:00Z,Quito_El_Camal,-0.2500,-78.5100,710.7319,283.8518,117.5404,-0.1015,-0.5460,1.8852,8.1247,47.5738,37.4410,81.0169,15.8074,15.3963,
2024-02-26T06:00:00Z,2024-02-23T12:00:00Z,Quito_El_Camal,-0.2500,-78.5100,710.2642,283.6812,207.9010,-0.0375,-0.5717,1.7064,8.7121,46.1198,30.3155,92.8900,21.5357,14.4667,
2024-02-26T07:00:00Z,2024-02-23T12:00:00Z,Quito_El_Camal,-0.2500,-78.5100,709.8390,283.5916,284.6718,-0.0300,-0.5498,1.6691,11.0163,43.5274,26.3834,103.2659,27.5355,12.1755,
2024-02-26T08:00:00Z,2024-02-23T12:00:00Z,Quito_El_Camal,-0.2500,-78.5100,709.5334,283.4782,242.4717,0.0500,-0.5667,1.6559,10.2556,40.5034,30.8414,111.5134,25.3307,11.0346,
2024-02-26T09:00:00Z,2024-02-23T12:00:00Z,Quito_El_Camal,-0.2500,-78.5100,709.5232,283.3096,123.0240,0.1852,-0.6214,1.7411,7.2355,35.9298,29.2867,102.5146,25.4070,9.9657,
2024-02-26T10:00:00Z,2024-02-23T12:00:00Z,Quito_El_Camal,-0.2500,-78.5100,709.6683,283.1553,96.6787,0.1757,-0.6420,1.6347,6.2123,32.7687,34.0860,98.3888,22.6232,8.7995,
2024-02-26T11:00:00Z,2024-02-23T12:00:00Z,Quito_El_Camal,-0.2500,-78.5100,710.1521,283.2185,183.5823,0.2979,-0.5432,2.8227,4.5070,30.1190,41.9518,103.2684,26.0375,7.9122,
2024-02-26T12:00:00Z,2024-02-23T12:00:00Z,Quito_El_Camal,-0.2500,-78.5100,710.8998,283.9260,179.0524,1.0550,-0.8775,16.7854,8.3078,18.1824,45.3247,45.3968,34.4677,3.8462,
2024-02-26T13:00:00Z,2024-02-23T12:00:00Z,Quito_El_Camal,-0.2500,-78.5100,711.4758,284.9055,238.6570,1.6551,-1.1052,28.9510,14.4522,8.5144,34.4037,19.6462,34.8049,2.7690,
2024-02-26T14:00:00Z,2024-02-23T12:00:00Z,Quito_El_Camal,-0.2500,-78.5100,711.7136,286.2100,298.0232,2.2943,-1.3150,35.0540,28.7680,5.0300,31.5209,12.3355,29.7785,2.1591,
2024-02-26T15:00:00Z,2024-02-23T12:00:00Z,Quito_El_Camal,-0.2500,-78.5100,711.5228,286.8844,379.5624,2.8341,-1.5212,39.5877,34.6116,3.9386,32.4435,9.8217,26.7365,2.4858,
2024-02-26T16:00:00Z,2024-02-23T12:00:00Z,Quito_El_Camal,-0.2500,-78.5100,711.0115,286.9358,567.4362,3.1264,-1.5692,43.2160,40.6037,3.2568,28.1331,8.6764,25.5912,3.2984,
2024-02-26T17:00:00Z,2024-02-23T12:00:00Z,Quito_El_Camal,-0.2500,-78.5100,710.3151,286.5550,885.9634,3.1303,-1.5077,43.0645,36.2176,3.0983,28.8412,7.9009,23.0954,4.5014,
2024-02-26T18:00:00Z,2024-02-23T12:00:00Z,Quito_El_Camal,-0.2500,-78.5100,709.5536,286.4558,1405.7159,3.0347,-1.5049,41.2020,35.4442,3.0312,27.2285,7.2680,20.6476,6.5295,
2024-02-26T19:00:00Z,2024-02-23T12:00:00Z,Quito_El_Camal,-0.2500,-78.5100,708.8839,286.6603,2178.1921,2.9439,-1.6230,39.8457,39.3990,2.8918,24.4329,6.5351,18.1734,5.2988,
2024-02-26T20:00:00Z,2024-02-23T12:00:00Z,Quito_El_Camal,-0.2500,-78.5100,708.3580,287.0144,3150.9399,2.9272,-1.6487,39.1865,37.9943,2.7917,21.4525,5.7769,19.1731,3.3933,
2024-02-26T21:00:00Z,2024-02-23T12:00:00Z,Quito_El_Camal,-0.2500,-78.5100,708.1490,286.6165,4280.0903,2.6264,-1.1562,36.1989,23.7685,4.5054,25.5822,5.9858,15.9064,1.9728,
2024-02-26T22:00:00Z,2024-02-23T12:00:00Z,Quito_El_Camal,-0.2500,-78.5100,708.6304,285.7758,4806.5186,1.6056,-0.3318,27.4142,18.1407,11.4990,30.9336,8.5227,15.2610,0.6671,
2024-02-26T23:00:00Z,2024-02-23T12:00:00Z,Quito_El_Camal,-0.2500,-78.5100,709.5037,284.5472,3704.0710,0.3798,0.1061,18.0984,10.9439,20.1948,39.9231,12.0327,14.5304,0.7886,
2024-02-27T00:00:00Z,2024-02-23T12:00:00Z,Quito_El_Camal,-0.2500,-78.5100,710.1393,283.2802,2616.8823,-1.0410,0.7760,19.8804,8.6415,18.6282,34.8397,11.4813,15.5408,1.3008,
2024-02-27T01:00:00Z,2024-02-23T12:00:00Z,Quito_El_Camal,-0.2500,-78.5100,710.7869,281.7348,1840.5914,-2.0808,1.6259,19.6897,5.0238,19.5802,41.0617,12.8773,16.6638,2.0331,
2024-02-27T02:00:00Z,2024-02-23T12:00:00Z,Quito_El_Camal,-0.2500,-78.5100,711.1896,280.4721,1121.5210,-2.5116,1.5480,18.7032,7.8874,21.0677,41.5439,15.7519,18.7264,2.4888,
2024-02-27T03:00:00Z,2024-02-23T12:00:00Z,Quito_El_Camal,-0.2500,-78.5100,711.1900,279.8867,676.1551,-2.5682,1.0753,16.6290,7.4514,22.3801,36.5834,18.7285,13.4459,3.0292,
2024-02-27T04:00:00Z,2024-02-23T12:00:00Z,Quito_El_Camal,-0.2500,-78.5100,710.9282,279.9288,462.5320,-2.2863,0.7318,14.0388,6.7981,23.8407,30.1376,21.4157,9.9934,3.6284,
2024-02-27T05:00:00Z,2024-02-23T12:00:00Z,Quito_El_Camal,-0.2500,-78.5100,710.3355,280.1929,300.8842,-1.9049,0.4530,10.3187,7.8844,26.6150,30.2962,24.6356,19.0015,4.3252,
2024-02-27T06:00:00Z,2024-02-23T12:00:00Z,Quito_El_Camal,-0.2500,-78.5100,709.7416,280.5938,132.0839,-1.6909,0.4785,8.3935,17.1863,27.9395,23.3068,26.9776,14.8914,4.9898,
2024-02-27T07:00:00Z,2024-02-23T12:00:00Z,Quito_El_Camal,-0.2500,-78.5100,709.3159,281.0035,33.7362,-1.2193,0.5590,7.1887,16.6598,28.6543,25.4839,29.2042,15.8873,5.5807,
2024-02-27T08:00:00Z,2024-02-23T12:00:00Z,Quito_El_Camal,-0.2500,-78.5100,709.0851,281.3865,24.7061,-0.9693,0.6028,6.2981,16.0667,29.0523,23.8922,31.9243,16.1297,6.1613,
2024-02-27T09:00:00Z,2024-02-23T12:00:00Z,Quito_El_Camal,-0.2500,-78.5100,709.2264,281.8064,30.1003,-0.7493,0.5450,5.2383,18.5626,29.4605,23.6217,35.4560,18.2406,6.8351,
2024-02-27T10:00:00Z,2024-02-23T12:00:00Z,Quito_El_Camal,-0.2500,-78.5100,709.6321,282.0717,30.2792,-0.5602,0.4798,3.8257,3.4724,30.3003,36.0741,39.7683,18.4299,7.8437,
2024-02-27T11:00:00Z,2024-02-23T12:00:00Z,Quito_El_Camal,-0.2500,-78.5100,710.1631,282.2768,30.2792,-0.5485,0.4115,4.8136,2.5634,28.8832,39.7587,44.3932,27.6565,8.9930,
2024-02-27T12:00:00Z,2024-02-23T12:00:00Z,Quito_El_Camal,-0.2500,-78.5100,710.7478,283.2498,35.8224,-0.6233,0.0536,17.8759,6.3629,19.3936,43.4494,33.5123,24.3353,7.3347,
2024-02-27T13:00:00Z,2024-02-23T12:00:00Z,Quito_El_Camal,-0.2500,-78.5100,711.2219,284.8447,37.5509,-0.1600,-0.8761,33.3518,13.8652,9.2168,39.6856,17.8542,30.4535,4.6836,
2024-02-27T14:00:00Z,2024-02-23T12:00:00Z,Quito_El_Camal,-0.2500,-78.5100,711.2788,286.2180,34.5707,0.6015,-1.5230,40.7102,33.1071,6.2122,36.5373,15.2694,28.0760,4.2465,
2024-02-27T15:00:00Z,2024-02-23T12:00:00Z,Quito_El_Camal,-0.2500,-78.5100,710.9139,287.4800,47.9221,1.5233,-2.0994,49.5269,42.7893,4.6986,38.3279,14.8935,25.5366,4.0947,
2024-02-27T16:00:00Z,2024-02-23T12:00:00Z,Quito_El_Camal,-0.2500,-78.5100,710.2548,288.1857,102.1624,2.3804,-2.3914,59.7121,57.3247,3.6559,39.3615,15.2531,29.4610,4.0516,
2024-02-27T17:00:00Z,2024-02-23T12:00:00Z,Quito_El_Camal,-0.2500,-78.5100,709.5526,287.7736,217.6762,2.8314,-2.3551,67.1126,63.6528,3.4838,29.2745,16.4350,31.2851,4.2339,
2024-02-27T18:00:00Z,2024-02-23T12:00:00Z,Quito_El_Camal,-0.2500,-78.5100,708.9388,286.8956,440.5975,2.8506,-2.1434,69.5848,59.4911,3.8147,28.4370,17.4295,24.8563,5.4506,
2024-02-27T19:00:00Z,2024-02-23T12:00:00Z,Quito_El_Camal,-0.2500,-78.5100,708.3965,286.4980,812.5305,2.7668,-1.8674,68.2986,51.5020,4.2501,26.2946,17.1758,23.6743,5.3060,
2024-02-27T20:00:00Z,2024-02-23T12:00:00Z,Quito_El_Camal,-0.2500,-78.5100,708.0123,286.3720,1293.1824,2.6548,-1.4696,65.0515,48.2566,4.6975,26.7397,16.0786,23.9653,5.6697,
2024-02-27T21:00:00Z,2024-02-23T12:00:00Z,Quito_El_Camal,-0.2500,-78.5100,708.0408,286.1475,1789.0930,2.4191,-0.9269,60.7814,44.1934,5.8169,27.8774,15.2628,24.8122,7.2636,
2024-02-27T22:00:00Z,2024-02-23T12:00:00Z,Quito_El_Camal,-0.2500,-78.5100,708.4885,285.5431,2197.2656,1.7079,-0.2465,54.6953,35.8688,9.2987,33.0495,15.9493,16.5061,6.7771,
2024-02-27T23:00:00Z,2024-02-23T12:00:00Z,Quito_El_Camal,-0.2500,-78.5100,709.1353,284.4122,2231.5979,0.3114,0.4818,42.6466,26.2836,19.2505,40.2853,19.9480,19.9270,7.3520,
2024-02-28T00:00:00Z,2024-02-23T12:00:00Z,Quito_El_Camal,-0.2500,-78.5100,709.5609,283.6740,1235.9619,-0.5185,0.7791,30.6375,16.4015,29.4415,49.3544,25.1640,23.9805,8.7922,
2024-02-28T01:00:00Z,2024-02-23T12:00:00Z,Quito_El_Camal,-0.2500,-78.5100,709.5618,283.4236,249.3858,-0.2442,0.8926,22.2518,10.2898,35.7964,48.8418,30.1887,20.0990,9.6523,
2024-02-28T02:00:00Z,2024-02-23T12:00:00Z,Quito_El_Camal,-0.2500,-78.5100,710.0444,283.7355,66.1612,-0.2479,0.5623,17.8907,7.2808,39.7302,43.9311,36.2836,21.4633,10.2944,
2024-02-28T03:00:00Z,2024-02-23T12:00:00Z,Quito_El_Camal,-0.2500,-78.5100,710.5952,283.8023,268.4593,-0.7549,-0.0462,12.9362,5.3002,43.0576,37.5813,44.6605,24.7173,11.7473,
2024-02-28T04:00:00Z,2024-02-23T12:00:00Z,Quito_El_Camal,-0.2500,-78.5100,710.4468,283.6662,431.0608,-0.8292,-0.0866,7.3851,11.0316,45.7308,38.9346,53.9222,18.3323,13.4186,
2024-02-28T05:00:00Z,2024-02-23T12:00:00Z,Quito_El_Camal,-0.2500,-78.5100,709.8547,283.5682,808.7158,-0.4680,0.1330,3.8803,9.4858,47.3208,31.1254,62.6190,19.5642,14.6262,
2024-02-28T06:00:00Z,2024-02-23T12:00:00Z,Quito_El_Camal,-0.2500,-78.5100,709.2222,283.3595,660.8963,0.0316,0.7926,2.7239,6.0833,46.5074,26.8691,69.4941,16.7594,16.3436,
2024-02-28T07:00:00Z,2024-02-23T12:00:00Z,Quito_El_Camal,-0.2500,-78.5100,708.7051,283.2291,146.1506,-0.1315,0.7309,3.2688,9.5509,43.7552,19.1786,73.9964,21.7149,16.4895,
2024-02-28T08:00:00Z,2024-02-23T12:00:00Z,Quito_El_Camal,-0.2500,-78.5100,708.5608,283.2529,26.1664,-0.4396,0.1836,2.7214,15.3785,42.6954,22.4772,82.1243,15.4184,17.2455,
2024-02-28T09:00:00Z,2024-02-23T12:00:00Z,Quito_El_Camal,-0.2500,-78.5100,708.8069,283.2000,73.1945,-0.5718,0.0836,2.3497,15.5325,41.9928,18.9423,90.7497,17.8210,19.5740,
2024-02-28T10:00:00Z,2024-02-23T12:00:00Z,Quito_El_Camal,-0.2500,-78.5100,709.1301,283.0705,179.0524,-0.6641,0.2745,2.7096,4.0209,40.1353,27.2687,96.3707,22.7078,23.2433,
2024-02-28T11:00:00Z,2024-02-23T12:00:00Z,Quito_El_Camal,-0.2500,-78.5100,709.5497,283.0406,234.3655,-0.7543,0.2760,7.0130,3.8842,34.8754,37.1877,98.7400,26.3477,26.5921,
2024-02-23T12:00:00Z,2024-02-23T12:00:00Z,Quito_Carapungo,-0.0983,-78.4472,744.5554,286.1244,415.8020,1.0958,-0.8417,31.9169,20.2336,10.9150,29.1103,20.7142,27.0527,2.5752,
2024-02-23T13:00:00Z,2024-02-23T12:00:00Z,Quito_Carapungo,-0.0983,-78.4472,744.6526,286.8034,604.6295,1.6449,-0.9978,40.6139,25.7399,5.3930,22.9722,9.8903,14.7886,2.3675,
2024-02-23T14:00:00Z,2024-02-23T12:00:00Z,Quito_Carapungo,-0.0983,-78.4472,744.6077,287.6539,925.0641,2.0518,-1.0718,43.7533,34.1477,3.3344,20.9036,7.7115,17.5039,2.9065,
2024-02-23T15:00:00Z,2024-02-23T12:00:00Z,Quito_Carapungo,-0.0983,-78.4472,744.6957,288.3202,1125.3357,2.4427,-1.1243,44.8724,43.2256,2.6331,16.0273,7.4049,19.4557,4.9266,
2024-02-23T16:00:00Z,2024-02-23T12:00:00Z,Quito_Carapungo,-0.0983,-78.4472,744.4029,288.4792,1266.4795,2.8546,-1.3365,43.6161,43.0832,2.4878,13.9941,7.5818,18.8968,8.4911,
2024-02-23T17:00:00Z,2024-02-23T12:00:00Z,Quito_Carapungo,-0.0983,-78.4472,744.0325,288.6376,1529.6936,3.1098,-1.4551,42.9208,42.9340,2.2284,11.7262,7.2762,19.4228,9.6095,
2024-02-23T18:00:00Z,2024-02-23T12:00:00Z,Quito_Carapungo,-0.0983,-78.4472,743.5570,288.8865,1956.9397,3.5084,-1.6787,43.4186,42.2523,1.9194,10.5737,6.3364,20.1658,10.6640,
2024-02-23T19:00:00Z,2024-02-23T12:00:00Z,Quito_Carapungo,-0.0983,-78.4472,743.0343,289.0886,2311.7065,4.0572,-2.0066,43.6601,42.7240,1.5804,10.5057,5.2637,18.5418,14.4905,
2024-02-23T20:00:00Z,2024-02-23T12:00:00Z,Quito_Carapungo,-0.0983,-78.4472,742.7704,288.8464,2166.7480,4.4438,-2.2350,42.4282,38.5228,1.5553,10.0994,4.4976,17.1116,13.0001,
2024-02-23T21:00:00Z,2024-02-23T12:00:00Z,Quito_Carapungo,-0.0983,-78.4472,742.7192,288.0189,1588.8214,4.1729,-1.3613,39.1676,31.8279,2.6055,11.1736,4.3346,16.0131,7.1903,
2024-02-23T22:00:00Z,2024-02-23T12:00:00Z,Quito_Carapungo,-0.0983,-78.4472,743.2570,287.2614,2536.7737,3.0076,0.0690,34.1696,18.4445,6.0097,19.9586,5.6410,14.5831,4.1189,
2024-02-23T23:00:00Z,2024-02-23T12:00:00Z,Quito_Carapungo,-0.0983,-78.4472,744.1105,286.9456,1890.1825,1.5827,-0.1104,30.5430,15.7107,8.8521,20.5139,7.0879,14.4302,1.9421,
2024-02-24T00:00:00Z,2024-02-23T12:00:00Z,Quito_Carapungo,-0.0983,-78.4472,743.6501,287.0050,363.8268,1.8119,0.4760,29.5165,12.8852,9.1473,21.4338,9.3704,13.9117,2.1224,
2024-02-24T01:00:00Z,2024-02-23T12:00:00Z,Quito_Carapungo,-0.0983,-78.4472,744.2551,286.9844,370.9793,1.2684,-0.1136,28.4097,11.7637,9.3746,22.9171,11.3259,12.9595,2.0416,
2024-02-24T02:00:00Z,2024-02-23T12:00:00Z,Quito_Carapungo,-0.0983,-78.4472,745.2126,286.9416,386.2381,1.0919,-0.1320,24.6105,14.7638,11.9807,23.0466,13.9388,15.5480,2.1177,
2024-02-24T03:00:00Z,2024-02-23T12:00:00Z,Quito_Carapungo,-0.0983,-78.4472,745.7459,286.7350,354.7668,0.9208,0.1273,20.9097,12.7728,14.4269,22.0232,15.4417,14.9222,2.6189,
2024-02-24T04:00:00Z,2024-02-23T12:00:00Z,Quito_Carapungo,-0.0983,-78.4472,745.8137,286.3900,222.4445,0.6309,0.0330,16.6707,9.8114,17.5485,21.3859,19.9639,15.0781,3.2962,
2024-02-24T05:00:00Z,2024-02-23T12:00:00Z,Quito_Carapungo,-0.0983,-78.4472,745.4709,285.9856,36.6569,0.1635,-0.0576,16.0077,8.9826,17.3974,19.1961,26.6719,15.6021,4.0570,
2024-02-24T06:00:00Z,2024-02-23T12:00:00Z,Quito_Carapungo,-0.0983,-78.4472,744.8285,285.6119,17.5238,-0.0049,-0.1813,15.7300,8.7018,17.0062,16.7878,33.1377,18.2765,4.9595,
2024-02-24T07:00:00Z,2024-02-23T12:00:00Z,Quito_Carapungo,-0.0983,-78.4472,744.5428,285.2998,22.5604,0.2448,-0.1629,15.5439,10.0069,16.9553,16.6250,40.3924,17.5555,5.2033,
2024-02-24T08:00:00Z,2024-02-23T12:00:00Z,Quito_Carapungo,-0.0983,-78.4472,744.4476,285.0410,49.4719,0.6634,-0.1160,15.1611,13.2223,16.4218,13.7067,45.3432,19.0049,4.3596,
2024-02-24T09:00:00Z,2024-02-23T12:00:00Z,Quito_Carapungo,-0.0983,-78.4472,744.3656,284.8878,73.7906,0.6151,-0.1400,14.8164,13.9664,14.9984,14.7849,32.5949,14.6966,3.6750,
2024-02-24T10:00:00Z,2024-02-23T12:00:00Z,Quito_Carapungo,-0.0983,-78.4472,744.4081,284.8156,76.5324,0.3331,-0.2101,14.5576,12.8605,14.2666,20.9582,30.5961,15.7905,3.2583,
2024-02-24T11:00:00Z,2024-02-23T12:00:00Z,Quito_Carapungo,-0.0983,-78.4472,744.7369,284.8878,74.0290,-0.3474,-0.0921,15.1971,11.4430,13.5537,30.6666,30.6476,29.6330,3.3439,
2024-02-24T12:00:00Z,2024-02-23T12:00:00Z,Quito_Carapungo,-0.0983,-78.4472,745.2427,285.6405,104.3081,-0.8457,0.0133,19.1345,10.3639,12.0988,29.2282,26.1114,27.4342,3.6945,
2024-02-24T13:00:00Z,2024-02-23T12:00:00Z,Quito_Carapungo,-0.0983,-78.4472,745.6513,286.9671,191.2117,-0.3119,-0.4757,24.5792,10.5045,9.5915,28.2516,18.4246,24.6260,3.4125,
2024-02-24T14:00:00Z,2024-02-23T12:00:00Z,Quito_Carapungo,-0.0983,-78.4472,745.9064,287.8949,232.6965,0.7519,-1.1361,30.2981,26.2917,6.9148,26.1800,14.1300,23.9136,3.3305,
2024-02-24T15:00:00Z,2024-02-23T12:00:00Z,Quito_Carapungo,-0.0983,-78.4472,746.0323,288.1070,349.5216,1.5799,-1.6489,34.4140,37.2449,5.0450,20.4013,11.4870,22.4132,3.5219,
2024-02-24T16:00:00Z,2024-02-23T12:00:00Z,Quito_Carapungo,-0.0983,-78.4472,745.9861,288.0410,577.9266,1.6453,-1.8834,36.8566,42.3653,3.4091,15.6983,9.3442,18.9585,4.6661,
2024-02-24T17:00:00Z,2024-02-23T12:00:00Z,Quito_Carapungo,-0.0983,-78.4472,745.6178,288.0552,740.0513,1.6337,-1.9938,36.7061,43.7777,2.7196,15.0021,7.7741,17.8218,6.5639,
2024-02-24T18:00:00Z,2024-02-23T12:00:00Z,Quito_Carapungo,-0.0983,-78.4472,744.9863,288.2100,1068.1152,1.6588,-2.0356,35.8736,40.5784,2.2632,13.1462,6.4141,20.0614,7.4869,
2024-02-24T19:00:00Z,2024-02-23T12:00:00Z,Quito_Carapungo,-0.0983,-78.4472,744.2358,288.3109,1546.8597,1.8418,-1.8905,35.0876,37.1118,2.1302,12.0607,5.6352,19.0638,9.4874,
2024-02-24T20:00:00Z,2024-02-23T12:00:00Z,Quito_Carapungo,-0.0983,-78.4472,743.5209,288.3636,2391.8152,2.1391,-1.5903,34.1377,39.5630,2.1900,11.5462,5.2184,17.4795,9.4427,
2024-02-24T21:00:00Z,2024-02-23T12:00:00Z,Quito_Carapungo,-0.0983,-78.4472,742.9810,288.4671,3639.2212,2.3212,-1.3313,32.3697,33.5643,2.4546,12.6685,5.0461,15.7579,9.5731,
2024-02-24T22:00:00Z,2024-02-23T12:00:00Z,Quito_Carapungo,-0.0983,-78.4472,742.8877,288.0945,4211.4258,2.0057,-1.1366,27.2951,27.2073,4.8164,17.1782,5.8397,14.8496,9.1208,
2024-02-24T23:00:00Z,2024-02-23T12:00:00Z,Quito_Carapungo,-0.0983,-78.4472,743.2987,287.4249,3765.1062,1.2732,-0.7816,18.8358,15.8552,11.8258,23.0098,9.1321,15.2686,4.4076,
2024-02-25T00:00:00Z,2024-02-23T12:00:00Z,Quito_Carapungo,-0.0983,-78.4472,744.0726,287.2061,2700.8057,1.2624,-0.7045,15.8880,13.1889,15.7475,25.7524,12.5556,11.3888,2.8642,
2024-02-25T01:00:00Z,2024-02-23T12:00:00Z,Quito_Carapungo,-0.0983,-78.4472,744.6923,286.9243,1182.5562,0.9505,-0.5467,15.1101,13.3109,17.4477,21.9079,16.6562,12.7482,2.9889,
2024-02-25T02:00:00Z,2024-02-23T12:00:00Z,Quito_Carapungo,-0.0983,-78.4472,745.3796,286.5724,377.6550,0.6589,-0.3661,14.7493,9.7212,18.7417,22.5334,22.9385,11.8135,4.0083,
2024-02-25T03:00:00Z,2024-02-23T12:00:00Z,Quito_Carapungo,-0.0983,-78.4472,745.9597,286.3136,315.1894,0.5804,-0.3851,14.1613,9.8951,19.7800,21.2117,28.6159,14.0065,5.1675,
2024-02-25T04:00:00Z,2024-02-23T12:00:00Z,Quito_Carapungo,-0.0983,-78.4472,746.1234,286.1087,293.7317,0.4594,-0.4773,13.2106,10.4051,20.1765,20.1100,33.4294,13.9051,5.1969,
2024-02-25T05:00:00Z,2024-02-23T12:00:00Z,Quito_Carapungo,-0.0983,-78.4472,745.8580,285.8420,149.7269,0.3410,-0.4378,12.4948,11.8317,19.9780,17.7935,37.3760,14.1004,5.1961,
2024-02-25T06:00:00Z,2024-02-23T12:00:00Z,Quito_Carapungo,-0.0983,-78.4472,745.4063,285.6013,104.6658,0.2776,-0.4548,11.8890,10.8101,19.4154,16.1928,41.5653,16.8097,5.6100,
2024-02-25T07:00:00Z,2024-02-23T12:00:00Z,Quito_Carapungo,-0.0983,-78.4472,745.0416,285.4597,89.1685,0.1065,-0.4302,11.3863,11.1410,18.8272,15.9391,46.8237,15.2574,5.5366,
2024-02-25T08:00:00Z,2024-02-23T12:00:00Z,Quito_Carapungo,-0.0983,-78.4472,744.8820,285.3219,77.2476,-0.0562,-0.4857,11.1011,10.8558,18.5170,15.5047,52.6367,12.9035,5.9587,
2024-02-25T09:00:00Z,2024-02-23T12:00:00Z,Quito_Carapungo,-0.0983,-78.4472,744.9224,285.1891,75.6979,-0.2325,-0.4378,10.9171,9.1550,18.6738,13.6582,58.3915,15.7968,7.2594,
2024-02-25T10:00:00Z,2024-02-23T12:00:00Z,Quito_Carapungo,-0.0983,-78.4472,745.1074,285.0353,59.9623,-0.3921,-0.3205,10.8157,4.5208,19.1305,18.2828,63.6994,18.8614,8.2553,
2024-02-25T11:00:00Z,2024-02-23T12:00:00Z,Quito_Carapungo,-0.0983,-78.4472,745.4090,284.9234,34.3919,-0.6194,-0.1541,11.3627,2.7889,19.2300,28.4777,67.7585,23.1161,9.2298,
2024-02-25T12:00:00Z,2024-02-23T12:00:00Z,Quito_Carapungo,-0.0983,-78.4472,745.8292,285.4609,10.4010,-0.8734,-0.1963,17.4715,5.0790,16.5122,32.9792,57.7537,38.9410,8.8216,
2024-02-25T13:00:00Z,2024-02-23T12:00:00Z,Quito_Carapungo,-0.0983,-78.4472,746.2047,286.7355,7.9572,-0.5659,-0.5039,29.4708,8.9593,11.1673,27.2214,32.7521,29.3693,7.0513,
2024-02-25T14:00:00Z,2024-02-23T12:00:00Z,Quito_Carapungo,-0.0983,-78.4472,746.2755,288.0462,10.3116,-0.1903,-0.9193,39.5256,19.6931,6.7686,24.9875,21.7833,21.3205,6.2862,
2024-02-25T15:00:00Z,2024-02-23T12:00:00Z,Quito_Carapungo,-0.0983,-78.4472,746.1494,289.0798,12.4574,0.2901,-1.3674,47.1837,33.3872,4.2236,20.2032,17.2214,21.6099,6.1395,
2024-02-25T16:00:00Z,2024-02-23T12:00:00Z,Quito_Carapungo,-0.0983,-78.4472,745.7844,289.6626,21.4577,0.8356,-1.7039,53.1220,39.6228,2.5962,15.8813,14.8304,23.1666,6.2833,
2024-02-25T17:00:00Z,2024-02-23T12:00:00Z,Quito_Carapungo,-0.0983,-78.4472,745.1064,289.6470,50.3659,1.4632,-1.9716,55.5835,48.1401,1.8096,12.9871,13.3103,24.0267,6.6601,
2024-02-25T18:00:00Z,2024-02-23T12:00:00Z,Quito_Carapungo,-0.0983,-78.4472,744.5731,289.1230,125.1698,1.8496,-2.0795,53.8270,46.2083,1.4591,11.5880,11.7180,23.2818,7.9691,
2024-02-25T19:00:00Z,2024-02-23T12:00:00Z,Quito_Carapungo,-0.0983,-78.4472,744.0925,288.5009,234.1270,2.0047,-1.9541,48.9681,46.2701,1.6794,10.8620,9.9816,22.0057,9.7609,
2024-02-25T20:00:00Z,2024-02-23T12:00:00Z,Quito_Carapungo,-0.0983,-78.4472,743.7257,288.0446,334.7397,2.0203,-1.7750,42.4708,38.4915,2.2996,10.5414,8.1991,19.2281,12.0180,
2024-02-25T21:00:00Z,2024-02-23T12:00:00Z,Quito_Carapungo,-0.0983,-78.4472,743.6443,287.6303,421.5240,1.9376,-1.5732,37.0105,34.9722,3.1691,11.9980,6.9020,17.3775,16.8919,
2024-02-25T22:00:00Z,2024-02-23T12:00:00Z,Quito_Carapungo,-0.0983,-78.4472,743.8690,287.2135,525.4745,1.6130,-1.2511,31.6795,27.7848,4.9053,15.6469,6.7003,16.0332,20.9664,
2024-02-25T23:00:00Z,2024-02-23T12:00:00Z,Quito_Carapungo,-0.0983,-78.4472,744.3227,287.0439,604.6295,1.1397,-0.8353,26.1408,13.3406,8.0687,20.3388,8.1254,16.8909,10.0241,
2024-02-26T00:00:00Z,2024-02-23T12:00:00Z,Quito_Carapungo,-0.0983,-78.4472,744.8787,287.0111,665.6647,0.8792,-0.5340,21.5848,13.9695,11.3665,22.4752,11.2702,12.5312,6.1177,
2024-02-26T01:00:00Z,2024-02-23T12:00:00Z,Quito_Carapungo,-0.0983,-78.4472,745.2194,286.8656,784.8740,0.6069,-0.2793,17.3939,9.6275,15.5813,23.5730,15.9609,15.6217,4.7799,
2024-02-26T02:00:00Z,2024-02-23T12:00:00Z,Quito_Carapungo,-0.0983,-78.4472,745.5977,286.6512,1131.0577,0.2475,-0.1241,15.7110,8.2889,19.0352,27.6367,22.2311,13.4235,4.5924,
2024-02-26T03:00:00Z,2024-02-23T12:00:00Z,Quito_Carapungo,-0.0983,-78.4472,745.8544,286.4597,1457.2144,0.2187,-0.0408,15.5957,7.3961,22.4293,26.0716,29.8282,13.3029,5.5451,
2024-02-26T04:00:00Z,2024-02-23T12:00:00Z,Quito_Carapungo,-0.0983,-78.4472,745.7435,286.2455,1522.0642,0.2609,-0.1440,15.5832,9.6123,24.7919,22.7321,37.0156,16.9156,5.8762,
2024-02-26T05:00:00Z,2024-02-23T12:00:00Z,Quito_Carapungo,-0.0983,-78.4472,745.2919,286.0237,1413.3453,0.3399,-0.1485,15.4764,12.8713,25.2157,19.7174,42.4544,18.0915,5.8357,
2024-02-26T06:00:00Z,2024-02-23T12:00:00Z,Quito_Carapungo,-0.0983,-78.4472,744.8242,285.9156,1014.7095,0.3082,-0.1684,15.2318,13.4594,24.2447,19.5070,46.3900,16.3750,5.9756,
2024-02-26T07:00:00Z,2024-02-23T12:00:00Z,Quito_Carapungo,-0.0983,-78.4472,744.4789,285.7791,615.1199,0.2923,-0.1533,15.1007,13.3283,22.8608,17.7747,49.5784,17.6693,5.9254,
2024-02-26T08:00:00Z,2024-02-23T12:00:00Z,Quito_Carapungo,-0.0983,-78.4472,744.2134,285.6344,444.4122,0.3283,-0.1311,14.9059,13.1333,21.4588,15.8240,52.6384,14.3340,6.0579,
2024-02-26T09:00:00Z,2024-02-23T12:00:00Z,Quito_Carapungo,-0.0983,-78.4472,744.2432,285.5128,319.0041,0.4323,-0.2015,14.6721,12.8986,19.8109,18.0125,55.2646,15.6806,6.4223,
2024-02-26T10:00:00Z,2024-02-23T12:00:00Z,Quito_Carapungo,-0.0983,-78.4472,744.4683,285.4210,235.5576,0.4409,-0.3569,14.5061,10.5520,18.2693,28.0035,58.2013,12.6923,6.0419,
2024-02-26T11:00:00Z,2024-02-23T12:00:00Z,Quito_Carapungo,-0.0983,-78.4472,744.9521,285.4529,255.1079,0.6068,-0.3743,15.2810,9.8076,16.7874,31.1573,58.5184,20.8653,5.2637,
2024-02-26T12:00:00Z,2024-02-23T12:00:00Z,Quito_Carapungo,-0.0983,-78.4472,745.6998,286.1135,248.4322,1.4466,-0.5132,25.8365,15.4845,8.2568,27.0606,20.2405,26.4093,2.4129,
2024-02-26T13:00:00Z,2024-02-23T12:00:00Z,Quito_Carapungo,-0.0983,-78.4472,746.3157,287.0774,295.1622,1.8329,-0.6873,33.3712,23.3217,3.4848,23.7530,8.3962,19.9735,1.6576,
2024-02-26T14:00:00Z,2024-02-23T12:00:00Z,Quito_Carapungo,-0.0983,-78.4472,746.5135,288.2725,352.8595,2.2513,-1.0181,37.2446,32.5072,2.1500,23.4479,6.0542,18.5149,1.5207,
2024-02-26T15:00:00Z,2024-02-23T12:00:00Z,Quito_Carapungo,-0.0983,-78.4472,746.3628,289.0719,452.5185,2.6857,-1.3258,40.3443,47.6463,1.6915,18.2537,5.3764,18.5286,1.8528,
2024-02-26T16:00:00Z,2024-02-23T12:00:00Z,Quito_Carapungo,-0.0983,-78.4472,745.7715,289.1858,674.2477,3.0326,-1.4833,42.3330,44.8774,1.3885,14.7247,5.0982,18.0619,2.4180,
2024-02-26T17:00:00Z,2024-02-23T12:00:00Z,Quito_Carapungo,-0.0983,-78.4472,744.9951,288.6175,1056.6711,3.1342,-1.4256,41.0277,43.1534,1.5508,12.9899,4.8697,18.0135,3.7192,
2024-02-26T18:00:00Z,2024-02-23T12:00:00Z,Quito_Carapungo,-0.0983,-78.4472,744.1936,288.3933,1605.9875,3.1754,-1.4619,38.5874,38.3349,1.6750,10.7694,4.5727,17.0524,4.8634,
2024-02-26T19:00:00Z,2024-02-23T12:00:00Z,Quito_Carapungo,-0.0983,-78.4472,743.5239,288.4728,2330.7800,3.1626,-1.7324,37.4162,40.5760,1.5667,10.0876,4.1328,16.6124,3.6872,
2024-02-26T20:00:00Z,2024-02-23T12:00:00Z,Quito_Carapungo,-0.0983,-78.4472,742.9580,288.6707,3253.9368,3.0209,-2.0588,37.3620,39.5888,1.4401,10.3275,3.7535,16.8974,4.9831,
2024-02-26T21:00:00Z,2024-02-23T12:00:00Z,Quito_Carapungo,-0.0983,-78.4472,742.7490,288.4290,4364.0137,2.5112,-2.0058,35.6954,37.9234,2.6304,12.5054,4.1381,15.5141,4.4757,
2024-02-26T22:00:00Z,2024-02-23T12:00:00Z,Quito_Carapungo,-0.0983,-78.4472,742.9504,287.9321,5485.5347,1.5792,-1.0555,30.0874,23.5443,7.5304,19.0896,6.1555,12.7056,2.0605,
2024-02-26T23:00:00Z,2024-02-23T12:00:00Z,Quito_Carapungo,-0.0983,-78.4472,743.5037,287.4222,5393.9819,0.7723,-0.0465,21.3403,15.6987,15.9735,25.3225,10.0015,15.4326,0.8413,
2024-02-27T00:00:00Z,2024-02-23T12:00:00Z,Quito_Carapungo,-0.0983,-78.4472,744.0993,286.9677,4455.5664,0.2159,0.4181,23.1774,13.4752,14.3833,23.0158,9.3094,9.1117,0.9152,
2024-02-27T01:00:00Z,2024-02-23T12:00:00Z,Quito_Carapungo,-0.0983,-78.4472,744.9069,286.0941,3017.4255,-0.8855,1.2802,21.8298,13.1534,15.8893,25.7008,10.0648,9.1532,1.3837,
2024-02-27T02:00:00Z,2024-02-23T12:00:00Z,Quito_Carapungo,-0.0983,-78.4472,745.7896,284.9565,1941.6809,-1.5312,1.3430,18.0072,11.6990,19.8697,25.6767,12.8144,11.8428,1.7266,
2024-02-27T03:00:00Z,2024-02-23T12:00:00Z,Quito_Carapungo,-0.0983,-78.4472,746.1900,284.0273,1461.0291,-1.6267,0.8848,15.9791,12.0955,21.7010,25.2678,15.1347,13.7362,2.2689,
2024-02-27T04:00:00Z,2024-02-23T12:00:00Z,Quito_Carapungo,-0.0983,-78.4472,746.0882,283.4756,1028.0609,-1.6340,0.5884,14.8141,13.2718,22.7573,24.2631,17.2594,12.7220,2.8389,
2024-02-27T05:00:00Z,2024-02-23T12:00:00Z,Quito_Carapungo,-0.0983,-78.4472,745.4955,283.1773,661.8500,-1.6393,0.4681,12.6726,13.4978,24.5859,13.4091,19.9169,11.3435,3.3902,
2024-02-27T06:00:00Z,2024-02-23T12:00:00Z,Quito_Carapungo,-0.0983,-78.4472,744.7816,283.1094,334.7397,-1.4370,0.3873,11.5806,13.2455,25.4578,14.8880,21.7901,11.7780,3.8838,
2024-02-27T07:00:00Z,2024-02-23T12:00:00Z,Quito_Carapungo,-0.0983,-78.4472,744.2358,283.1597,128.7460,-1.1022,0.3465,10.8414,12.5048,26.1118,19.0710,23.4855,12.2490,4.3511,
2024-02-27T08:00:00Z,2024-02-23T12:00:00Z,Quito_Carapungo,-0.0983,-78.4472,743.9651,283.2928,57.2801,-1.0708,0.3890,10.2589,13.6458,26.4283,23.6928,25.4868,13.7557,4.8444,
2024-02-27T09:00:00Z,2024-02-23T12:00:00Z,Quito_Carapungo,-0.0983,-78.4472,744.0664,283.5564,24.4677,-0.9095,0.4180,9.7108,11.6997,26.4918,25.3568,28.0497,13.0530,5.3872,
2024-02-27T10:00:00Z,2024-02-23T12:00:00Z,Quito_Carapungo,-0.0983,-78.4472,744.5121,283.8685,6.6459,-0.8043,0.4650,8.8907,5.6586,26.8164,29.4502,31.1746,19.4236,5.9738,
2024-02-27T11:00:00Z,2024-02-23T12:00:00Z,Quito_Carapungo,-0.0983,-78.4472,745.0031,284.2299,4.5374,-0.7067,0.4466,9.9309,2.7507,25.5338,30.2579,34.7057,30.5278,6.5847,
2024-02-27T12:00:00Z,2024-02-23T12:00:00Z,Quito_Carapungo,-0.0983,-78.4472,745.6278,285.5936,5.7742,-0.3851,0.1093,24.6527,7.6014,15.2389,30.6525,23.0123,27.1171,4.8027,
2024-02-27T13:00:00Z,2024-02-23T12:00:00Z,Quito_Carapungo,-0.0983,-78.4472,746.0219,287.4697,7.2271,0.5254,-0.6696,37.9781,17.0682,6.6962,26.4323,12.5885,22.5536,3.3521,
2024-02-27T14:00:00Z,2024-02-23T12:00:00Z,Quito_Carapungo,-0.0983,-78.4472,745.9988,289.0305,8.4490,1.3293,-1.0874,45.1007,27.9453,4.0624,24.6548,11.0194,21.0815,3.1879,
2024-02-27T15:00:00Z,2024-02-23T12:00:00Z,Quito_Carapungo,-0.0983,-78.4472,745.5940,290.2300,7.8529,2.1415,-1.5994,52.4003,41.7334,2.9421,19.0916,11.0966,21.4430,3.1052,
2024-02-27T16:00:00Z,2024-02-23T12:00:00Z,Quito_Carapungo,-0.0983,-78.4472,744.9147,290.6545,23.6630,2.8354,-2.0008,59.5965,49.4599,2.1124,14.7112,11.6125,22.4153,3.0511,
2024-02-27T17:00:00Z,2024-02-23T12:00:00Z,Quito_Carapungo,-0.0983,-78.4472,744.2325,290.0236,87.7380,3.0541,-2.0426,63.7243,52.3106,1.8051,15.2445,12.4037,23.2065,3.1643,
2024-02-27T18:00:00Z,2024-02-23T12:00:00Z,Quito_Carapungo,-0.0983,-78.4472,743.5988,288.9893,206.9473,2.8545,-1.7938,63.2927,43.4937,1.9809,14.9986,12.6483,23.4510,3.9881,
2024-02-27T19:00:00Z,2024-02-23T12:00:00Z,Quito_Carapungo,-0.0983,-78.4472,742.9365,288.4667,406.7421,2.7004,-1.5266,59.7160,44.5188,2.3949,14.1738,11.8320,22.6348,5.1605,
2024-02-27T20:00:00Z,2024-02-23T12:00:00Z,Quito_Carapungo,-0.0983,-78.4472,742.5123,288.2157,685.6918,2.5962,-1.2373,55.6650,44.8642,2.8104,14.4519,10.5786,21.0971,6.4337,
2024-02-27T21:00:00Z,2024-02-23T12:00:00Z,Quito_Carapungo,-0.0983,-78.4472,742.4808,287.9288,1075.7446,2.3957,-0.7237,52.4253,42.4577,3.5864,14.0172,10.1847,20.6151,10.4941,
2024-02-27T22:00:00Z,2024-02-23T12:00:00Z,Quito_Carapungo,-0.0983,-78.4472,742.7685,287.6368,1476.2878,1.9423,0.0269,49.5485,33.7403,5.6548,17.3948,10.9493,19.0136,11.5137,
2024-02-27T23:00:00Z,2024-02-23T12:00:00Z,Quito_Carapungo,-0.0983,-78.4472,743.2953,287.1935,1628.8757,1.0432,0.8685,38.9628,25.0766,15.5233,28.3491,15.6824,15.8917,9.5784,
2024-02-28T00:00:00Z,2024-02-23T12:00:00Z,Quito_Carapungo,-0.0983,-78.4472,743.6809,286.9865,967.9794,0.6141,1.2283,26.2977,15.4769,28.5400,32.1965,23.0703,15.4830,9.6507,
2024-02-28T01:00:00Z,2024-02-23T12:00:00Z,Quito_Carapungo,-0.0983,-78.4472,743.9218,286.7986,638.0081,0.5578,0.7598,16.3432,11.2063,38.3829,19.1899,31.6574,15.1304,9.5941,
2024-02-28T02:00:00Z,2024-02-23T12:00:00Z,Quito_Carapungo,-0.0983,-78.4472,744.5643,286.8292,1295.0897,0.3742,0.2810,11.9723,12.4293,43.2187,20.7464,39.5336,15.1841,9.5086,
2024-02-28T03:00:00Z,2024-02-23T12:00:00Z,Quito_Carapungo,-0.0983,-78.4472,745.0952,286.7398,1428.6041,-0.3174,0.0573,10.4783,10.9325,43.5140,20.1588,45.9730,17.3146,10.6559,
2024-02-28T04:00:00Z,2024-02-23T12:00:00Z,Quito_Carapungo,-0.0983,-78.4472,744.9669,286.5724,974.6552,-0.5440,0.0970,9.9257,13.9651,41.6065,15.9802,51.7972,15.7305,11.9780,
2024-02-28T05:00:00Z,2024-02-23T12:00:00Z,Quito_Carapungo,-0.0983,-78.4472,744.2947,286.4119,775.3372,-0.1154,0.2854,9.2786,17.7372,40.2114,17.1636,58.3065,16.4105,12.9382,
2024-02-28T06:00:00Z,2024-02-23T12:00:00Z,Quito_Carapungo,-0.0983,-78.4472,743.4822,286.1563,394.8212,0.3642,0.6481,6.0798,16.7354,41.3329,13.0467,67.7441,18.1292,14.7866,
2024-02-28T07:00:00Z,2024-02-23T12:00:00Z,Quito_Carapungo,-0.0983,-78.4472,743.2252,286.0884,252.7237,0.1832,0.2250,3.3337,16.6317,42.4579,18.0523,77.9964,22.4982,15.2963,
2024-02-28T08:00:00Z,2024-02-23T12:00:00Z,Quito_Carapungo,-0.0983,-78.4472,743.1008,286.0654,296.5927,0.0096,-0.2187,4.8228,15.4763,39.3590,15.0594,84.2493,22.4818,15.6739,
2024-02-28T09:00:00Z,2024-02-23T12:00:00Z,Quito_Carapungo,-0.0983,-78.4472,743.3669,285.9343,382.4234,0.0557,-0.1986,6.7815,16.4370,34.1585,16.6696,87.4997,25.7322,17.3912,
2024-02-28T10:00:00Z,2024-02-23T12:00:00Z,Quito_Carapungo,-0.0983,-78.4472,743.6901,285.7736,535.0113,-0.0318,-0.1279,8.0016,11.9008,29.5833,27.2766,90.1207,26.3590,20.7403,
2024-02-28T11:00:00Z,2024-02-23T12:00:00Z,Quito_Carapungo,-0.0983,-78.4472,744.1497,285.6813,575.0656,-0.1615,-0.1585,9.8363,9.1199,25.7105,34.2349,91.4900,35.8069,24.3220,
2024-02-23T12:00:00Z,2024-02-23T12:00:00Z,Quito_Centro,-0.2200,-78.5100,709.9154,284.3588,334.2628,1.5294,-0.7421,18.3725,4.9744,22.3505,36.2388,48.3705,27.3800,3.3719,
2024-02-23T13:00:00Z,2024-02-23T12:00:00Z,Quito_Centro,-0.2200,-78.5100,710.0526,284.8347,400.5432,2.2484,-0.7927,31.3715,15.8617,9.7438,34.8563,19.5934,26.7991,2.2911,
2024-02-23T14:00:00Z,2024-02-23T12:00:00Z,Quito_Centro,-0.2200,-78.5100,710.1677,285.7476,591.2781,2.4580,-0.7104,36.5377,22.3033,5.5425,30.2706,12.6803,21.6207,2.3753,
2024-02-23T15:00:00Z,2024-02-23T12:00:00Z,Quito_Centro,-0.2200,-78.5100,710.1758,286.6327,596.0464,2.6615,-0.8397,41.6706,33.1405,3.9296,28.7043,9.7955,18.9488,2.6529,
2024-02-23T16:00:00Z,2024-02-23T12:00:00Z,Quito_Centro,-0.2200,-78.5100,709.8429,286.6355,745.7733,2.9562,-1.3268,43.0237,33.7099,3.9277,28.6905,9.9646,19.1178,5.0860,
2024-02-23T17:00:00Z,2024-02-23T12:00:00Z,Quito_Centro,-0.2200,-78.5100,709.3926,286.7314,1115.7990,3.1411,-1.6035,43.4809,33.3511,3.6849,25.0102,9.5731,18.7485,7.6596,
2024-02-23T18:00:00Z,2024-02-23T12:00:00Z,Quito_Centro,-0.2200,-78.5100,708.8370,287.0427,1749.0387,3.4030,-1.7236,44.4785,35.2716,3.3102,25.1977,8.2427,16.5250,11.4643,
2024-02-23T19:00:00Z,2024-02-23T12:00:00Z,Quito_Centro,-0.2200,-78.5100,708.2743,287.4636,2700.8057,3.8423,-2.0926,45.9512,30.4139,2.7077,21.8332,6.6856,14.9679,8.5970,
2024-02-23T20:00:00Z,2024-02-23T12:00:00Z,Quito_Centro,-0.2200,-78.5100,707.8104,287.4401,4081.7261,4.2876,-2.9030,45.1801,33.3768,2.6367,24.3862,5.5211,13.0476,5.8405,
2024-02-23T21:00:00Z,2024-02-23T12:00:00Z,Quito_Centro,-0.2200,-78.5100,707.8792,286.4564,3898.6206,3.2354,-2.3457,37.8246,28.1783,5.8790,29.5492,6.1784,12.4189,2.5518,
2024-02-23T22:00:00Z,2024-02-23T12:00:00Z,Quito_Centro,-0.2200,-78.5100,708.5370,285.6989,1987.4573,2.2108,-0.6425,29.2931,15.0990,10.9215,33.5030,7.6645,13.7360,2.4163,
2024-02-23T23:00:00Z,2024-02-23T12:00:00Z,Quito_Centro,-0.2200,-78.5100,709.3104,285.2268,1279.8309,1.7331,-0.7085,24.6938,11.3694,13.1739,36.4425,8.5566,14.6281,2.2840,
2024-02-24T00:00:00Z,2024-02-23T12:00:00Z,Quito_Centro,-0.2200,-78.5100,709.3301,284.6925,348.5680,1.8744,0.2166,23.3175,4.6120,13.1589,33.3190,10.2610,12.8641,2.7118,
2024-02-24T01:00:00Z,2024-02-23T12:00:00Z,Quito_Centro,-0.2200,-78.5100,709.5350,284.2344,116.1098,1.2547,0.1667,19.3564,3.5461,15.5353,32.3457,13.9353,15.5018,2.9948,
2024-02-24T02:00:00Z,2024-02-23T12:00:00Z,Quito_Centro,-0.2200,-78.5100,710.6526,283.9885,264.1678,0.6876,-0.5451,16.7128,3.5731,17.4267,34.3637,16.0481,16.6952,2.9617,
2024-02-24T03:00:00Z,2024-02-23T12:00:00Z,Quito_Centro,-0.2200,-78.5100,711.1859,283.8132,216.7225,0.3075,-0.1107,14.1885,3.7371,19.8513,35.2954,17.5354,16.2796,3.3356,
2024-02-24T04:00:00Z,2024-02-23T12:00:00Z,Quito_Centro,-0.2200,-78.5100,711.2537,283.6087,76.2939,0.1114,-0.0251,9.4175,3.8044,24.1882,31.3594,23.7139,16.4551,4.1838,
2024-02-24T05:00:00Z,2024-02-23T12:00:00Z,Quito_Centro,-0.2200,-78.5100,710.7509,283.3606,5.7817,-0.3316,-0.0195,6.1530,3.8714,26.6963,24.6634,33.2032,18.1690,5.2139,
2024-02-24T06:00:00Z,2024-02-23T12:00:00Z,Quito_Centro,-0.2200,-78.5100,710.1085,283.0963,1.4771,-0.4908,0.0048,3.7298,4.4695,28.3127,22.3671,42.2002,17.2117,6.5020,
2024-02-24T07:00:00Z,2024-02-23T12:00:00Z,Quito_Centro,-0.2200,-78.5100,709.7428,282.8780,6.4224,-0.1937,0.0196,2.2105,6.1964,29.6127,23.6657,51.9549,18.0454,7.2332,
2024-02-24T08:00:00Z,2024-02-23T12:00:00Z,Quito_Centro,-0.2200,-78.5100,709.6476,282.6972,23.0968,0.3948,-0.1077,2.6941,4.7062,28.5768,22.6267,58.4682,15.1835,6.6078,
2024-02-24T09:00:00Z,2024-02-23T12:00:00Z,Quito_Centro,-0.2200,-78.5100,709.4856,282.5596,54.2402,0.5311,-0.1693,3.3539,4.8899,26.1988,21.4569,46.3449,17.3999,5.6540,
2024-02-24T10:00:00Z,2024-02-23T12:00:00Z,Quito_Centro,-0.2200,-78.5100,709.6081,282.5343,62.1080,0.1514,-0.2140,2.0863,6.5522,26.2865,21.9168,47.7836,18.6409,5.3938,
2024-02-24T11:00:00Z,2024-02-23T12:00:00Z,Quito_Centro,-0.2200,-78.5100,710.0169,282.5597,78.5589,-0.6301,-0.0286,3.4884,3.8850,24.6000,33.0453,51.4601,21.2328,5.6286,
2024-02-24T12:00:00Z,2024-02-23T12:00:00Z,Quito_Centro,-0.2200,-78.5100,710.5227,283.2030,124.6929,-1.3447,0.3258,11.3393,5.7896,18.1586,38.0281,39.6427,25.1020,5.1460,
2024-02-24T13:00:00Z,2024-02-23T12:00:00Z,Quito_Centro,-0.2200,-78.5100,711.0113,284.2640,234.8423,-1.2075,0.1571,18.5121,11.1385,13.2704,39.5086,25.9559,28.7405,4.3292,
2024-02-24T14:00:00Z,2024-02-23T12:00:00Z,Quito_Centro,-0.2200,-78.5100,711.2664,285.4574,270.8435,-0.3155,-0.5990,25.2862,12.8980,9.0572,38.7904,18.7394,32.4124,4.0654,
2024-02-24T15:00:00Z,2024-02-23T12:00:00Z,Quito_Centro,-0.2200,-78.5100,711.3923,286.1382,371.4561,0.8211,-1.5200,30.4938,22.2420,6.5953,36.2630,14.9401,24.8111,4.4205,
2024-02-24T16:00:00Z,2024-02-23T12:00:00Z,Quito_Centro,-0.2200,-78.5100,711.2661,286.2285,611.3052,1.1687,-1.9849,33.6101,32.9766,4.9715,31.8934,13.4692,23.7533,5.7502,
2024-02-24T17:00:00Z,2024-02-23T12:00:00Z,Quito_Centro,-0.2200,-78.5100,710.8978,286.3365,807.7621,1.4383,-2.1578,34.1641,35.6308,4.3824,30.6020,12.1725,21.0384,7.3351,
2024-02-24T18:00:00Z,2024-02-23T12:00:00Z,Quito_Centro,-0.2200,-78.5100,710.2263,286.4287,1110.0769,1.7818,-2.1528,33.7875,33.7649,3.8778,28.1696,10.3751,19.8307,9.5023,
2024-02-24T19:00:00Z,2024-02-23T12:00:00Z,Quito_Centro,-0.2200,-78.5100,709.5159,286.4984,1403.8086,1.9668,-2.0037,33.0798,31.0488,3.8231,27.2316,8.8930,18.0684,10.7971,
2024-02-24T20:00:00Z,2024-02-23T12:00:00Z,Quito_Centro,-0.2200,-78.5100,708.8809,286.5199,1815.7959,1.9985,-1.6450,32.2579,21.7344,4.0734,28.1008,7.8825,17.1687,11.3053,
2024-02-24T21:00:00Z,2024-02-23T12:00:00Z,Quito_Centro,-0.2200,-78.5100,708.5010,286.4671,2471.9238,1.8270,-1.1145,31.0830,20.7691,4.7390,32.6742,7.4446,15.0836,11.9159,
2024-02-24T22:00:00Z,2024-02-23T12:00:00Z,Quito_Centro,-0.2200,-78.5100,708.4877,286.1570,3108.9783,1.3133,-0.3944,26.1242,13.6007,8.2722,36.5435,8.5194,16.1583,9.2226,
2024-02-24T23:00:00Z,2024-02-23T12:00:00Z,Quito_Centro,-0.2200,-78.5100,708.8987,285.5186,3433.2275,0.5657,0.1129,14.7467,5.0655,19.0496,42.6283,13.6946,18.1697,4.7859,
2024-02-25T00:00:00Z,2024-02-23T12:00:00Z,Quito_Centro,-0.2200,-78.5100,709.5926,285.2998,2685.5469,0.3819,0.0704,10.2906,4.2337,25.9911,40.9985,19.2274,17.4889,3.7810,
2024-02-25T01:00:00Z,2024-02-23T12:00:00Z,Quito_Centro,-0.2200,-78.5100,710.2122,285.1118,1102.4475,0.2889,0.0158,8.4229,4.0829,29.8814,41.9619,25.0937,19.5264,4.9171,
2024-02-25T02:00:00Z,2024-02-23T12:00:00Z,Quito_Centro,-0.2200,-78.5100,710.8196,284.8536,371.9330,0.2691,0.2767,6.8341,3.5133,32.5860,37.4559,32.4385,17.8148,5.8636,
2024-02-25T03:00:00Z,2024-02-23T12:00:00Z,Quito_Centro,-0.2200,-78.5100,711.2397,284.5323,277.9961,0.2120,0.3486,6.4469,3.9045,33.7288,33.9307,38.3659,19.9073,6.6518,
2024-02-25T04:00:00Z,2024-02-23T12:00:00Z,Quito_Centro,-0.2200,-78.5100,711.4033,284.2493,195.9801,0.1302,0.1680,5.9712,4.0075,34.3343,32.2029,43.6794,18.1474,7.0595,
2024-02-25T05:00:00Z,2024-02-23T12:00:00Z,Quito_Centro,-0.2200,-78.5100,711.0579,283.9357,96.0827,0.0685,0.0168,4.7967,6.2337,34.9200,32.1593,48.9385,19.6294,7.4880,
2024-02-25T06:00:00Z,2024-02-23T12:00:00Z,Quito_Centro,-0.2200,-78.5100,710.6063,283.6638,72.1216,-0.0224,0.0101,3.9982,6.1043,35.0523,25.5953,54.8153,19.4520,8.2293,
2024-02-25T07:00:00Z,2024-02-23T12:00:00Z,Quito_Centro,-0.2200,-78.5100,710.2416,283.4753,57.8761,-0.1811,0.0038,3.7635,9.4774,35.0173,27.3088,61.5737,17.6713,8.7672,
2024-02-25T08:00:00Z,2024-02-23T12:00:00Z,Quito_Centro,-0.2200,-78.5100,710.0819,283.2906,52.5117,-0.3199,-0.0008,3.8148,4.9562,35.3955,27.3579,68.7617,17.7604,9.5240,
2024-02-25T09:00:00Z,2024-02-23T12:00:00Z,Quito_Centro,-0.2200,-78.5100,710.1224,283.0954,55.3131,-0.4747,0.0876,4.1674,5.3097,35.9066,28.5332,75.2665,17.6126,10.6864,
2024-02-25T10:00:00Z,2024-02-23T12:00:00Z,Quito_Centro,-0.2200,-78.5100,710.3074,282.9103,43.9286,-0.6382,0.1731,4.7722,2.6515,35.8182,29.1796,80.0119,19.1199,11.5295,
2024-02-25T11:00:00Z,2024-02-23T12:00:00Z,Quito_Centro,-0.2200,-78.5100,710.5690,282.7828,26.0174,-0.8420,0.2849,7.2722,2.4139,33.5413,35.3970,82.2585,16.7752,12.0674,
2024-02-25T12:00:00Z,2024-02-23T12:00:00Z,Quito_Centro,-0.2200,-78.5100,710.9892,283.2734,12.1593,-1.0677,0.2842,14.6965,4.3239,26.9560,37.0837,72.1287,21.7729,11.1208,
2024-02-25T13:00:00Z,2024-02-23T12:00:00Z,Quito_Centro,-0.2200,-78.5100,711.3647,284.5323,8.0168,-1.1401,0.0657,28.1023,10.6594,15.9616,34.6318,41.1271,30.3380,7.7134,
2024-02-25T14:00:00Z,2024-02-23T12:00:00Z,Quito_Centro,-0.2200,-78.5100,711.5154,285.8587,6.1765,-1.0058,-0.4144,38.4329,18.0515,8.9574,35.1187,25.6583,23.2450,6.0897,
2024-02-25T15:00:00Z,2024-02-23T12:00:00Z,Quito_Centro,-0.2200,-78.5100,711.3895,287.0486,6.8992,-0.7375,-0.8781,46.3033,25.3186,5.4271,31.5403,19.3152,27.3186,5.5356,
2024-02-25T16:00:00Z,2024-02-23T12:00:00Z,Quito_Centro,-0.2200,-78.5100,710.9844,288.0376,9.2536,-0.1214,-1.3543,53.5003,41.5930,3.3933,25.3899,16.2836,24.4814,5.4393,
2024-02-25T17:00:00Z,2024-02-23T12:00:00Z,Quito_Centro,-0.2200,-78.5100,710.3065,288.5532,24.0207,0.7655,-1.8583,58.7305,42.1598,2.4401,19.9769,14.8416,21.1430,5.6487,
2024-02-25T18:00:00Z,2024-02-23T12:00:00Z,Quito_Centro,-0.2200,-78.5100,709.7331,288.1542,96.2019,1.3408,-2.3080,60.6679,46.4741,2.0747,16.4819,14.2493,18.6563,6.7322,
2024-02-25T19:00:00Z,2024-02-23T12:00:00Z,Quito_Centro,-0.2200,-78.5100,709.3325,287.0009,240.8028,1.5379,-2.4834,57.0570,47.0049,2.5519,17.9983,13.8722,17.8283,9.0188,
2024-02-25T20:00:00Z,2024-02-23T12:00:00Z,Quito_Centro,-0.2200,-78.5100,709.0857,286.2009,405.7884,1.4109,-2.2633,49.3705,38.0847,3.9046,19.1080,13.1210,18.5336,12.3527,
2024-02-25T21:00:00Z,2024-02-23T12:00:00Z,Quito_Centro,-0.2200,-78.5100,709.0443,285.7866,463.4857,1.1500,-1.9170,41.9358,30.3491,5.5829,27.6456,12.1051,17.5177,17.1247,
2024-02-25T22:00:00Z,2024-02-23T12:00:00Z,Quito_Centro,-0.2200,-78.5100,709.2690,285.4010,452.9953,0.7780,-1.4854,34.0305,18.1280,9.1135,35.7738,12.4972,17.5097,28.8245,
2024-02-25T23:00:00Z,2024-02-23T12:00:00Z,Quito_Centro,-0.2200,-78.5100,709.7627,285.1064,346.6606,0.4000,-1.0736,23.8417,8.1350,16.3746,42.0940,15.5160,18.8996,29.9603,
2024-02-26T00:00:00Z,2024-02-23T12:00:00Z,Quito_Centro,-0.2200,-78.5100,710.2787,284.8861,168.5619,0.3238,-0.8758,14.5569,3.5841,24.1270,41.5494,23.0358,20.1740,23.1507,
2024-02-26T01:00:00Z,2024-02-23T12:00:00Z,Quito_Centro,-0.2200,-78.5100,710.7394,284.5531,60.7371,0.1409,-0.7427,6.8198,4.0314,31.7721,40.3363,32.5703,19.0595,17.3019,
2024-02-26T02:00:00Z,2024-02-23T12:00:00Z,Quito_Centro,-0.2200,-78.5100,711.1577,284.3700,24.5869,-0.2529,-0.4801,3.6083,2.7942,37.8514,39.6873,43.6999,19.6598,13.3308,
2024-02-26T03:00:00Z,2024-02-23T12:00:00Z,Quito_Centro,-0.2200,-78.5100,711.3344,284.2097,28.3420,-0.4180,-0.2571,2.8858,5.4170,42.7988,35.2294,56.3282,21.5886,13.7451,
2024-02-26T04:00:00Z,2024-02-23T12:00:00Z,Quito_Centro,-0.2200,-78.5100,711.1835,284.0580,69.0222,-0.2938,-0.4038,2.3899,5.3175,46.4407,30.4151,68.8906,19.1012,15.0731,
2024-02-26T05:00:00Z,2024-02-23T12:00:00Z,Quito_Centro,-0.2200,-78.5100,710.7319,283.8518,117.5404,-0.1015,-0.5460,1.8852,5.9674,47.5738,29.3225,81.0169,21.6300,15.3963,
2024-02-26T06:00:00Z,2024-02-23T12:00:00Z,Quito_Centro,-0.2200,-78.5100,710.2642,283.6812,207.9010,-0.0375,-0.5717,1.7064,12.0104,46.1198,25.8900,92.8900,16.7814,14.4667,
2024-02-26T07:00:00Z,2024-02-23T12:00:00Z,Quito_Centro,-0.2200,-78.5100,709.8390,283.5916,284.6718,-0.0300,-0.5498,1.6691,11.9702,43.5274,25.4465,103.2659,21.3188,12.1755,
2024-02-26T08:00:00Z,2024-02-23T12:00:00Z,Quito_Centro,-0.2200,-78.5100,709.5334,283.4782,242.4717,0.0500,-0.5667,1.6559,11.9567,40.5034,29.2945,111.5134,16.5652,11.0346,
2024-02-26T09:00:00Z,2024-02-23T12:00:00Z,Quito_Centro,-0.2200,-78.5100,709.5232,283.3096,123.0240,0.1852,-0.6214,1.7411,12.0479,35.9298,27.5086,102.5146,20.2547,9.9657,
2024-02-26T10:00:00Z,2024-02-23T12:00:00Z,Quito_Centro,-0.2200,-78.5100,709.6683,283.1553,96.6787,0.1757,-0.6420,1.6347,9.2656,32.7687,28.4991,98.3888,28.5334,8.7995,
2024-02-26T11:00:00Z,2024-02-23T12:00:00Z,Quito_Centro,-0.2200,-78.5100,710.1521,283.2185,183.5823,0.2979,-0.5432,2.8227,4.9488,30.1190,34.6371,103.2684,24.6464,7.9122,
2024-02-26T12:00:00Z,2024-02-23T12:00:00Z,Quito_Centro,-0.2200,-78.5100,710.8998,283.9260,179.0524,1.0550,-0.8775,16.7854,5.5445,18.1824,39.0854,45.3968,26.7937,3.8462,
2024-02-26T13:00:00Z,2024-02-23T12:00:00Z,Quito_Centro,-0.2200,-78.5100,711.4758,284.9055,238.6570,1.6551,-1.1052,28.9510,14.7105,8.5144,37.6379,19.6462,24.4426,2.7690,
2024-02-26T14:00:00Z,2024-02-23T12:00:00Z,Quito_Centro,-0.2200,-78.5100,711.7136,286.2100,298.0232,2.2943,-1.3150,35.0540,23.5376,5.0300,33.6617,12.3355,21.8233,2.1591,
2024-02-26T15:00:00Z,2024-02-23T12:00:00Z,Quito_Centro,-0.2200,-78.5100,711.5228,286.8844,379.5624,2.8341,-1.5212,39.5877,30.3221,3.9386,31.0037,9.8217,21.0262,2.4858,
2024-02-26T16:00:00Z,2024-02-23T12:00:00Z,Quito_Centro,-0.2200,-78.5100,711.0115,286.9358,567.4362,3.1264,-1.5692,43.2160,31.4627,3.2568,29.8669,8.6764,19.9299,3.2984,
2024-02-26T17:00:00Z,2024-02-23T12:00:00Z,Quito_Centro,-0.2200,-78.5100,710.3151,286.5550,885.9634,3.1303,-1.5077,43.0645,30.5351,3.0983,30.1729,7.9009,17.4055,4.5014,
2024-02-26T18:00:00Z,2024-02-23T12:00:00Z,Quito_Centro,-0.2200,-78.5100,709.5536,286.4558,1405.7159,3.0347,-1.5049,41.2020,29.8019,3.0312,26.1886,7.2680,16.2188,6.5295,
2024-02-26T19:00:00Z,2024-02-23T12:00:00Z,Quito_Centro,-0.2200,-78.5100,708.8839,286.6603,2178.1921,2.9439,-1.6230,39.8457,27.9418,2.8918,24.5039,6.5351,16.3789,5.2988,
2024-02-26T20:00:00Z,2024-02-23T12:00:00Z,Quito_Centro,-0.2200,-78.5100,708.3580,287.0144,3150.9399,2.9272,-1.6487,39.1865,27.5626,2.7917,27.5641,5.7769,12.9863,3.3933,
2024-02-26T21:00:00Z,2024-02-23T12:00:00Z,Quito_Centro,-0.2200,-78.5100,708.1490,286.6165,4280.0903,2.6264,-1.1562,36.1989,19.5552,4.5054,30.7898,5.9858,13.1951,1.9728,
2024-02-26T22:00:00Z,2024-02-23T12:00:00Z,Quito_Centro,-0.2200,-78.5100,708.6304,285.7758,4806.5186,1.6056,-0.3318,27.4142,11.0505,11.4990,38.0952,8.5227,15.7357,0.6671,
2024-02-26T23:00:00Z,2024-02-23T12:00:00Z,Quito_Centro,-0.2200,-78.5100,709.5037,284.5472,3704.0710,0.3798,0.1061,18.0984,6.3180,20.1948,42.3047,12.0327,15.8505,0.7886,
2024-02-27T00:00:00Z,2024-02-23T12:00:00Z,Quito_Centro,-0.2200,-78.5100,710.1393,283.2802,2616.8823,-1.0410,0.7760,19.8804,6.8999,18.6282,37.2869,11.4813,14.2598,1.3008,
2024-02-27T01:00:00Z,2024-02-23T12:00:00Z,Quito_Centro,-0.2200,-78.5100,710.7869,281.7348,1840.5914,-2.0808,1.6259,19.6897,6.6261,19.5802,38.5260,12.8773,12.9722,2.0331,
2024-02-27T02:00:00Z,2024-02-23T12:00:00Z,Quito_Centro,-0.2200,-78.5100,711.1896,280.4721,1121.5210,-2.5116,1.5480,18.7032,5.5760,21.0677,40.4079,15.7519,14.0426,2.4888,
2024-02-27T03:00:00Z,2024-02-23T12:00:00Z,Quito_Centro,-0.2200,-78.5100,711.1900,279.8867,676.1551,-2.5682,1.0753,16.6290,7.6104,22.3801,31.9406,18.7285,12.8035,3.0292,
2024-02-27T04:00:00Z,2024-02-23T12:00:00Z,Quito_Centro,-0.2200,-78.5100,710.9282,279.9288,462.5320,-2.2863,0.7318,14.0388,6.8401,23.8407,28.8285,21.4157,12.8725,3.6284,
2024-02-27T05:00:00Z,2024-02-23T12:00:00Z,Quito_Centro,-0.2200,-78.5100,710.3355,280.1929,300.8842,-1.9049,0.4530,10.3187,7.7812,26.6150,22.1187,24.6356,17.3680,4.3252,
2024-02-27T06:00:00Z,2024-02-23T12:00:00Z,Quito_Centro,-0.2200,-78.5100,709.7416,280.5938,132.0839,-1.6909,0.4785,8.3935,11.7169,27.9395,21.4111,26.9776,14.8419,4.9898,
2024-02-27T07:00:00Z,2024-02-23T12:00:00Z,Quito_Centro,-0.2200,-78.5100,709.3159,281.0035,33.7362,-1.2193,0.5590,7.1887,8.6522,28.6543,20.9772,29.2042,15.3353,5.5807,
2024-02-27T08:00:00Z,2024-02-23T12:00:00Z,Quito_Centro,-0.2200,-78.5100,709.0851,281.3865,24.7061,-0.9693,0.6028,6.2981,9.6661,29.0523,22.4716,31.9243,15.2629,6.1613,
2024-02-27T09:00:00Z,2024-02-23T12:00:00Z,Quito_Centro,-0.2200,-78.5100,709.2264,281.8064,30.1003,-0.7493,0.5450,5.2383,7.9026,29.4605,20.0811,35.4560,16.5818,6.8351,
2024-02-27T10:00:00Z,2024-02-23T12:00:00Z,Quito_Centro,-0.2200,-78.5100,709.6321,282.0717,30.2792,-0.5602,0.4798,3.8257,3.1559,30.3003,25.6456,39.7683,16.3366,7.8437,
2024-02-27T11:00:00Z,2024-02-23T12:00:00Z,Quito_Centro,-0.2200,-78.5100,710.1631,282.2768,30.2792,-0.5485,0.4115,4.8136,1.6971,28.8832,32.1936,44.3932,21.8748,8.9930,
2024-02-27T12:00:00Z,2024-02-23T12:00:00Z,Quito_Centro,-0.2200,-78.5100,710.7478,283.2498,35.8224,-0.6233,0.0536,17.8759,3.1373,19.3936,37.7462,33.5123,27.2180,7.3347,
2024-02-27T13:00:00Z,2024-02-23T12:00:00Z,Quito_Centro,-0.2200,-78.5100,711.2219,284.8447,37.5509,-0.1600,-0.8761,33.3518,14.8137,9.2168,38.9359,17.8542,27.7582,4.6836,
2024-02-27T14:00:00Z,2024-02-23T12:00:00Z,Quito_Centro,-0.2200,-78.5100,711.2788,286.2180,34.5707,0.6015,-1.5230,40.7102,24.8692,6.2122,35.6379,15.2694,23.9457,4.2465,
2024-02-27T15:00:00Z,2024-02-23T12:00:00Z,Quito_Centro,-0.2200,-78.5100,710.9139,287.4800,47.9221,1.5233,-2.0994,49.5269,36.7569,4.6986,33.2198,14.8935,21.5230,4.0947,
2024-02-27T16:00:00Z,2024-02-23T12:00:00Z,Quito_Centro,-0.2200,-78.5100,710.2548,288.1857,102.1624,2.3804,-2.3914,59.7121,47.5358,3.6559,34.6803,15.2531,21.2812,4.0516,
2024-02-27T17:00:00Z,2024-02-23T12:00:00Z,Quito_Centro,-0.2200,-78.5100,709.5526,287.7736,217.6762,2.8314,-2.3551,67.1126,51.7117,3.4838,31.3463,16.4350,21.3148,4.2339,
2024-02-27T18:00:00Z,2024-02-23T12:00:00Z,Quito_Centro,-0.2200,-78.5100,708.9388,286.8956,440.5975,2.8506,-2.1434,69.5848,50.9459,3.8147,28.4242,17.4295,20.6779,5.4506,
2024-02-27T19:00:00Z,2024-02-23T12:00:00Z,Quito_Centro,-0.2200,-78.5100,708.3965,286.4980,812.5305,2.7668,-1.8674,68.2986,38.9644,4.2501,30.6198,17.1758,17.3641,5.3060,
2024-02-27T20:00:00Z,2024-02-23T12:00:00Z,Quito_Centro,-0.2200,-78.5100,708.0123,286.3720,1293.1824,2.6548,-1.4696,65.0515,36.5629,4.6975,26.3386,16.0786,20.1962,5.6697,
2024-02-27T21:00:00Z,2024-02-23T12:00:00Z,Quito_Centro,-0.2200,-78.5100,708.0408,286.1475,1789.0930,2.4191,-0.9269,60.7814,29.8229,5.8169,27.4759,15.2628,19.3804,7.2636,
2024-02-27T22:00:00Z,2024-02-23T12:00:00Z,Quito_Centro,-0.2200,-78.5100,708.4885,285.5431,2197.2656,1.7079,-0.2465,54.6953,24.0780,9.2987,34.2808,15.9493,20.0669,6.7771,
2024-02-27T23:00:00Z,2024-02-23T12:00:00Z,Quito_Centro,-0.2200,-78.5100,709.1353,284.4122,2231.5979,0.3114,0.4818,42.6466,13.6419,19.2505,44.0904,19.9480,18.7808,7.3520,
2024-02-28T00:00:00Z,2024-02-23T12:00:00Z,Quito_Centro,-0.2200,-78.5100,709.5609,283.6740,1235.9619,-0.5185,0.7791,30.6375,10.7353,29.4415,45.8512,25.1640,19.5572,8.7922,
2024-02-28T01:00:00Z,2024-02-23T12:00:00Z,Quito_Centro,-0.2200,-78.5100,709.5618,283.4236,249.3858,-0.2442,0.8926,22.2518,6.6390,35.7964,50.9791,30.1887,16.2574,9.6523,
2024-02-28T02:00:00Z,2024-02-23T12:00:00Z,Quito_Centro,-0.2200,-78.5100,710.0444,283.7355,66.1612,-0.2479,0.5623,17.8907,3.5533,39.7302,38.1281,36.2836,14.0602,10.2944,
2024-02-28T03:00:00Z,2024-02-23T12:00:00Z,Quito_Centro,-0.2200,-78.5100,710.5952,283.8023,268.4593,-0.7549,-0.0462,12.9362,6.9120,43.0576,40.0277,44.6605,20.3831,11.7473,
2024-02-28T04:00:00Z,2024-02-23T12:00:00Z,Quito_Centro,-0.2200,-78.5100,710.4468,283.6662,431.0608,-0.8292,-0.0866,7.3851,4.6812,45.7308,36.4164,53.9222,17.0076,13.4186,
2024-02-28T05:00:00Z,2024-02-23T12:00:00Z,Quito_Centro,-0.2200,-78.5100,709.8547,283.5682,808.7158,-0.4680,0.1330,3.8803,6.8727,47.3208,29.2149,62.6190,15.8613,14.6262,
2024-02-28T06:00:00Z,2024-02-23T12:00:00Z,Quito_Centro,-0.2200,-78.5100,709.2222,283.3595,660.8963,0.0316,0.7926,2.7239,7.2771,46.5074,20.0037,69.4941,13.6580,16.3436,
2024-02-28T07:00:00Z,2024-02-23T12:00:00Z,Quito_Centro,-0.2200,-78.5100,708.7051,283.2291,146.1506,-0.1315,0.7309,3.2688,8.5065,43.7552,20.7577,73.9964,23.7722,16.4895,
2024-02-28T08:00:00Z,2024-02-23T12:00:00Z,Quito_Centro,-0.2200,-78.5100,708.5608,283.2529,26.1664,-0.4396,0.1836,2.7214,7.3726,42.6954,15.5202,82.1243,13.0011,17.2455,
2024-02-28T09:00:00Z,2024-02-23T12:00:00Z,Quito_Centro,-0.2200,-78.5100,708.8069,283.2000,73.1945,-0.5718,0.0836,2.3497,6.3978,41.9928,17.2739,90.7497,15.2874,19.5740,
2024-02-28T10:00:00Z,2024-02-23T12:00:00Z,Quito_Centro,-0.2200,-78.5100,709.1301,283.0705,179.0524,-0.6641,0.2745,2.7096,2.5558,40.1353,22.0608,96.3707,14.8391,23.2433,
2024-02-28T11:00:00Z,2024-02-23T12:00:00Z,Quito_Centro,-0.2200,-78.5100,709.5497,283.0406,234.3655,-0.7543,0.2760,7.0130,3.9086,34.8754,32.3730,98.7400,15.7037,26.5921,
2024-02-23T12:00:00Z,2024-02-23T12:00:00Z,Quito_Cotocollao,-0.1078,-78.4972,744.5554,286.1244,415.8020,1.0958,-0.8417,31.9169,20.5148,10.9150,21.1583,20.7142,17.7629,2.5752,
2024-02-23T13:00:00Z,2024-02-23T12:00:00Z,Quito_Cotocollao,-0.1078,-78.4972,744.6526,286.8034,604.6295,1.6449,-0.9978,40.6139,27.7923,5.3930,15.8363,9.8903,19.6528,2.3675,
2024-02-23T14:00:00Z,2024-02-23T12:00:00Z,Quito_Cotocollao,-0.1078,-78.4972,744.6077,287.6539,925.0641,2.0518,-1.0718,43.7533,39.3561,3.3344,12.9193,7.7115,17.7324,2.9065,
2024-02-23T15:00:00Z,2024-02-23T12:00:00Z,Quito_Cotocollao,-0.1078,-78.4972,744.6957,288.3202,1125.3357,2.4427,-1.1243,44.8724,46.7170,2.6331,11.4106,7.4049,21.2136,4.9266,
2024-02-23T16:00:00Z,2024-02-23T12:00:00Z,Quito_Cotocollao,-0.1078,-78.4972,744.4029,288.4792,1266.4795,2.8546,-1.3365,43.6161,46.3713,2.4878,6.8412,7.5818,22.3605,8.4911,
2024-02-23T17:00:00Z,2024-02-23T12:00:00Z,Quito_Cotocollao,-0.1078,-78.4972,744.0325,288.6376,1529.6936,3.1098,-1.4551,42.9208,48.7887,2.2284,5.5067,7.2762,18.2937,9.6095,
2024-02-23T18:00:00Z,2024-02-23T12:00:00Z,Quito_Cotocollao,-0.1078,-78.4972,743.5570,288.8865,1956.9397,3.5084,-1.6787,43.4186,52.1447,1.9194,5.4514,6.3364,14.3437,10.6640,
2024-02-23T19:00:00Z,2024-02-23T12:00:00Z,Quito_Cotocollao,-0.1078,-78.4972,743.0343,289.0886,2311.7065,4.0572,-2.0066,43.6601,52.4313,1.5804,5.1075,5.2637,13.6587,14.4905,
2024-02-23T20:00:00Z,2024-02-23T12:00:00Z,Quito_Cotocollao,-0.1078,-78.4972,742.7704,288.8464,2166.7480,4.4438,-2.2350,42.4282,36.1556,1.5553,7.9184,4.4976,13.4897,13.0001,
2024-02-23T21:00:00Z,2024-02-23T12:00:00Z,Quito_Cotocollao,-0.1078,-78.4972,742.7192,288.0189,1588.8214,4.1729,-1.3613,39.1676,25.3552,2.6055,8.3191,4.3346,12.0356,7.1903,
2024-02-23T22:00:00Z,2024-02-23T12:00:00Z,Quito_Cotocollao,-0.1078,-78.4972,743.2570,287.2614,2536.7737,3.0076,0.0690,34.1696,19.3882,6.0097,16.4454,5.6410,11.3365,4.1189,
2024-02-23T23:00:00Z,2024-02-23T12:00:00Z,Quito_Cotocollao,-0.1078,-78.4972,744.1105,286.9456,1890.1825,1.5827,-0.1104,30.5430,16.8751,8.8521,21.1658,7.0879,11.4162,1.9421,
2024-02-24T00:00:00Z,2024-02-23T12:00:00Z,Quito_Cotocollao,-0.1078,-78.4972,743.6501,287.0050,363.8268,1.8119,0.4760,29.5165,13.3968,9.1473,24.1013,9.3704,13.0192,2.1224,
2024-02-24T01:00:00Z,2024-02-23T12:00:00Z,Quito_Cotocollao,-0.1078,-78.4972,744.2551,286.9844,370.9793,1.2684,-0.1136,28.4097,11.3279,9.3746,25.7334,11.3259,14.2903,2.0416,
2024-02-24T02:00:00Z,2024-02-23T12:00:00Z,Quito_Cotocollao,-0.1078,-78.4972,745.2126,286.9416,386.2381,1.0919,-0.1320,24.6105,9.8611,11.9807,24.0615,13.9388,16.2576,2.1177,
2024-02-24T03:00:00Z,2024-02-23T12:00:00Z,Quito_Cotocollao,-0.1078,-78.4972,745.7459,286.7350,354.7668,0.9208,0.1273,20.9097,9.1064,14.4269,23.1865,15.4417,14.8999,2.6189,
2024-02-24T04:00:00Z,2024-02-23T12:00:00Z,Quito_Cotocollao,-0.1078,-78.4972,745.8137,286.3900,222.4445,0.6309,0.0330,16.6707,9.5040,17.5485,23.6601,19.9639,14.2026,3.2962,
2024-02-24T05:00:00Z,2024-02-23T12:00:00Z,Quito_Cotocollao,-0.1078,-78.4972,745.4709,285.9856,36.6569,0.1635,-0.0576,16.0077,7.5315,17.3974,17.6990,26.6719,16.4514,4.0570,
2024-02-24T06:00:00Z,2024-02-23T12:00:00Z,Quito_Cotocollao,-0.1078,-78.4972,744.8285,285.6119,17.5238,-0.0049,-0.1813,15.7300,7.8619,17.0062,15.5549,33.1377,17.9043,4.9595,
2024-02-24T07:00:00Z,2024-02-23T12:00:00Z,Quito_Cotocollao,-0.1078,-78.4972,744.5428,285.2998,22.5604,0.2448,-0.1629,15.5439,7.6702,16.9553,14.6847,40.3924,19.6895,5.2033,
2024-02-24T08:00:00Z,2024-02-23T12:00:00Z,Quito_Cotocollao,-0.1078,-78.4972,744.4476,285.0410,49.4719,0.6634,-0.1160,15.1611,12.9164,16.4218,13.1272,45.3432,19.8560,4.3596,
2024-02-24T09:00:00Z,2024-02-23T12:00:00Z,Quito_Cotocollao,-0.1078,-78.4972,744.3656,284.8878,73.7906,0.6151,-0.1400,14.8164,11.3250,14.9984,15.0297,32.5949,13.4174,3.6750,
2024-02-24T10:00:00Z,2024-02-23T12:00:00Z,Quito_Cotocollao,-0.1078,-78.4972,744.4081,284.8156,76.5324,0.3331,-0.2101,14.5576,7.5486,14.2666,16.4091,30.5961,16.0720,3.2583,
2024-02-24T11:00:00Z,2024-02-23T12:00:00Z,Quito_Cotocollao,-0.1078,-78.4972,744.7369,284.8878,74.0290,-0.3474,-0.0921,15.1971,7.7414,13.5537,22.6382,30.6476,21.4419,3.3439,
2024-02-24T12:00:00Z,2024-02-23T12:00:00Z,Quito_Cotocollao,-0.1078,-78.4972,745.2427,285.6405,104.3081,-0.8457,0.0133,19.1345,11.7587,12.0988,23.9636,26.1114,25.0665,3.6945,
2024-02-24T13:00:00Z,2024-02-23T12:00:00Z,Quito_Cotocollao,-0.1078,-78.4972,745.6513,286.9671,191.2117,-0.3119,-0.4757,24.5792,13.6669,9.5915,32.9595,18.4246,28.0517,3.4125,
2024-02-24T14:00:00Z,2024-02-23T12:00:00Z,Quito_Cotocollao,-0.1078,-78.4972,745.9064,287.8949,232.6965,0.7519,-1.1361,30.2981,19.9930,6.9148,28.8404,14.1300,30.0605,3.3305,
2024-02-24T15:00:00Z,2024-02-23T12:00:00Z,Quito_Cotocollao,-0.1078,-78.4972,746.0323,288.1070,349.5216,1.5799,-1.6489,34.4140,37.5877,5.0450,18.7682,11.4870,29.2521,3.5219,
2024-02-24T16:00:00Z,2024-02-23T12:00:00Z,Quito_Cotocollao,-0.1078,-78.4972,745.9861,288.0410,577.9266,1.6453,-1.8834,36.8566,51.8593,3.4091,14.0253,9.3442,26.8111,4.6661,
2024-02-24T17:00:00Z,2024-02-23T12:00:00Z,Quito_Cotocollao,-0.1078,-78.4972,745.6178,288.0552,740.0513,1.6337,-1.9938,36.7061,50.1575,2.7196,10.3931,7.7741,22.5359,6.5639,
2024-02-24T18:00:00Z,2024-02-23T12:00:00Z,Quito_Cotocollao,-0.1078,-78.4972,744.9863,288.2100,1068.1152,1.6588,-2.0356,35.8736,46.9285,2.2632,9.2946,6.4141,15.7724,7.4869,
2024-02-24T19:00:00Z,2024-02-23T12:00:00Z,Quito_Cotocollao,-0.1078,-78.4972,744.2358,288.3109,1546.8597,1.8418,-1.8905,35.0876,44.1626,2.1302,8.1975,5.6352,15.6454,9.4874,
2024-02-24T20:00:00Z,2024-02-23T12:00:00Z,Quito_Cotocollao,-0.1078,-78.4972,743.5209,288.3636,2391.8152,2.1391,-1.5903,34.1377,44.5488,2.1900,8.2363,5.2184,12.9083,9.4427,
2024-02-24T21:00:00Z,2024-02-23T12:00:00Z,Quito_Cotocollao,-0.1078,-78.4972,742.9810,288.4671,3639.2212,2.3212,-1.3313,32.3697,36.4221,2.4546,8.4943,5.0461,13.1465,9.5731,
2024-02-24T22:00:00Z,2024-02-23T12:00:00Z,Quito_Cotocollao,-0.1078,-78.4972,742.8877,288.0945,4211.4258,2.0057,-1.1366,27.2951,28.3323,4.8164,10.8631,5.8397,13.9400,9.1208,
2024-02-24T23:00:00Z,2024-02-23T12:00:00Z,Quito_Cotocollao,-0.1078,-78.4972,743.2987,287.4249,3765.1062,1.2732,-0.7816,18.8358,15.0653,11.8258,19.4194,9.1321,10.4161,4.4076,
2024-02-25T00:00:00Z,2024-02-23T12:00:00Z,Quito_Cotocollao,-0.1078,-78.4972,744.0726,287.2061,2700.8057,1.2624,-0.7045,15.8880,7.5217,15.7475,23.0047,12.5556,12.0004,2.8642,
2024-02-25T01:00:00Z,2024-02-23T12:00:00Z,Quito_Cotocollao,-0.1078,-78.4972,744.6923,286.9243,1182.5562,0.9505,-0.5467,15.1101,6.3195,17.4477,22.3284,16.6562,14.5221,2.9889,
2024-02-25T02:00:00Z,2024-02-23T12:00:00Z,Quito_Cotocollao,-0.1078,-78.4972,745.3796,286.5724,377.6550,0.6589,-0.3661,14.7493,5.9398,18.7417,20.0855,22.9385,12.8496,4.0083,
2024-02-25T03:00:00Z,2024-02-23T12:00:00Z,Quito_Cotocollao,-0.1078,-78.4972,745.9597,286.3136,315.1894,0.5804,-0.3851,14.1613,5.3370,19.7800,18.4166,28.6159,12.7300,5.1675,
2024-02-25T04:00:00Z,2024-02-23T12:00:00Z,Quito_Cotocollao,-0.1078,-78.4972,746.1234,286.1087,293.7317,0.4594,-0.4773,13.2106,7.6058,20.1765,16.1038,33.4294,19.1161,5.1969,
2024-02-25T05:00:00Z,2024-02-23T12:00:00Z,Quito_Cotocollao,-0.1078,-78.4972,745.8580,285.8420,149.7269,0.3410,-0.4378,12.4948,10.5333,19.9780,17.7040,37.3760,18.6653,5.1961,
2024-02-25T06:00:00Z,2024-02-23T12:00:00Z,Quito_Cotocollao,-0.1078,-78.4972,745.4063,285.6013,104.6658,0.2776,-0.4548,11.8890,10.0151,19.4154,13.2652,41.5653,20.4219,5.6100,
2024-02-25T07:00:00Z,2024-02-23T12:00:00Z,Quito_Cotocollao,-0.1078,-78.4972,745.0416,285.4597,89.1685,0.1065,-0.4302,11.3863,10.6207,18.8272,13.5853,46.8237,23.9803,5.5366,
2024-02-25T08:00:00Z,2024-02-23T12:00:00Z,Quito_Cotocollao,-0.1078,-78.4972,744.8820,285.3219,77.2476,-0.0562,-0.4857,11.1011,10.3354,18.5170,13.0290,52.6367,16.7629,5.9587,
2024-02-25T09:00:00Z,2024-02-23T12:00:00Z,Quito_Cotocollao,-0.1078,-78.4972,744.9224,285.1891,75.6979,-0.2325,-0.4378,10.9171,7.6384,18.6738,15.3758,58.3915,18.1577,7.2594,
2024-02-25T10:00:00Z,2024-02-23T12:00:00Z,Quito_Cotocollao,-0.1078,-78.4972,745.1074,285.0353,59.9623,-0.3921,-0.3205,10.8157,3.6352,19.1305,19.2230,63.6994,19.0914,8.2553,
2024-02-25T11:00:00Z,2024-02-23T12:00:00Z,Quito_Cotocollao,-0.1078,-78.4972,745.4090,284.9234,34.3919,-0.6194,-0.1541,11.3627,2.1854,19.2300,25.9416,67.7585,29.7919,9.2298,
2024-02-25T12:00:00Z,2024-02-23T12:00:00Z,Quito_Cotocollao,-0.1078,-78.4972,745.8292,285.4609,10.4010,-0.8734,-0.1963,17.4715,4.5316,16.5122,21.1846,57.7537,43.8804,8.8216,
2024-02-25T13:00:00Z,2024-02-23T12:00:00Z,Quito_Cotocollao,-0.1078,-78.4972,746.2047,286.7355,7.9572,-0.5659,-0.5039,29.4708,5.9544,11.1673,19.2604,32.7521,29.4968,7.0513,
2024-02-25T14:00:00Z,2024-02-23T12:00:00Z,Quito_Cotocollao,-0.1078,-78.4972,746.2755,288.0462,10.3116,-0.1903,-0.9193,39.5256,19.3707,6.7686,16.6257,21.7833,30.8218,6.2862,
2024-02-25T15:00:00Z,2024-02-23T12:00:00Z,Quito_Cotocollao,-0.1078,-78.4972,746.1494,289.0798,12.4574,0.2901,-1.3674,47.1837,33.3213,4.2236,17.1621,17.2214,34.9803,6.1395,
2024-02-25T16:00:00Z,2024-02-23T12:00:00Z,Quito_Cotocollao,-0.1078,-78.4972,745.7844,289.6626,21.4577,0.8356,-1.7039,53.1220,47.3638,2.5962,12.8649,14.8304,26.7899,6.2833,
2024-02-25T17:00:00Z,2024-02-23T12:00:00Z,Quito_Cotocollao,-0.1078,-78.4972,745.1064,289.6470,50.3659,1.4632,-1.9716,55.5835,55.5988,1.8096,4.4230,13.3103,23.2121,6.6601,
2024-02-25T18:00:00Z,2024-02-23T12:00:00Z,Quito_Cotocollao,-0.1078,-78.4972,744.5731,289.1230,125.1698,1.8496,-2.0795,53.8270,56.3661,1.4591,4.9610,11.7180,21.3933,7.9691,
2024-02-25T19:00:00Z,2024-02-23T12:00:00Z,Quito_Cotocollao,-0.1078,-78.4972,744.0925,288.5009,234.1270,2.0047,-1.9541,48.9681,52.5260,1.6794,6.4779,9.9816,18.3015,9.7609,
2024-02-25T20:00:00Z,2024-02-23T12:00:00Z,Quito_Cotocollao,-0.1078,-78.4972,743.7257,288.0446,334.7397,2.0203,-1.7750,42.4708,41.0294,2.2996,9.1169,8.1991,16.4548,12.0180,
2024-02-25T21:00:00Z,2024-02-23T12:00:00Z,Quito_Cotocollao,-0.1078,-78.4972,743.6443,287.6303,421.5240,1.9376,-1.5732,37.0105,35.1918,3.1691,9.1587,6.9020,14.5704,16.8919,
2024-02-25T22:00:00Z,2024-02-23T12:00:00Z,Quito_Cotocollao,-0.1078,-78.4972,743.8690,287.2135,525.4745,1.6130,-1.2511,31.6795,30.9201,4.9053,13.0736,6.7003,14.7263,20.9664,
2024-02-25T23:00:00Z,2024-02-23T12:00:00Z,Quito_Cotocollao,-0.1078,-78.4972,744.3227,287.0439,604.6295,1.1397,-0.8353,26.1408,13.9312,8.0687,18.0501,8.1254,13.1685,10.0241,
2024-02-26T00:00:00Z,2024-02-23T12:00:00Z,Quito_Cotocollao,-0.1078,-78.4972,744.8787,287.0111,665.6647,0.8792,-0.5340,21.5848,9.9390,11.3665,23.2470,11.2702,14.0047,6.1177,
2024-02-26T01:00:00Z,2024-02-23T12:00:00Z,Quito_Cotocollao,-0.1078,-78.4972,745.2194,286.8656,784.8740,0.6069,-0.2793,17.3939,7.9139,15.5813,24.3308,15.9609,16.6970,4.7799,
2024-02-26T02:00:00Z,2024-02-23T12:00:00Z,Quito_Cotocollao,-0.1078,-78.4972,745.5977,286.6512,1131.0577,0.2475,-0.1241,15.7110,5.6473,19.0352,22.1389,22.2311,16.4136,4.5924,
2024-02-26T03:00:00Z,2024-02-23T12:00:00Z,Quito_Cotocollao,-0.1078,-78.4972,745.8544,286.4597,1457.2144,0.2187,-0.0408,15.5957,5.5218,22.4293,22.4890,29.8282,15.9757,5.5451,
2024-02-26T04:00:00Z,2024-02-23T12:00:00Z,Quito_Cotocollao,-0.1078,-78.4972,745.7435,286.2455,1522.0642,0.2609,-0.1440,15.5832,7.7242,24.7919,20.5593,37.0156,18.8560,5.8762,
2024-02-26T05:00:00Z,2024-02-23T12:00:00Z,Quito_Cotocollao,-0.1078,-78.4972,745.2919,286.0237,1413.3453,0.3399,-0.1485,15.4764,13.5609,25.2157,19.6936,42.4544,18.4370,5.8357,
2024-02-26T06:00:00Z,2024-02-23T12:00:00Z,Quito_Cotocollao,-0.1078,-78.4972,744.8242,285.9156,1014.7095,0.3082,-0.1684,15.2318,14.2340,24.2447,18.6867,46.3900,27.2628,5.9756,
2024-02-26T07:00:00Z,2024-02-23T12:00:00Z,Quito_Cotocollao,-0.1078,-78.4972,744.4789,285.7791,615.1199,0.2923,-0.1533,15.1007,13.4511,22.8608,17.5515,49.5784,21.1056,5.9254,
2024-02-26T08:00:00Z,2024-02-23T12:00:00Z,Quito_Cotocollao,-0.1078,-78.4972,744.2134,285.6344,444.4122,0.3283,-0.1311,14.9059,13.2562,21.4588,16.9433,52.6384,17.3244,6.0579,
2024-02-26T09:00:00Z,2024-02-23T12:00:00Z,Quito_Cotocollao,-0.1078,-78.4972,744.2432,285.5128,319.0041,0.4323,-0.2015,14.6721,12.8637,19.8109,15.9938,55.2646,20.1332,6.4223,
2024-02-26T10:00:00Z,2024-02-23T12:00:00Z,Quito_Cotocollao,-0.1078,-78.4972,744.4683,285.4210,235.5576,0.4409,-0.3569,14.5061,7.9294,18.2693,17.0637,58.2013,17.4410,6.0419,
2024-02-26T11:00:00Z,2024-02-23T12:00:00Z,Quito_Cotocollao,-0.1078,-78.4972,744.9521,285.4529,255.1079,0.6068,-0.3743,15.2810,8.7007,16.7874,20.6464,58.5184,22.7205,5.2637,
2024-02-26T12:00:00Z,2024-02-23T12:00:00Z,Quito_Cotocollao,-0.1078,-78.4972,745.6998,286.1135,248.4322,1.4466,-0.5132,25.8365,13.6117,8.2568,16.7924,20.2405,23.8381,2.4129,
2024-02-26T13:00:00Z,2024-02-23T12:00:00Z,Quito_Cotocollao,-0.1078,-78.4972,746.3157,287.0774,295.1622,1.8329,-0.6873,33.3712,22.0116,3.4848,16.9942,8.3962,22.3618,1.6576,
2024-02-26T14:00:00Z,2024-02-23T12:00:00Z,Quito_Cotocollao,-0.1078,-78.4972,746.5135,288.2725,352.8595,2.2513,-1.0181,37.2446,33.5338,2.1500,14.8944,6.0542,22.8507,1.5207,
2024-02-26T15:00:00Z,2024-02-23T12:00:00Z,Quito_Cotocollao,-0.1078,-78.4972,746.3628,289.0719,452.5185,2.6857,-1.3258,40.3443,44.1163,1.6915,13.0874,5.3764,22.4312,1.8528,
2024-02-26T16:00:00Z,2024-02-23T12:00:00Z,Quito_Cotocollao,-0.1078,-78.4972,745.7715,289.1858,674.2477,3.0326,-1.4833,42.3330,49.2537,1.3885,9.1064,5.0982,17.5928,2.4180,
2024-02-26T17:00:00Z,2024-02-23T12:00:00Z,Quito_Cotocollao,-0.1078,-78.4972,744.9951,288.6175,1056.6711,3.1342,-1.4256,41.0277,49.0524,1.5508,5.5702,4.8697,16.1382,3.7192,
2024-02-26T18:00:00Z,2024-02-23T12:00:00Z,Quito_Cotocollao,-0.1078,-78.4972,744.1936,288.3933,1605.9875,3.1754,-1.4619,38.5874,44.6083,1.6750,5.6931,4.5727,14.2228,4.8634,
2024-02-26T19:00:00Z,2024-02-23T12:00:00Z,Quito_Cotocollao,-0.1078,-78.4972,743.5239,288.4728,2330.7800,3.1626,-1.7324,37.4162,44.0717,1.5667,7.8340,4.1328,11.8841,3.6872,
2024-02-26T20:00:00Z,2024-02-23T12:00:00Z,Quito_Cotocollao,-0.1078,-78.4972,742.9580,288.6707,3253.9368,3.0209,-2.0588,37.3620,44.0080,1.4401,7.6983,3.7535,12.1485,4.9831,
2024-02-26T21:00:00Z,2024-02-23T12:00:00Z,Quito_Cotocollao,-0.1078,-78.4972,742.7490,288.4290,4364.0137,2.5112,-2.0058,35.6954,37.6643,2.6304,6.1582,4.1381,11.8280,4.4757,
2024-02-26T22:00:00Z,2024-02-23T12:00:00Z,Quito_Cotocollao,-0.1078,-78.4972,742.9504,287.9321,5485.5347,1.5792,-1.0555,30.0874,27.7123,7.5304,12.8932,6.1555,10.0360,2.0605,
2024-02-26T23:00:00Z,2024-02-23T12:00:00Z,Quito_Cotocollao,-0.1078,-78.4972,743.5037,287.4222,5393.9819,0.7723,-0.0465,21.3403,16.0675,15.9735,18.5577,10.0015,10.8724,0.8413,
2024-02-27T00:00:00Z,2024-02-23T12:00:00Z,Quito_Cotocollao,-0.1078,-78.4972,744.0993,286.9677,4455.5664,0.2159,0.4181,23.1774,10.2845,14.3833,17.7733,9.3094,11.7302,0.9152,
2024-02-27T01:00:00Z,2024-02-23T12:00:00Z,Quito_Cotocollao,-0.1078,-78.4972,744.9069,286.0941,3017.4255,-0.8855,1.2802,21.8298,9.6158,15.8893,17.4945,10.0648,10.5442,1.3837,
2024-02-27T02:00:00Z,2024-02-23T12:00:00Z,Quito_Cotocollao,-0.1078,-78.4972,745.7896,284.9565,1941.6809,-1.5312,1.3430,18.0072,8.5401,19.8697,17.8045,12.8144,10.1759,1.7266,
2024-02-27T03:00:00Z,2024-02-23T12:00:00Z,Quito_Cotocollao,-0.1078,-78.4972,746.1900,284.0273,1461.0291,-1.6267,0.8848,15.9791,7.1187,21.7010,20.6591,15.1347,11.5336,2.2689,
2024-02-27T04:00:00Z,2024-02-23T12:00:00Z,Quito_Cotocollao,-0.1078,-78.4972,746.0882,283.4756,1028.0609,-1.6340,0.5884,14.8141,8.8436,22.7573,21.5439,17.2594,16.3790,2.8389,
2024-02-27T05:00:00Z,2024-02-23T12:00:00Z,Quito_Cotocollao,-0.1078,-78.4972,745.4955,283.1773,661.8500,-1.6393,0.4681,12.6726,12.8678,24.5859,19.2304,19.9169,18.3452,3.3902,
2024-02-27T06:00:00Z,2024-02-23T12:00:00Z,Quito_Cotocollao,-0.1078,-78.4972,744.7816,283.1094,334.7397,-1.4370,0.3873,11.5806,12.9176,25.4578,18.7299,21.7901,14.3350,3.8838,
2024-02-27T07:00:00Z,2024-02-23T12:00:00Z,Quito_Cotocollao,-0.1078,-78.4972,744.2358,283.1597,128.7460,-1.1022,0.3465,10.8414,12.1772,26.1118,16.3511,23.4855,15.1881,4.3511,
2024-02-27T08:00:00Z,2024-02-23T12:00:00Z,Quito_Cotocollao,-0.1078,-78.4972,743.9651,283.2928,57.2801,-1.0708,0.3890,10.2589,10.5444,26.4283,16.0795,25.4868,15.6428,4.8444,
2024-02-27T09:00:00Z,2024-02-23T12:00:00Z,Quito_Cotocollao,-0.1078,-78.4972,744.0664,283.5564,24.4677,-0.9095,0.4180,9.7108,5.3212,26.4918,15.9686,28.0497,16.3285,5.3872,
2024-02-27T10:00:00Z,2024-02-23T12:00:00Z,Quito_Cotocollao,-0.1078,-78.4972,744.5121,283.8685,6.6459,-0.8043,0.4650,8.8907,3.6056,26.8164,17.4259,31.1746,17.1669,5.9738,
2024-02-27T11:00:00Z,2024-02-23T12:00:00Z,Quito_Cotocollao,-0.1078,-78.4972,745.0031,284.2299,4.5374,-0.7067,0.4466,9.9309,1.9862,25.5338,23.7433,34.7057,32.3957,6.5847,
2024-02-27T12:00:00Z,2024-02-23T12:00:00Z,Quito_Cotocollao,-0.1078,-78.4972,745.6278,285.5936,5.7742,-0.3851,0.1093,24.6527,7.6179,15.2389,28.2247,23.0123,33.5007,4.8027,
2024-02-27T13:00:00Z,2024-02-23T12:00:00Z,Quito_Cotocollao,-0.1078,-78.4972,746.0219,287.4697,7.2271,0.5254,-0.6696,37.9781,17.0256,6.6962,19.1558,12.5885,24.4197,3.3521,
2024-02-27T14:00:00Z,2024-02-23T12:00:00Z,Quito_Cotocollao,-0.1078,-78.4972,745.9988,289.0305,8.4490,1.3293,-1.0874,45.1007,25.7751,4.0624,18.9842,11.0194,24.1500,3.1879,
2024-02-27T15:00:00Z,2024-02-23T12:00:00Z,Quito_Cotocollao,-0.1078,-78.4972,745.5940,290.2300,7.8529,2.1415,-1.5994,52.4003,40.9223,2.9421,20.6400,11.0966,26.6639,3.1052,
2024-02-27T16:00:00Z,2024-02-23T12:00:00Z,Quito_Cotocollao,-0.1078,-78.4972,744.9147,290.6545,23.6630,2.8354,-2.0008,59.5965,54.7823,2.1124,13.0009,11.6125,24.7382,3.0511,
2024-02-27T17:00:00Z,2024-02-23T12:00:00Z,Quito_Cotocollao,-0.1078,-78.4972,744.2325,290.0236,87.7380,3.0541,-2.0426,63.7243,60.9091,1.8051,7.8312,12.4037,20.2757,3.1643,
2024-02-27T18:00:00Z,2024-02-23T12:00:00Z,Quito_Cotocollao,-0.1078,-78.4972,743.5988,288.9893,206.9473,2.8545,-1.7938,63.2927,47.1221,1.9809,8.1837,12.6483,15.8768,3.9881,
2024-02-27T19:00:00Z,2024-02-23T12:00:00Z,Quito_Cotocollao,-0.1078,-78.4972,742.9365,288.4667,406.7421,2.7004,-1.5266,59.7160,46.9331,2.3949,8.3093,11.8320,15.0606,5.1605,
2024-02-27T20:00:00Z,2024-02-23T12:00:00Z,Quito_Cotocollao,-0.1078,-78.4972,742.5123,288.2157,685.6918,2.5962,-1.2373,55.6650,43.5025,2.8104,9.9198,10.5786,14.6406,6.4337,
2024-02-27T21:00:00Z,2024-02-23T12:00:00Z,Quito_Cotocollao,-0.1078,-78.4972,742.4808,287.9288,1075.7446,2.3957,-0.7237,52.4253,42.0515,3.5864,10.7026,10.1847,14.3811,10.4941,
2024-02-27T22:00:00Z,2024-02-23T12:00:00Z,Quito_Cotocollao,-0.1078,-78.4972,742.7685,287.6368,1476.2878,1.9423,0.0269,49.5485,38.0844,5.6548,11.2212,10.9493,12.0877,11.5137,
2024-02-27T23:00:00Z,2024-02-23T12:00:00Z,Quito_Cotocollao,-0.1078,-78.4972,743.2953,287.1935,1628.8757,1.0432,0.8685,38.9628,20.8049,15.5233,21.7075,15.6824,11.2091,9.5784,
2024-02-28T00:00:00Z,2024-02-23T12:00:00Z,Quito_Cotocollao,-0.1078,-78.4972,743.6809,286.9865,967.9794,0.6141,1.2283,26.2977,11.6482,28.5400,20.1076,23.0703,15.4613,9.6507,
2024-02-28T01:00:00Z,2024-02-23T12:00:00Z,Quito_Cotocollao,-0.1078,-78.4972,743.9218,286.7986,638.0081,0.5578,0.7598,16.3432,6.0333,38.3829,15.6422,31.6574,13.9470,9.5941,
2024-02-28T02:00:00Z,2024-02-23T12:00:00Z,Quito_Cotocollao,-0.1078,-78.4972,744.5643,286.8292,1295.0897,0.3742,0.2810,11.9723,5.0408,43.2187,16.4581,39.5336,24.9333,9.5086,
2024-02-28T03:00:00Z,2024-02-23T12:00:00Z,Quito_Cotocollao,-0.1078,-78.4972,745.0952,286.7398,1428.6041,-0.3174,0.0573,10.4783,2.9300,43.5140,15.7461,45.9730,18.1589,10.6559,
2024-02-28T04:00:00Z,2024-02-23T12:00:00Z,Quito_Cotocollao,-0.1078,-78.4972,744.9669,286.5724,974.6552,-0.5440,0.0970,9.9257,5.8543,41.6065,18.0716,51.7972,18.5495,11.9780,
2024-02-28T05:00:00Z,2024-02-23T12:00:00Z,Quito_Cotocollao,-0.1078,-78.4972,744.2947,286.4119,775.3372,-0.1154,0.2854,9.2786,9.1174,40.2114,18.4209,58.3065,14.5637,12.9382,
2024-02-28T06:00:00Z,2024-02-23T12:00:00Z,Quito_Cotocollao,-0.1078,-78.4972,743.4822,286.1563,394.8212,0.3642,0.6481,6.0798,8.5407,41.3329,21.6135,67.7441,20.3201,14.7866,
2024-02-28T07:00:00Z,2024-02-23T12:00:00Z,Quito_Cotocollao,-0.1078,-78.4972,743.2252,286.0884,252.7237,0.1832,0.2250,3.3337,6.5674,42.4579,24.5666,77.9964,17.9855,15.2963,
2024-02-28T08:00:00Z,2024-02-23T12:00:00Z,Quito_Cotocollao,-0.1078,-78.4972,743.1008,286.0654,296.5927,0.0096,-0.2187,4.8228,7.4377,39.3590,20.4898,84.2493,24.2384,15.6739,
2024-02-28T09:00:00Z,2024-02-23T12:00:00Z,Quito_Cotocollao,-0.1078,-78.4972,743.3669,285.9343,382.4234,0.0557,-0.1986,6.7815,7.6095,34.1585,17.6100,87.4997,31.2508,17.3912,
2024-02-28T10:00:00Z,2024-02-23T12:00:00Z,Quito_Cotocollao,-0.1078,-78.4972,743.6901,285.7736,535.0113,-0.0318,-0.1279,8.0016,3.5860,29.5833,13.8547,90.1207,25.2416,20.7403,
2024-02-28T11:00:00Z,2024-02-23T12:00:00Z,Quito_Cotocollao,-0.1078,-78.4972,744.1497,285.6813,575.0656,-0.1615,-0.1585,9.8363,4.1883,25.7105,15.9538,91.4900,30.9147,24.3220,
2024-02-23T12:00:00Z,2024-02-23T12:00:00Z,Quito_Guamani,-0.3308,-78.5514,709.9154,284.3588,334.2628,1.5294,-0.7421,18.3725,11.7012,22.3505,23.5570,48.3705,28.9929,3.3719,
2024-02-23T13:00:00Z,2024-02-23T12:00:00Z,Quito_Guamani,-0.3308,-78.5514,710.0526,284.8347,400.5432,2.2484,-0.7927,31.3715,25.6140,9.7438,21.4436,19.5934,18.6980,2.2911,
2024-02-23T14:00:00Z,2024-02-23T12:00:00Z,Quito_Guamani,-0.3308,-78.5514,710.1677,285.7476,591.2781,2.4580,-0.7104,36.5377,33.4883,5.5425,19.1487,12.6803,15.7455,2.3753,
2024-02-23T15:00:00Z,2024-02-23T12:00:00Z,Quito_Guamani,-0.3308,-78.5514,710.1758,286.6327,596.0464,2.6615,-0.8397,41.6706,41.7654,3.9296,17.7540,9.7955,13.7038,2.6529,
2024-02-23T16:00:00Z,2024-02-23T12:00:00Z,Quito_Guamani,-0.3308,-78.5514,709.8429,286.6355,745.7733,2.9562,-1.3268,43.0237,46.1310,3.9277,17.9013,9.9646,14.5916,5.0860,
2024-02-23T17:00:00Z,2024-02-23T12:00:00Z,Quito_Guamani,-0.3308,-78.5514,709.3926,286.7314,1115.7990,3.1411,-1.6035,43.4809,47.1255,3.6849,18.5152,9.5731,15.0570,7.6596,
2024-02-23T18:00:00Z,2024-02-23T12:00:00Z,Quito_Guamani,-0.3308,-78.5514,708.8370,287.0427,1749.0387,3.4030,-1.7236,44.4785,54.3370,3.3102,17.0385,8.2427,16.7275,11.4643,
2024-02-23T19:00:00Z,2024-02-23T12:00:00Z,Quito_Guamani,-0.3308,-78.5514,708.2743,287.4636,2700.8057,3.8423,-2.0926,45.9512,52.5871,2.7077,17.0194,6.6856,15.1704,8.5970,
2024-02-23T20:00:00Z,2024-02-23T12:00:00Z,Quito_Guamani,-0.3308,-78.5514,707.8104,287.4401,4081.7261,4.2876,-2.9030,45.1801,40.6808,2.6367,19.3943,5.5211,14.0059,5.8405,
2024-02-23T21:00:00Z,2024-02-23T12:00:00Z,Quito_Guamani,-0.3308,-78.5514,707.8792,286.4564,3898.6206,3.2354,-2.3457,37.8246,26.6296,5.8790,22.5794,6.1784,15.3396,2.5518,
2024-02-23T22:00:00Z,2024-02-23T12:00:00Z,Quito_Guamani,-0.3308,-78.5514,708.5370,285.6989,1987.4573,2.2108,-0.6425,29.2931,16.1283,10.9215,26.9830,7.6645,17.5205,2.4163,
2024-02-23T23:00:00Z,2024-02-23T12:00:00Z,Quito_Guamani,-0.3308,-78.5514,709.3104,285.2268,1279.8309,1.7331,-0.7085,24.6938,11.2713,13.1739,28.0282,8.5566,18.4126,2.2840,
2024-02-24T00:00:00Z,2024-02-23T12:00:00Z,Quito_Guamani,-0.3308,-78.5514,709.3301,284.6925,348.5680,1.8744,0.2166,23.3175,9.8694,13.1589,28.2111,10.2610,21.1575,2.7118,
2024-02-24T01:00:00Z,2024-02-23T12:00:00Z,Quito_Guamani,-0.3308,-78.5514,709.5350,284.2344,116.1098,1.2547,0.1667,19.3564,9.9676,15.5353,30.6161,13.9353,21.9099,2.9948,
2024-02-24T02:00:00Z,2024-02-23T12:00:00Z,Quito_Guamani,-0.3308,-78.5514,710.6526,283.9885,264.1678,0.6876,-0.5451,16.7128,12.4288,17.4267,28.2258,16.0481,21.1549,2.9617,
2024-02-24T03:00:00Z,2024-02-23T12:00:00Z,Quito_Guamani,-0.3308,-78.5514,711.1859,283.8132,216.7225,0.3075,-0.1107,14.1885,9.6829,19.8513,34.1014,17.5354,22.1497,3.3356,
2024-02-24T04:00:00Z,2024-02-23T12:00:00Z,Quito_Guamani,-0.3308,-78.5514,711.2537,283.6087,76.2939,0.1114,-0.0251,9.4175,6.9134,24.1882,28.8242,23.7139,22.2567,4.1838,
2024-02-24T05:00:00Z,2024-02-23T12:00:00Z,Quito_Guamani,-0.3308,-78.5514,710.7509,283.3606,5.7817,-0.3316,-0.0195,6.1530,9.6722,26.6963,24.0689,33.2032,21.9507,5.2139,
2024-02-24T06:00:00Z,2024-02-23T12:00:00Z,Quito_Guamani,-0.3308,-78.5514,710.1085,283.0963,1.4771,-0.4908,0.0048,3.7298,8.4682,28.3127,23.8806,42.2002,18.2443,6.5020,
2024-02-24T07:00:00Z,2024-02-23T12:00:00Z,Quito_Guamani,-0.3308,-78.5514,709.7428,282.8780,6.4224,-0.1937,0.0196,2.2105,8.1283,29.6127,23.4268,51.9549,31.7794,7.2332,
2024-02-24T08:00:00Z,2024-02-23T12:00:00Z,Quito_Guamani,-0.3308,-78.5514,709.6476,282.6972,23.0968,0.3948,-0.1077,2.6941,8.6148,28.5768,24.2557,58.4682,18.3823,6.6078,
2024-02-24T09:00:00Z,2024-02-23T12:00:00Z,Quito_Guamani,-0.3308,-78.5514,709.4856,282.5596,54.2402,0.5311,-0.1693,3.3539,7.3531,26.1988,22.3036,46.3449,19.3749,5.6540,
2024-02-24T10:00:00Z,2024-02-23T12:00:00Z,Quito_Guamani,-0.3308,-78.5514,709.6081,282.5343,62.1080,0.1514,-0.2140,2.0863,7.6810,26.2865,27.9225,47.7836,19.7806,5.3938,
2024-02-24T11:00:00Z,2024-02-23T12:00:00Z,Quito_Guamani,-0.3308,-78.5514,710.0169,282.5597,78.5589,-0.6301,-0.0286,3.4884,6.3208,24.6000,29.8740,51.4601,28.3622,5.6286,
2024-02-24T12:00:00Z,2024-02-23T12:00:00Z,Quito_Guamani,-0.3308,-78.5514,710.5227,283.2030,124.6929,-1.3447,0.3258,11.3393,12.6427,18.1586,32.1228,39.6427,26.6537,5.1460,
2024-02-24T13:00:00Z,2024-02-23T12:00:00Z,Quito_Guamani,-0.3308,-78.5514,711.0113,284.2640,234.8423,-1.2075,0.1571,18.5121,21.8456,13.2704,24.3147,25.9559,31.7561,4.3292,
2024-02-24T14:00:00Z,2024-02-23T12:00:00Z,Quito_Guamani,-0.3308,-78.5514,711.2664,285.4574,270.8435,-0.3155,-0.5990,25.2862,27.0899,9.0572,21.8540,18.7394,21.2341,4.0654,
2024-02-24T15:00:00Z,2024-02-23T12:00:00Z,Quito_Guamani,-0.3308,-78.5514,711.3923,286.1382,371.4561,0.8211,-1.5200,30.4938,36.3285,6.5953,18.5636,14.9401,17.4348,4.4205,
2024-02-24T16:00:00Z,2024-02-23T12:00:00Z,Quito_Guamani,-0.3308,-78.5514,711.2661,286.2285,611.3052,1.1687,-1.9849,33.6101,47.7264,4.9715,20.4663,13.4692,18.5081,5.7502,
2024-02-24T17:00:00Z,2024-02-23T12:00:00Z,Quito_Guamani,-0.3308,-78.5514,710.8978,286.3365,807.7621,1.4383,-2.1578,34.1641,46.8478,4.3824,19.9226,12.1725,18.6277,7.3351,
2024-02-24T18:00:00Z,2024-02-23T12:00:00Z,Quito_Guamani,-0.3308,-78.5514,710.2263,286.4287,1110.0769,1.7818,-2.1528,33.7875,38.7333,3.8778,20.1754,10.3751,18.8599,9.5023,
2024-02-24T19:00:00Z,2024-02-23T12:00:00Z,Quito_Guamani,-0.3308,-78.5514,709.5159,286.4984,1403.8086,1.9668,-2.0037,33.0798,34.8902,3.8231,20.2848,8.8930,17.3778,10.7971,
2024-02-24T20:00:00Z,2024-02-23T12:00:00Z,Quito_Guamani,-0.3308,-78.5514,708.8809,286.5199,1815.7959,1.9985,-1.6450,32.2579,27.4310,4.0734,20.8902,7.8825,16.3673,11.3053,
2024-02-24T21:00:00Z,2024-02-23T12:00:00Z,Quito_Guamani,-0.3308,-78.5514,708.5010,286.4671,2471.9238,1.8270,-1.1145,31.0830,21.1210,4.7390,24.1877,7.4446,17.3120,11.9159,
2024-02-24T22:00:00Z,2024-02-23T12:00:00Z,Quito_Guamani,-0.3308,-78.5514,708.4877,286.1570,3108.9783,1.3133,-0.3944,26.1242,15.3269,8.2722,26.6312,8.5194,18.3868,9.2226,
2024-02-24T23:00:00Z,2024-02-23T12:00:00Z,Quito_Guamani,-0.3308,-78.5514,708.8987,285.5186,3433.2275,0.5657,0.1129,14.7467,9.5259,19.0496,33.2505,13.6946,17.6927,4.7859,
2024-02-25T00:00:00Z,2024-02-23T12:00:00Z,Quito_Guamani,-0.3308,-78.5514,709.5926,285.2998,2685.5469,0.3819,0.0704,10.2906,9.7012,25.9911,33.7713,19.2274,27.2734,3.7810,
2024-02-25T01:00:00Z,2024-02-23T12:00:00Z,Quito_Guamani,-0.3308,-78.5514,710.2122,285.1118,1102.4475,0.2889,0.0158,8.4229,7.1662,29.8814,33.3827,25.0937,24.4894,4.9171,
2024-02-25T02:00:00Z,2024-02-23T12:00:00Z,Quito_Guamani,-0.3308,-78.5514,710.8196,284.8536,371.9330,0.2691,0.2767,6.8341,7.9288,32.5860,31.9549,32.4385,24.0622,5.8636,
2024-02-25T03:00:00Z,2024-02-23T12:00:00Z,Quito_Guamani,-0.3308,-78.5514,711.2397,284.5323,277.9961,0.2120,0.3486,6.4469,7.5434,33.7288,25.5163,38.3659,19.0069,6.6518,
2024-02-25T04:00:00Z,2024-02-23T12:00:00Z,Quito_Guamani,-0.3308,-78.5514,711.4033,284.2493,195.9801,0.1302,0.1680,5.9712,9.3441,34.3343,21.0394,43.6794,21.1767,7.0595,
2024-02-25T05:00:00Z,2024-02-23T12:00:00Z,Quito_Guamani,-0.3308,-78.5514,711.0579,283.9357,96.0827,0.0685,0.0168,4.7967,10.8048,34.9200,19.1485,48.9385,19.9936,7.4880,
2024-02-25T06:00:00Z,2024-02-23T12:00:00Z,Quito_Guamani,-0.3308,-78.5514,710.6063,283.6638,72.1216,-0.0224,0.0101,3.9982,10.0082,35.0523,18.9540,54.8153,18.8173,8.2293,
2024-02-25T07:00:00Z,2024-02-23T12:00:00Z,Quito_Guamani,-0.3308,-78.5514,710.2416,283.4753,57.8761,-0.1811,0.0038,3.7635,9.7744,35.0173,16.4731,61.5737,20.0468,8.7672,
2024-02-25T08:00:00Z,2024-02-23T12:00:00Z,Quito_Guamani,-0.3308,-78.5514,710.0819,283.2906,52.5117,-0.3199,-0.0008,3.8148,9.8282,35.3955,19.0632,68.7617,25.3760,9.5240,
2024-02-25T09:00:00Z,2024-02-23T12:00:00Z,Quito_Guamani,-0.3308,-78.5514,710.1224,283.0954,55.3131,-0.4747,0.0876,4.1674,9.2746,35.9066,23.0849,75.2665,15.6014,10.6864,
2024-02-25T10:00:00Z,2024-02-23T12:00:00Z,Quito_Guamani,-0.3308,-78.5514,710.3074,282.9103,43.9286,-0.6382,0.1731,4.7722,9.7154,35.8182,29.0832,80.0119,15.4611,11.5295,
2024-02-25T11:00:00Z,2024-02-23T12:00:00Z,Quito_Guamani,-0.3308,-78.5514,710.5690,282.7828,26.0174,-0.8420,0.2849,7.2722,9.2612,33.5413,27.5661,82.2585,25.4914,12.0674,
2024-02-25T12:00:00Z,2024-02-23T12:00:00Z,Quito_Guamani,-0.3308,-78.5514,710.9892,283.2734,12.1593,-1.0677,0.2842,14.6965,13.2688,26.9560,23.0100,72.1287,21.1157,11.1208,
2024-02-25T13:00:00Z,2024-02-23T12:00:00Z,Quito_Guamani,-0.3308,-78.5514,711.3647,284.5323,8.0168,-1.1401,0.0657,28.1023,21.2598,15.9616,22.5142,41.1271,24.1537,7.7134,
2024-02-25T14:00:00Z,2024-02-23T12:00:00Z,Quito_Guamani,-0.3308,-78.5514,711.5154,285.8587,6.1765,-1.0058,-0.4144,38.4329,30.6530,8.9574,19.0904,25.6583,23.2608,6.0897,
2024-02-25T15:00:00Z,2024-02-23T12:00:00Z,Quito_Guamani,-0.3308,-78.5514,711.3895,287.0486,6.8992,-0.7375,-0.8781,46.3033,43.7966,5.4271,15.9744,19.3152,21.5176,5.5356,
2024-02-25T16:00:00Z,2024-02-23T12:00:00Z,Quito_Guamani,-0.3308,-78.5514,710.9844,288.0376,9.2536,-0.1214,-1.3543,53.5003,49.5367,3.3933,16.4763,16.2836,20.4498,5.4393,
2024-02-25T17:00:00Z,2024-02-23T12:00:00Z,Quito_Guamani,-0.3308,-78.5514,710.3065,288.5532,24.0207,0.7655,-1.8583,58.7305,65.1219,2.4401,11.4787,14.8416,19.0078,5.6487,
2024-02-25T18:00:00Z,2024-02-23T12:00:00Z,Quito_Guamani,-0.3308,-78.5514,709.7331,288.1542,96.2019,1.3408,-2.3080,60.6679,64.5737,2.0747,15.2128,14.2493,21.0580,6.7322,
2024-02-25T19:00:00Z,2024-02-23T12:00:00Z,Quito_Guamani,-0.3308,-78.5514,709.3325,287.0009,240.8028,1.5379,-2.4834,57.0570,66.2621,2.5519,17.1965,13.8722,21.2891,9.0188,
2024-02-25T20:00:00Z,2024-02-23T12:00:00Z,Quito_Guamani,-0.3308,-78.5514,709.0857,286.2009,405.7884,1.4109,-2.2633,49.3705,46.5552,3.9046,20.4679,13.1210,20.9329,12.3527,
2024-02-25T21:00:00Z,2024-02-23T12:00:00Z,Quito_Guamani,-0.3308,-78.5514,709.0443,285.7866,463.4857,1.1500,-1.9170,41.9358,31.0038,5.5829,23.3140,12.1051,20.6743,17.1247,
2024-02-25T22:00:00Z,2024-02-23T12:00:00Z,Quito_Guamani,-0.3308,-78.5514,709.2690,285.4010,452.9953,0.7780,-1.4854,34.0305,26.0215,9.1135,28.1106,12.4972,21.7612,28.8245,
2024-02-25T23:00:00Z,2024-02-23T12:00:00Z,Quito_Guamani,-0.3308,-78.5514,709.7627,285.1064,346.6606,0.4000,-1.0736,23.8417,11.7455,16.3746,38.3919,15.5160,23.6276,29.9603,
2024-02-26T00:00:00Z,2024-02-23T12:00:00Z,Quito_Guamani,-0.3308,-78.5514,710.2787,284.8861,168.5619,0.3238,-0.8758,14.5569,6.8571,24.1270,36.7362,23.0358,27.2027,23.1507,
2024-02-26T01:00:00Z,2024-02-23T12:00:00Z,Quito_Guamani,-0.3308,-78.5514,710.7394,284.5531,60.7371,0.1409,-0.7427,6.8198,8.8165,31.7721,36.9132,32.5703,24.0652,17.3019,
2024-02-26T02:00:00Z,2024-02-23T12:00:00Z,Quito_Guamani,-0.3308,-78.5514,711.1577,284.3700,24.5869,-0.2529,-0.4801,3.6083,6.1186,37.8514,33.0390,43.6999,29.1686,13.3308,
2024-02-26T03:00:00Z,2024-02-23T12:00:00Z,Quito_Guamani,-0.3308,-78.5514,711.3344,284.2097,28.3420,-0.4180,-0.2571,2.8858,11.9987,42.7988,33.3056,56.3282,23.2197,13.7451,
2024-02-26T04:00:00Z,2024-02-23T12:00:00Z,Quito_Guamani,-0.3308,-78.5514,711.1835,284.0580,69.0222,-0.2938,-0.4038,2.3899,14.8466,46.4407,25.7718,68.8906,23.0787,15.0731,
2024-02-26T05:00:00Z,2024-02-23T12:00:00Z,Quito_Guamani,-0.3308,-78.5514,710.7319,283.8518,117.5404,-0.1015,-0.5460,1.8852,11.1826,47.5738,24.5164,81.0169,19.0476,15.3963,
2024-02-26T06:00:00Z,2024-02-23T12:00:00Z,Quito_Guamani,-0.3308,-78.5514,710.2642,283.6812,207.9010,-0.0375,-0.5717,1.7064,11.0031,46.1198,23.3784,92.8900,22.9923,14.4667,
2024-02-26T07:00:00Z,2024-02-23T12:00:00Z,Quito_Guamani,-0.3308,-78.5514,709.8390,283.5916,284.6718,-0.0300,-0.5498,1.6691,9.7868,43.5274,25.1367,103.2659,27.4195,12.1755,
2024-02-26T08:00:00Z,2024-02-23T12:00:00Z,Quito_Guamani,-0.3308,-78.5514,709.5334,283.4782,242.4717,0.0500,-0.5667,1.6559,10.4392,40.5034,18.6013,111.5134,30.1560,11.0346,
2024-02-26T09:00:00Z,2024-02-23T12:00:00Z,Quito_Guamani,-0.3308,-78.5514,709.5232,283.3096,123.0240,0.1852,-0.6214,1.7411,9.7177,35.9298,23.3649,102.5146,26.1152,9.9657,
2024-02-26T10:00:00Z,2024-02-23T12:00:00Z,Quito_Guamani,-0.3308,-78.5514,709.6683,283.1553,96.6787,0.1757,-0.6420,1.6347,6.3890,32.7687,30.0013,98.3888,23.2867,8.7995,
2024-02-26T11:00:00Z,2024-02-23T12:00:00Z,Quito_Guamani,-0.3308,-78.5514,710.1521,283.2185,183.5823,0.2979,-0.5432,2.8227,8.1207,30.1190,30.8599,103.2684,28.1664,7.9122,
2024-02-26T12:00:00Z,2024-02-23T12:00:00Z,Quito_Guamani,-0.3308,-78.5514,710.8998,283.9260,179.0524,1.0550,-0.8775,16.7854,13.0529,18.1824,27.8178,45.3968,23.7838,3.8462,
2024-02-26T13:00:00Z,2024-02-23T12:00:00Z,Quito_Guamani,-0.3308,-78.5514,711.4758,284.9055,238.6570,1.6551,-1.1052,28.9510,23.0871,8.5144,20.6535,19.6462,21.1337,2.7690,
2024-02-26T14:00:00Z,2024-02-23T12:00:00Z,Quito_Guamani,-0.3308,-78.5514,711.7136,286.2100,298.0232,2.2943,-1.3150,35.0540,39.3589,5.0300,19.7639,12.3355,17.7835,2.1591,
2024-02-26T15:00:00Z,2024-02-23T12:00:00Z,Quito_Guamani,-0.3308,-78.5514,711.5228,286.8844,379.5624,2.8341,-1.5212,39.5877,44.7417,3.9386,21.0645,9.8217,17.4771,2.4858,
2024-02-26T16:00:00Z,2024-02-23T12:00:00Z,Quito_Guamani,-0.3308,-78.5514,711.0115,286.9358,567.4362,3.1264,-1.5692,43.2160,46.7097,3.2568,22.9552,8.6764,17.0505,3.2984,
2024-02-26T17:00:00Z,2024-02-23T12:00:00Z,Quito_Guamani,-0.3308,-78.5514,710.3151,286.5550,885.9634,3.1303,-1.5077,43.0645,44.6430,3.0983,21.1338,7.9009,16.2750,4.5014,
2024-02-26T18:00:00Z,2024-02-23T12:00:00Z,Quito_Guamani,-0.3308,-78.5514,709.5536,286.4558,1405.7159,3.0347,-1.5049,41.2020,42.5644,3.0312,19.3672,7.2680,15.7528,6.5295,
2024-02-26T19:00:00Z,2024-02-23T12:00:00Z,Quito_Guamani,-0.3308,-78.5514,708.8839,286.6603,2178.1921,2.9439,-1.6230,39.8457,43.7413,2.8918,19.6977,6.5351,15.0199,5.2988,
2024-02-26T20:00:00Z,2024-02-23T12:00:00Z,Quito_Guamani,-0.3308,-78.5514,708.3580,287.0144,3150.9399,2.9272,-1.6487,39.1865,42.2530,2.7917,20.1951,5.7769,14.1511,3.3933,
2024-02-26T21:00:00Z,2024-02-23T12:00:00Z,Quito_Guamani,-0.3308,-78.5514,708.1490,286.6165,4280.0903,2.6264,-1.1562,36.1989,32.5798,4.5054,22.1158,5.9858,14.9833,1.9728,
2024-02-26T22:00:00Z,2024-02-23T12:00:00Z,Quito_Guamani,-0.3308,-78.5514,708.6304,285.7758,4806.5186,1.6056,-0.3318,27.4142,15.4379,11.4990,28.9113,8.5227,19.5880,0.6671,
2024-02-26T23:00:00Z,2024-02-23T12:00:00Z,Quito_Guamani,-0.3308,-78.5514,709.5037,284.5472,3704.0710,0.3798,0.1061,18.0984,11.3791,20.1948,37.4915,12.0327,19.6882,0.7886,
2024-02-27T00:00:00Z,2024-02-23T12:00:00Z,Quito_Guamani,-0.3308,-78.5514,710.1393,283.2802,2616.8823,-1.0410,0.7760,19.8804,9.9669,18.6282,30.5718,11.4813,20.8309,1.3008,
2024-02-27T01:00:00Z,2024-02-23T12:00:00Z,Quito_Guamani,-0.3308,-78.5514,710.7869,281.7348,1840.5914,-2.0808,1.6259,19.6897,10.2867,19.5802,32.6343,12.8773,22.6148,2.0331,
2024-02-27T02:00:00Z,2024-02-23T12:00:00Z,Quito_Guamani,-0.3308,-78.5514,711.1896,280.4721,1121.5210,-2.5116,1.5480,18.7032,10.4148,21.0677,38.3503,15.7519,22.6115,2.4888,
2024-02-27T03:00:00Z,2024-02-23T12:00:00Z,Quito_Guamani,-0.3308,-78.5514,711.1900,279.8867,676.1551,-2.5682,1.0753,16.6290,13.1520,22.3801,25.4696,18.7285,13.3458,3.0292,
2024-02-27T04:00:00Z,2024-02-23T12:00:00Z,Quito_Guamani,-0.3308,-78.5514,710.9282,279.9288,462.5320,-2.2863,0.7318,14.0388,14.6335,23.8407,20.3969,21.4157,16.5699,3.6284,
2024-02-27T05:00:00Z,2024-02-23T12:00:00Z,Quito_Guamani,-0.3308,-78.5514,710.3355,280.1929,300.8842,-1.9049,0.4530,10.3187,17.2041,26.6150,17.5427,24.6356,14.1914,4.3252,
2024-02-27T06:00:00Z,2024-02-23T12:00:00Z,Quito_Guamani,-0.3308,-78.5514,709.7416,280.5938,132.0839,-1.6909,0.4785,8.3935,17.3760,27.9395,13.1271,26.9776,13.5491,4.9898,
2024-02-27T07:00:00Z,2024-02-23T12:00:00Z,Quito_Guamani,-0.3308,-78.5514,709.3159,281.0035,33.7362,-1.2193,0.5590,7.1887,20.6180,28.6543,15.9101,29.2042,13.6974,5.5807,
2024-02-27T08:00:00Z,2024-02-23T12:00:00Z,Quito_Guamani,-0.3308,-78.5514,709.0851,281.3865,24.7061,-0.9693,0.6028,6.2981,18.1762,29.0523,16.8535,31.9243,10.7460,6.1613,
2024-02-27T09:00:00Z,2024-02-23T12:00:00Z,Quito_Guamani,-0.3308,-78.5514,709.2264,281.8064,30.1003,-0.7493,0.5450,5.2383,13.6834,29.4605,20.4403,35.4560,12.3603,6.8351,
2024-02-27T10:00:00Z,2024-02-23T12:00:00Z,Quito_Guamani,-0.3308,-78.5514,709.6321,282.0717,30.2792,-0.5602,0.4798,3.8257,6.8633,30.3003,25.6643,39.7683,15.9058,7.8437,
2024-02-27T11:00:00Z,2024-02-23T12:00:00Z,Quito_Guamani,-0.3308,-78.5514,710.1631,282.2768,30.2792,-0.5485,0.4115,4.8136,7.3242,28.8832,29.3465,44.3932,29.7466,8.9930,
2024-02-27T12:00:00Z,2024-02-23T12:00:00Z,Quito_Guamani,-0.3308,-78.5514,710.7478,283.2498,35.8224,-0.6233,0.0536,17.8759,14.7196,19.3936,28.0796,33.5123,22.3784,7.3347,
2024-02-27T13:00:00Z,2024-02-23T12:00:00Z,Quito_Guamani,-0.3308,-78.5514,711.2219,284.8447,37.5509,-0.1600,-0.8761,33.3518,29.1417,9.2168,17.8512,17.8542,20.9289,4.6836,
2024-02-27T14:00:00Z,2024-02-23T12:00:00Z,Quito_Guamani,-0.3308,-78.5514,711.2788,286.2180,34.5707,0.6015,-1.5230,40.7102,41.2405,6.2122,15.8254,15.2694,18.6364,4.2465,
2024-02-27T15:00:00Z,2024-02-23T12:00:00Z,Quito_Guamani,-0.3308,-78.5514,710.9139,287.4800,47.9221,1.5233,-2.0994,49.5269,55.1839,4.6986,16.5415,14.8935,17.3881,4.0947,
2024-02-27T16:00:00Z,2024-02-23T12:00:00Z,Quito_Guamani,-0.3308,-78.5514,710.2548,288.1857,102.1624,2.3804,-2.3914,59.7121,60.7586,3.6559,16.7884,15.2531,17.7478,4.0516,
2024-02-27T17:00:00Z,2024-02-23T12:00:00Z,Quito_Guamani,-0.3308,-78.5514,709.5526,287.7736,217.6762,2.8314,-2.3551,67.1126,70.5893,3.4838,19.0360,16.4350,18.9296,4.2339,
2024-02-27T18:00:00Z,2024-02-23T12:00:00Z,Quito_Guamani,-0.3308,-78.5514,708.9388,286.8956,440.5975,2.8506,-2.1434,69.5848,70.0288,3.8147,19.4011,17.4295,19.9242,5.4506,
2024-02-27T19:00:00Z,2024-02-23T12:00:00Z,Quito_Guamani,-0.3308,-78.5514,708.3965,286.4980,812.5305,2.7668,-1.8674,68.2986,55.9771,4.2501,19.5851,17.1758,21.8352,5.3060,
2024-02-27T20:00:00Z,2024-02-23T12:00:00Z,Quito_Guamani,-0.3308,-78.5514,708.0123,286.3720,1293.1824,2.6548,-1.4696,65.0515,48.0222,4.6975,21.4259,16.0786,20.7380,5.6697,
2024-02-27T21:00:00Z,2024-02-23T12:00:00Z,Quito_Guamani,-0.3308,-78.5514,708.0408,286.1475,1789.0930,2.4191,-0.9269,60.7814,37.0100,5.8169,25.0439,15.2628,20.3999,7.2636,
2024-02-27T22:00:00Z,2024-02-23T12:00:00Z,Quito_Guamani,-0.3308,-78.5514,708.4885,285.5431,2197.2656,1.7079,-0.2465,54.6953,30.1601,9.2987,28.3507,15.9493,96.3329,6.7771,
2024-02-27T23:00:00Z,2024-02-23T12:00:00Z,Quito_Guamani,-0.3308,-78.5514,709.1353,284.4122,2231.5979,0.3114,0.4818,42.6466,21.4915,19.2505,46.5287,19.9480,25.3976,7.3520,
2024-02-28T00:00:00Z,2024-02-23T12:00:00Z,Quito_Guamani,-0.3308,-78.5514,709.5609,283.6740,1235.9619,-0.5185,0.7791,30.6375,16.8998,29.4415,41.4612,25.1640,30.1766,8.7922,
2024-02-28T01:00:00Z,2024-02-23T12:00:00Z,Quito_Guamani,-0.3308,-78.5514,709.5618,283.4236,249.3858,-0.2442,0.8926,22.2518,14.9394,35.7964,34.8970,30.1887,22.0963,9.6523,
2024-02-28T02:00:00Z,2024-02-23T12:00:00Z,Quito_Guamani,-0.3308,-78.5514,710.0444,283.7355,66.1612,-0.2479,0.5623,17.8907,9.5654,39.7302,27.3664,36.2836,23.3489,10.2944,
2024-02-28T03:00:00Z,2024-02-23T12:00:00Z,Quito_Guamani,-0.3308,-78.5514,710.5952,283.8023,268.4593,-0.7549,-0.0462,12.9362,14.5327,43.0576,31.0084,44.6605,21.9599,11.7473,
2024-02-28T04:00:00Z,2024-02-23T12:00:00Z,Quito_Guamani,-0.3308,-78.5514,710.4468,283.6662,431.0608,-0.8292,-0.0866,7.3851,13.2750,45.7308,16.3560,53.9222,19.7807,13.4186,
2024-02-28T05:00:00Z,2024-02-23T12:00:00Z,Quito_Guamani,-0.3308,-78.5514,709.8547,283.5682,808.7158,-0.4680,0.1330,3.8803,12.6878,47.3208,16.3370,62.6190,19.7238,14.6262,
2024-02-28T06:00:00Z,2024-02-23T12:00:00Z,Quito_Guamani,-0.3308,-78.5514,709.2222,283.3595,660.8963,0.0316,0.7926,2.7239,14.8157,46.5074,16.1280,69.4941,18.8365,16.3436,
2024-02-28T07:00:00Z,2024-02-23T12:00:00Z,Quito_Guamani,-0.3308,-78.5514,708.7051,283.2291,146.1506,-0.1315,0.7309,3.2688,13.4584,43.7552,18.4254,73.9964,18.2252,16.4895,
2024-02-28T08:00:00Z,2024-02-23T12:00:00Z,Quito_Guamani,-0.3308,-78.5514,708.5608,283.2529,26.1664,-0.4396,0.1836,2.7214,14.8065,42.6954,16.6065,82.1243,17.7808,17.2455,
2024-02-28T09:00:00Z,2024-02-23T12:00:00Z,Quito_Guamani,-0.3308,-78.5514,708.8069,283.2000,73.1945,-0.5718,0.0836,2.3497,11.3086,41.9928,19.2085,90.7497,17.9887,19.5740,
2024-02-28T10:00:00Z,2024-02-23T12:00:00Z,Quito_Guamani,-0.3308,-78.5514,709.1301,283.0705,179.0524,-0.6641,0.2745,2.7096,5.0818,40.1353,25.0246,96.3707,19.3838,23.2433,
2024-02-28T11:00:00Z,2024-02-23T12:00:00Z,Quito_Guamani,-0.3308,-78.5514,709.5497,283.0406,234.3655,-0.7543,0.2760,7.0130,6.0432,34.8754,31.6910,98.7400,24.8368,26.5921,
2024-02-23T12:00:00Z,2024-02-23T12:00:00Z,Quito_Tumbaco,-0.2100,-78.4000,709.9154,284.3588,334.2628,1.5294,-0.7421,18.3725,13.7285,22.3505,12.8730,48.3705,16.5577,3.3719,
2024-02-23T13:00:00Z,2024-02-23T12:00:00Z,Quito_Tumbaco,-0.2100,-78.4000,710.0526,284.8347,400.5432,2.2484,-0.7927,31.3715,24.4373,9.7438,15.9139,19.5934,9.6464,2.2911,
2024-02-23T14:00:00Z,2024-02-23T12:00:00Z,Quito_Tumbaco,-0.2100,-78.4000,710.1677,285.7476,591.2781,2.4580,-0.7104,36.5377,28.5181,5.5425,11.6068,12.6803,13.4218,2.3753,
2024-02-23T15:00:00Z,2024-02-23T12:00:00Z,Quito_Tumbaco,-0.2100,-78.4000,710.1758,286.6327,596.0464,2.6615,-0.8397,41.6706,45.1225,3.9296,11.9685,9.7955,14.8967,2.6529,
2024-02-23T16:00:00Z,2024-02-23T12:00:00Z,Quito_Tumbaco,-0.2100,-78.4000,709.8429,286.6355,745.7733,2.9562,-1.3268,43.0237,49.3225,3.9277,7.7942,9.9646,15.0657,5.0860,
2024-02-23T17:00:00Z,2024-02-23T12:00:00Z,Quito_Tumbaco,-0.2100,-78.4000,709.3926,286.7314,1115.7990,3.1411,-1.6035,43.4809,48.0465,3.6849,7.0392,9.5731,14.9676,7.6596,
2024-02-23T18:00:00Z,2024-02-23T12:00:00Z,Quito_Tumbaco,-0.2100,-78.4000,708.8370,287.0427,1749.0387,3.4030,-1.7236,44.4785,57.3344,3.3102,6.6582,8.2427,14.1683,11.4643,
2024-02-23T19:00:00Z,2024-02-23T12:00:00Z,Quito_Tumbaco,-0.2100,-78.4000,708.2743,287.4636,2700.8057,3.8423,-2.0926,45.9512,54.5682,2.7077,5.6177,6.6856,13.0799,8.5970,
2024-02-23T20:00:00Z,2024-02-23T12:00:00Z,Quito_Tumbaco,-0.2100,-78.4000,707.8104,287.4401,4081.7261,4.2876,-2.9030,45.1801,52.6079,2.6367,6.6503,5.5211,11.8726,5.8405,
2024-02-23T21:00:00Z,2024-02-23T12:00:00Z,Quito_Tumbaco,-0.2100,-78.4000,707.8792,286.4564,3898.6206,3.2354,-2.3457,37.8246,31.8444,5.8790,7.8107,6.1784,12.0734,2.5518,
2024-02-23T22:00:00Z,2024-02-23T12:00:00Z,Quito_Tumbaco,-0.2100,-78.4000,708.5370,285.6989,1987.4573,2.2108,-0.6425,29.2931,20.5501,10.9215,12.2189,7.6645,13.0854,2.4163,
2024-02-23T23:00:00Z,2024-02-23T12:00:00Z,Quito_Tumbaco,-0.2100,-78.4000,709.3104,285.2268,1279.8309,1.7331,-0.7085,24.6938,13.8199,13.1739,11.6331,8.5566,12.4089,2.2840,
2024-02-24T00:00:00Z,2024-02-23T12:00:00Z,Quito_Tumbaco,-0.2100,-78.4000,709.3301,284.6925,348.5680,1.8744,0.2166,23.3175,13.1964,13.1589,9.8037,10.2610,12.2181,2.7118,
2024-02-24T01:00:00Z,2024-02-23T12:00:00Z,Quito_Tumbaco,-0.2100,-78.4000,709.5350,284.2344,116.1098,1.2547,0.1667,19.3564,12.0228,15.5353,11.0940,13.9353,14.2276,2.9948,
2024-02-24T02:00:00Z,2024-02-23T12:00:00Z,Quito_Tumbaco,-0.2100,-78.4000,710.6526,283.9885,264.1678,0.6876,-0.5451,16.7128,9.3513,17.4267,11.6614,16.0481,15.5301,2.9617,
2024-02-24T03:00:00Z,2024-02-23T12:00:00Z,Quito_Tumbaco,-0.2100,-78.4000,711.1859,283.8132,216.7225,0.3075,-0.1107,14.1885,7.6253,19.8513,7.9185,17.5354,13.7642,3.3356,
2024-02-24T04:00:00Z,2024-02-23T12:00:00Z,Quito_Tumbaco,-0.2100,-78.4000,711.2537,283.6087,76.2939,0.1114,-0.0251,9.4175,12.9774,24.1882,10.5674,23.7139,15.3516,4.1838,
2024-02-24T05:00:00Z,2024-02-23T12:00:00Z,Quito_Tumbaco,-0.2100,-78.4000,710.7509,283.3606,5.7817,-0.3316,-0.0195,6.1530,9.7134,26.6963,4.9681,33.2032,14.3402,5.2139,
2024-02-24T06:00:00Z,2024-02-23T12:00:00Z,Quito_Tumbaco,-0.2100,-78.4000,710.1085,283.0963,1.4771,-0.4908,0.0048,3.7298,6.6005,28.3127,9.1180,42.2002,17.0614,6.5020,
2024-02-24T07:00:00Z,2024-02-23T12:00:00Z,Quito_Tumbaco,-0.2100,-78.4000,709.7428,282.8780,6.4224,-0.1937,0.0196,2.2105,4.6565,29.6127,9.8351,51.9549,17.5631,7.2332,
2024-02-24T08:00:00Z,2024-02-23T12:00:00Z,Quito_Tumbaco,-0.2100,-78.4000,709.6476,282.6972,23.0968,0.3948,-0.1077,2.6941,5.4105,28.5768,8.7891,58.4682,12.8333,6.6078,
2024-02-24T09:00:00Z,2024-02-23T12:00:00Z,Quito_Tumbaco,-0.2100,-78.4000,709.4856,282.5596,54.2402,0.5311,-0.1693,3.3539,6.0920,26.1988,7.2795,46.3449,19.9955,5.6540,
2024-02-24T10:00:00Z,2024-02-23T12:00:00Z,Quito_Tumbaco,-0.2100,-78.4000,709.6081,282.5343,62.1080,0.1514,-0.2140,2.0863,12.1450,26.2865,7.2545,47.7836,23.9103,5.3938,
2024-02-24T11:00:00Z,2024-02-23T12:00:00Z,Quito_Tumbaco,-0.2100,-78.4000,710.0169,282.5597,78.5589,-0.6301,-0.0286,3.4884,8.3145,24.6000,11.0224,51.4601,23.7221,5.6286,
2024-02-24T12:00:00Z,2024-02-23T12:00:00Z,Quito_Tumbaco,-0.2100,-78.4000,710.5227,283.2030,124.6929,-1.3447,0.3258,11.3393,12.1193,18.1586,12.9538,39.6427,17.7031,5.1460,
2024-02-24T13:00:00Z,2024-02-23T12:00:00Z,Quito_Tumbaco,-0.2100,-78.4000,711.0113,284.2640,234.8423,-1.2075,0.1571,18.5121,15.4006,13.2704,11.6740,25.9559,15.4414,4.3292,
2024-02-24T14:00:00Z,2024-02-23T12:00:00Z,Quito_Tumbaco,-0.2100,-78.4000,711.2664,285.4574,270.8435,-0.3155,-0.5990,25.2862,18.0772,9.0572,10.2724,18.7394,15.2852,4.0654,
2024-02-24T15:00:00Z,2024-02-23T12:00:00Z,Quito_Tumbaco,-0.2100,-78.4000,711.3923,286.1382,371.4561,0.8211,-1.5200,30.4938,37.7568,6.5953,14.6008,14.9401,11.6410,4.4205,
2024-02-24T16:00:00Z,2024-02-23T12:00:00Z,Quito_Tumbaco,-0.2100,-78.4000,711.2661,286.2285,611.3052,1.1687,-1.9849,33.6101,45.7453,4.9715,9.1928,13.4692,14.6229,5.7502,
2024-02-24T17:00:00Z,2024-02-23T12:00:00Z,Quito_Tumbaco,-0.2100,-78.4000,710.8978,286.3365,807.7621,1.4383,-2.1578,34.1641,50.6785,4.3824,8.3169,12.1725,14.2237,7.3351,
2024-02-24T18:00:00Z,2024-02-23T12:00:00Z,Quito_Tumbaco,-0.2100,-78.4000,710.2263,286.4287,1110.0769,1.7818,-2.1528,33.7875,50.2810,3.8778,8.8294,10.3751,12.9248,9.5023,
2024-02-24T19:00:00Z,2024-02-23T12:00:00Z,Quito_Tumbaco,-0.2100,-78.4000,709.5159,286.4984,1403.8086,1.9668,-2.0037,33.0798,42.4909,3.8231,7.6632,8.8930,13.1249,10.7971,
2024-02-24T20:00:00Z,2024-02-23T12:00:00Z,Quito_Tumbaco,-0.2100,-78.4000,708.8809,286.5199,1815.7959,1.9985,-1.6450,32.2579,37.3419,4.0734,7.3143,7.8825,13.2762,11.3053,
2024-02-24T21:00:00Z,2024-02-23T12:00:00Z,Quito_Tumbaco,-0.2100,-78.4000,708.5010,286.4671,2471.9238,1.8270,-1.1145,31.0830,31.9213,4.7390,8.1294,7.4446,12.8383,11.9159,
2024-02-24T22:00:00Z,2024-02-23T12:00:00Z,Quito_Tumbaco,-0.2100,-78.4000,708.4877,286.1570,3108.9783,1.3133,-0.3944,26.1242,25.0673,8.2722,13.8703,8.5194,12.3717,9.2226,
2024-02-24T23:00:00Z,2024-02-23T12:00:00Z,Quito_Tumbaco,-0.2100,-78.4000,708.8987,285.5186,3433.2275,0.5657,0.1129,14.7467,18.3442,19.0496,13.1384,13.6946,10.8447,4.7859,
2024-02-25T00:00:00Z,2024-02-23T12:00:00Z,Quito_Tumbaco,-0.2100,-78.4000,709.5926,285.2998,2685.5469,0.3819,0.0704,10.2906,15.2279,25.9911,18.7947,19.2274,12.4860,3.7810,
2024-02-25T01:00:00Z,2024-02-23T12:00:00Z,Quito_Tumbaco,-0.2100,-78.4000,710.2122,285.1118,1102.4475,0.2889,0.0158,8.4229,15.9253,29.8814,20.5995,25.0937,12.1115,4.9171,
2024-02-25T02:00:00Z,2024-02-23T12:00:00Z,Quito_Tumbaco,-0.2100,-78.4000,710.8196,284.8536,371.9330,0.2691,0.2767,6.8341,14.3497,32.5860,12.7615,32.4385,11.4617,5.8636,
2024-02-25T03:00:00Z,2024-02-23T12:00:00Z,Quito_Tumbaco,-0.2100,-78.4000,711.2397,284.5323,277.9961,0.2120,0.3486,6.4469,13.9754,33.7288,14.3145,38.3659,11.6084,6.6518,
2024-02-25T04:00:00Z,2024-02-23T12:00:00Z,Quito_Tumbaco,-0.2100,-78.4000,711.4033,284.2493,195.9801,0.1302,0.1680,5.9712,13.4171,34.3343,13.0692,43.6794,13.8759,7.0595,
2024-02-25T05:00:00Z,2024-02-23T12:00:00Z,Quito_Tumbaco,-0.2100,-78.4000,711.0579,283.9357,96.0827,0.0685,0.0168,4.7967,11.3821,34.9200,10.0509,48.9385,12.1569,7.4880,
2024-02-25T06:00:00Z,2024-02-23T12:00:00Z,Quito_Tumbaco,-0.2100,-78.4000,710.6063,283.6638,72.1216,-0.0224,0.0101,3.9982,11.3940,35.0523,10.9048,54.8153,16.4402,8.2293,
2024-02-25T07:00:00Z,2024-02-23T12:00:00Z,Quito_Tumbaco,-0.2100,-78.4000,710.2416,283.4753,57.8761,-0.1811,0.0038,3.7635,10.8482,35.0173,10.8661,61.5737,14.8436,8.7672,
2024-02-25T08:00:00Z,2024-02-23T12:00:00Z,Quito_Tumbaco,-0.2100,-78.4000,710.0819,283.2906,52.5117,-0.3199,-0.0008,3.8148,8.3567,35.3955,26.1487,68.7617,11.1916,9.5240,
2024-02-25T09:00:00Z,2024-02-23T12:00:00Z,Quito_Tumbaco,-0.2100,-78.4000,710.1224,283.0954,55.3131,-0.4747,0.0876,4.1674,4.8147,35.9066,26.6529,75.2665,15.3951,10.6864,
2024-02-25T10:00:00Z,2024-02-23T12:00:00Z,Quito_Tumbaco,-0.2100,-78.4000,710.3074,282.9103,43.9286,-0.6382,0.1731,4.7722,4.7538,35.8182,27.6744,80.0119,11.6861,11.5295,
2024-02-25T11:00:00Z,2024-02-23T12:00:00Z,Quito_Tumbaco,-0.2100,-78.4000,710.5690,282.7828,26.0174,-0.8420,0.2849,7.2722,4.2995,33.5413,25.0703,82.2585,16.3860,12.0674,
2024-02-25T12:00:00Z,2024-02-23T12:00:00Z,Quito_Tumbaco,-0.2100,-78.4000,710.9892,283.2734,12.1593,-1.0677,0.2842,14.6965,7.0079,26.9560,10.1130,72.1287,21.3397,11.1208,
2024-02-25T13:00:00Z,2024-02-23T12:00:00Z,Quito_Tumbaco,-0.2100,-78.4000,711.3647,284.5323,8.0168,-1.1401,0.0657,28.1023,18.0648,15.9616,14.7698,41.1271,19.3240,7.7134,
2024-02-25T14:00:00Z,2024-02-23T12:00:00Z,Quito_Tumbaco,-0.2100,-78.4000,711.5154,285.8587,6.1765,-1.0058,-0.4144,38.4329,25.1525,8.9574,14.3747,25.6583,17.6738,6.0897,
2024-02-25T15:00:00Z,2024-02-23T12:00:00Z,Quito_Tumbaco,-0.2100,-78.4000,711.3895,287.0486,6.8992,-0.7375,-0.8781,46.3033,42.6021,5.4271,14.1078,19.3152,18.2013,5.5356,
2024-02-25T16:00:00Z,2024-02-23T12:00:00Z,Quito_Tumbaco,-0.2100,-78.4000,710.9844,288.0376,9.2536,-0.1214,-1.3543,53.5003,56.9453,3.3933,11.1367,16.2836,20.2053,5.4393,
2024-02-25T17:00:00Z,2024-02-23T12:00:00Z,Quito_Tumbaco,-0.2100,-78.4000,710.3065,288.5532,24.0207,0.7655,-1.8583,58.7305,67.2069,2.4401,13.1452,14.8416,16.4141,5.6487,
2024-02-25T18:00:00Z,2024-02-23T12:00:00Z,Quito_Tumbaco,-0.2100,-78.4000,709.7331,288.1542,96.2019,1.3408,-2.3080,60.6679,70.6510,2.0747,8.3801,14.2493,16.3304,6.7322,
2024-02-25T19:00:00Z,2024-02-23T12:00:00Z,Quito_Tumbaco,-0.2100,-78.4000,709.3325,287.0009,240.8028,1.5379,-2.4834,57.0570,67.4583,2.5519,7.7443,13.8722,14.4496,9.0188,
2024-02-25T20:00:00Z,2024-02-23T12:00:00Z,Quito_Tumbaco,-0.2100,-78.4000,709.0857,286.2009,405.7884,1.4109,-2.2633,49.3705,57.0918,3.9046,7.8679,13.1210,16.6594,12.3527,
2024-02-25T21:00:00Z,2024-02-23T12:00:00Z,Quito_Tumbaco,-0.2100,-78.4000,709.0443,285.7866,463.4857,1.1500,-1.9170,41.9358,48.6387,5.5829,10.4082,12.1051,16.1246,17.1247,
2024-02-25T22:00:00Z,2024-02-23T12:00:00Z,Quito_Tumbaco,-0.2100,-78.4000,709.2690,285.4010,452.9953,0.7780,-1.4854,34.0305,38.0204,9.1135,13.1965,12.4972,17.5659,28.8245,
2024-02-25T23:00:00Z,2024-02-23T12:00:00Z,Quito_Tumbaco,-0.2100,-78.4000,709.7627,285.1064,346.6606,0.4000,-1.0736,23.8417,24.7361,16.3746,16.8062,15.5160,15.7107,29.9603,
2024-02-26T00:00:00Z,2024-02-23T12:00:00Z,Quito_Tumbaco,-0.2100,-78.4000,710.2787,284.8861,168.5619,0.3238,-0.8758,14.5569,20.5377,24.1270,26.3134,23.0358,13.1191,23.1507,
2024-02-26T01:00:00Z,2024-02-23T12:00:00Z,Quito_Tumbaco,-0.2100,-78.4000,710.7394,284.5531,60.7371,0.1409,-0.7427,6.8198,20.1458,31.7721,18.2644,32.5703,13.2450,17.3019,
2024-02-26T02:00:00Z,2024-02-23T12:00:00Z,Quito_Tumbaco,-0.2100,-78.4000,711.1577,284.3700,24.5869,-0.2529,-0.4801,3.6083,14.4431,37.8514,18.9037,43.6999,14.0210,13.3308,
2024-02-26T03:00:00Z,2024-02-23T12:00:00Z,Quito_Tumbaco,-0.2100,-78.4000,711.3344,284.2097,28.3420,-0.4180,-0.2571,2.8858,19.9928,42.7988,13.2429,56.3282,19.1108,13.7451,
2024-02-26T04:00:00Z,2024-02-23T12:00:00Z,Quito_Tumbaco,-0.2100,-78.4000,711.1835,284.0580,69.0222,-0.2938,-0.4038,2.3899,18.3182,46.4407,11.4792,68.8906,16.4107,15.0731,
2024-02-26T05:00:00Z,2024-02-23T12:00:00Z,Quito_Tumbaco,-0.2100,-78.4000,710.7319,283.8518,117.5404,-0.1015,-0.5460,1.8852,23.5169,47.5738,12.7334,81.0169,12.7476,15.3963,
2024-02-26T06:00:00Z,2024-02-23T12:00:00Z,Quito_Tumbaco,-0.2100,-78.4000,710.2642,283.6812,207.9010,-0.0375,-0.5717,1.7064,16.0371,46.1198,12.0090,92.8900,17.5190,14.4667,
2024-02-26T07:00:00Z,2024-02-23T12:00:00Z,Quito_Tumbaco,-0.2100,-78.4000,709.8390,283.5916,284.6718,-0.0300,-0.5498,1.6691,13.1116,43.5274,12.8673,103.2659,18.6550,12.1755,
2024-02-26T08:00:00Z,2024-02-23T12:00:00Z,Quito_Tumbaco,-0.2100,-78.4000,709.5334,283.4782,242.4717,0.0500,-0.5667,1.6559,13.9776,40.5034,12.1779,111.5134,11.4262,11.0346,
2024-02-26T09:00:00Z,2024-02-23T12:00:00Z,Quito_Tumbaco,-0.2100,-78.4000,709.5232,283.3096,123.0240,0.1852,-0.6214,1.7411,13.3619,35.9298,10.5818,102.5146,18.5194,9.9657,
2024-02-26T10:00:00Z,2024-02-23T12:00:00Z,Quito_Tumbaco,-0.2100,-78.4000,709.6683,283.1553,96.6787,0.1757,-0.6420,1.6347,13.1045,32.7687,13.2546,98.3888,24.8074,8.7995,
2024-02-26T11:00:00Z,2024-02-23T12:00:00Z,Quito_Tumbaco,-0.2100,-78.4000,710.1521,283.2185,183.5823,0.2979,-0.5432,2.8227,7.0556,30.1190,16.7661,103.2684,18.8759,7.9122,
2024-02-26T12:00:00Z,2024-02-23T12:00:00Z,Quito_Tumbaco,-0.2100,-78.4000,710.8998,283.9260,179.0524,1.0550,-0.8775,16.7854,13.0605,18.1824,12.4158,45.3968,21.3289,3.8462,
2024-02-26T13:00:00Z,2024-02-23T12:00:00Z,Quito_Tumbaco,-0.2100,-78.4000,711.4758,284.9055,238.6570,1.6551,-1.1052,28.9510,24.6286,8.5144,12.1837,19.6462,14.4804,2.7690,
2024-02-26T14:00:00Z,2024-02-23T12:00:00Z,Quito_Tumbaco,-0.2100,-78.4000,711.7136,286.2100,298.0232,2.2943,-1.3150,35.0540,32.2104,5.0300,11.0861,12.3355,11.7613,2.1591,
2024-02-26T15:00:00Z,2024-02-23T12:00:00Z,Quito_Tumbaco,-0.2100,-78.4000,711.5228,286.8844,379.5624,2.8341,-1.5212,39.5877,47.7752,3.9386,9.9997,9.8217,14.5334,2.4858,
2024-02-26T16:00:00Z,2024-02-23T12:00:00Z,Quito_Tumbaco,-0.2100,-78.4000,711.0115,286.9358,567.4362,3.1264,-1.5692,43.2160,55.6983,3.2568,6.5582,8.6764,13.5158,3.2984,
2024-02-26T17:00:00Z,2024-02-23T12:00:00Z,Quito_Tumbaco,-0.2100,-78.4000,710.3151,286.5550,885.9634,3.1303,-1.5077,43.0645,55.5511,3.0983,7.1917,7.9009,13.2946,4.5014,
2024-02-26T18:00:00Z,2024-02-23T12:00:00Z,Quito_Tumbaco,-0.2100,-78.4000,709.5536,286.4558,1405.7159,3.0347,-1.5049,41.2020,53.5695,3.0312,5.2004,7.2680,12.6617,6.5295,
2024-02-26T19:00:00Z,2024-02-23T12:00:00Z,Quito_Tumbaco,-0.2100,-78.4000,708.8839,286.6603,2178.1921,2.9439,-1.6230,39.8457,51.5079,2.8918,5.0574,6.5351,11.6248,5.2988,
2024-02-26T20:00:00Z,2024-02-23T12:00:00Z,Quito_Tumbaco,-0.2100,-78.4000,708.3580,287.0144,3150.9399,2.9272,-1.6487,39.1865,50.4573,2.7917,4.8933,5.7769,11.5723,3.3933,
2024-02-26T21:00:00Z,2024-02-23T12:00:00Z,Quito_Tumbaco,-0.2100,-78.4000,708.1490,286.6165,4280.0903,2.6264,-1.1562,36.1989,35.1149,4.5054,11.4425,5.9858,10.8096,1.9728,
2024-02-26T22:00:00Z,2024-02-23T12:00:00Z,Quito_Tumbaco,-0.2100,-78.4000,708.6304,285.7758,4806.5186,1.6056,-0.3318,27.4142,28.3904,11.4990,12.1929,8.5227,13.9408,0.6671,
2024-02-26T23:00:00Z,2024-02-23T12:00:00Z,Quito_Tumbaco,-0.2100,-78.4000,709.5037,284.5472,3704.0710,0.3798,0.1061,18.0984,20.5253,20.1948,21.9486,12.0327,11.0541,0.7886,
2024-02-27T00:00:00Z,2024-02-23T12:00:00Z,Quito_Tumbaco,-0.2100,-78.4000,710.1393,283.2802,2616.8823,-1.0410,0.7760,19.8804,23.9927,18.6282,15.8567,11.4813,10.7695,1.3008,
2024-02-27T01:00:00Z,2024-02-23T12:00:00Z,Quito_Tumbaco,-0.2100,-78.4000,710.7869,281.7348,1840.5914,-2.0808,1.6259,19.6897,14.1222,19.5802,17.0257,12.8773,11.2914,2.0331,
2024-02-27T02:00:00Z,2024-02-23T12:00:00Z,Quito_Tumbaco,-0.2100,-78.4000,711.1896,280.4721,1121.5210,-2.5116,1.5480,18.7032,18.4131,21.0677,13.8332,15.7519,13.0261,2.4888,
2024-02-27T03:00:00Z,2024-02-23T12:00:00Z,Quito_Tumbaco,-0.2100,-78.4000,711.1900,279.8867,676.1551,-2.5682,1.0753,16.6290,12.7655,22.3801,11.7605,18.7285,12.1888,3.0292,
2024-02-27T04:00:00Z,2024-02-23T12:00:00Z,Quito_Tumbaco,-0.2100,-78.4000,710.9282,279.9288,462.5320,-2.2863,0.7318,14.0388,11.7936,23.8407,12.0231,21.4157,11.5142,3.6284,
2024-02-27T05:00:00Z,2024-02-23T12:00:00Z,Quito_Tumbaco,-0.2100,-78.4000,710.3355,280.1929,300.8842,-1.9049,0.4530,10.3187,15.9115,26.6150,12.2519,24.6356,11.7428,4.3252,
2024-02-27T06:00:00Z,2024-02-23T12:00:00Z,Quito_Tumbaco,-0.2100,-78.4000,709.7416,280.5938,132.0839,-1.6909,0.4785,8.3935,14.0359,27.9395,11.2552,26.9776,12.1570,4.9898,
2024-02-27T07:00:00Z,2024-02-23T12:00:00Z,Quito_Tumbaco,-0.2100,-78.4000,709.3159,281.0035,33.7362,-1.2193,0.5590,7.1887,14.5439,28.6543,10.6699,29.2042,11.5872,5.5807,
2024-02-27T08:00:00Z,2024-02-23T12:00:00Z,Quito_Tumbaco,-0.2100,-78.4000,709.0851,281.3865,24.7061,-0.9693,0.6028,6.2981,9.1346,29.0523,10.1198,31.9243,8.6162,6.1613,
2024-02-27T09:00:00Z,2024-02-23T12:00:00Z,Quito_Tumbaco,-0.2100,-78.4000,709.2264,281.8064,30.1003,-0.7493,0.5450,5.2383,8.2397,29.4605,10.5525,35.4560,10.9928,6.8351,
2024-02-27T10:00:00Z,2024-02-23T12:00:00Z,Quito_Tumbaco,-0.2100,-78.4000,709.6321,282.0717,30.2792,-0.5602,0.4798,3.8257,6.1582,30.3003,11.3309,39.7683,10.8916,7.8437,
2024-02-27T11:00:00Z,2024-02-23T12:00:00Z,Quito_Tumbaco,-0.2100,-78.4000,710.1631,282.2768,30.2792,-0.5485,0.4115,4.8136,4.0267,28.8832,12.8587,44.3932,16.5496,8.9930,
2024-02-27T12:00:00Z,2024-02-23T12:00:00Z,Quito_Tumbaco,-0.2100,-78.4000,710.7478,283.2498,35.8224,-0.6233,0.0536,17.8759,12.6354,19.3936,14.4071,33.5123,14.7494,7.3347,
2024-02-27T13:00:00Z,2024-02-23T12:00:00Z,Quito_Tumbaco,-0.2100,-78.4000,711.2219,284.8447,37.5509,-0.1600,-0.8761,33.3518,22.3239,9.2168,13.2388,17.8542,13.0452,4.6836,
2024-02-27T14:00:00Z,2024-02-23T12:00:00Z,Quito_Tumbaco,-0.2100,-78.4000,711.2788,286.2180,34.5707,0.6015,-1.5230,40.7102,29.0129,6.2122,11.3380,15.2694,14.1589,4.2465,
2024-02-27T15:00:00Z,2024-02-23T12:00:00Z,Quito_Tumbaco,-0.2100,-78.4000,710.9139,287.4800,47.9221,1.5233,-2.0994,49.5269,55.0372,4.6986,10.4338,14.8935,12.1269,4.0947,
2024-02-27T16:00:00Z,2024-02-23T12:00:00Z,Quito_Tumbaco,-0.2100,-78.4000,710.2548,288.1857,102.1624,2.3804,-2.3914,59.7121,74.5393,3.6559,8.8721,15.2531,14.6525,4.0516,
2024-02-27T17:00:00Z,2024-02-23T12:00:00Z,Quito_Tumbaco,-0.2100,-78.4000,709.5526,287.7736,217.6762,2.8314,-2.3551,67.1126,75.3354,3.4838,8.1731,16.4350,13.8108,4.2339,
2024-02-27T18:00:00Z,2024-02-23T12:00:00Z,Quito_Tumbaco,-0.2100,-78.4000,708.9388,286.8956,440.5975,2.8506,-2.1434,69.5848,73.4425,3.8147,8.5143,17.4295,14.0303,5.4506,
2024-02-27T19:00:00Z,2024-02-23T12:00:00Z,Quito_Tumbaco,-0.2100,-78.4000,708.3965,286.4980,812.5305,2.7668,-1.8674,68.2986,67.4867,4.2501,12.3727,17.1758,12.1443,5.3060,
2024-02-27T20:00:00Z,2024-02-23T12:00:00Z,Quito_Tumbaco,-0.2100,-78.4000,708.0123,286.3720,1293.1824,2.6548,-1.4696,65.0515,59.6169,4.6975,12.5634,16.0786,13.0738,5.6697,
2024-02-27T21:00:00Z,2024-02-23T12:00:00Z,Quito_Tumbaco,-0.2100,-78.4000,708.0408,286.1475,1789.0930,2.4191,-0.9269,60.7814,54.1172,5.8169,15.5486,15.2628,13.5281,7.2636,
2024-02-27T22:00:00Z,2024-02-23T12:00:00Z,Quito_Tumbaco,-0.2100,-78.4000,708.4885,285.5431,2197.2656,1.7079,-0.2465,54.6953,51.5310,9.2987,18.4899,15.9493,13.0014,6.7771,
2024-02-27T23:00:00Z,2024-02-23T12:00:00Z,Quito_Tumbaco,-0.2100,-78.4000,709.1353,284.4122,2231.5979,0.3114,0.4818,42.6466,37.2678,19.2505,22.7340,19.9480,13.6864,7.3520,
2024-02-28T00:00:00Z,2024-02-23T12:00:00Z,Quito_Tumbaco,-0.2100,-78.4000,709.5609,283.6740,1235.9619,-0.5185,0.7791,30.6375,23.1602,29.4415,26.1927,25.1640,14.0202,8.7922,
2024-02-28T01:00:00Z,2024-02-23T12:00:00Z,Quito_Tumbaco,-0.2100,-78.4000,709.5618,283.4236,249.3858,-0.2442,0.8926,22.2518,20.1632,35.7964,28.8728,30.1887,10.3973,9.6523,
2024-02-28T02:00:00Z,2024-02-23T12:00:00Z,Quito_Tumbaco,-0.2100,-78.4000,710.0444,283.7355,66.1612,-0.2479,0.5623,17.8907,16.7281,39.7302,28.1684,36.2836,14.0372,10.2944,
2024-02-28T03:00:00Z,2024-02-23T12:00:00Z,Quito_Tumbaco,-0.2100,-78.4000,710.5952,283.8023,268.4593,-0.7549,-0.0462,12.9362,12.9535,43.0576,24.5532,44.6605,9.9237,11.7473,
2024-02-28T04:00:00Z,2024-02-23T12:00:00Z,Quito_Tumbaco,-0.2100,-78.4000,710.4468,283.6662,431.0608,-0.8292,-0.0866,7.3851,12.6414,45.7308,16.4563,53.9222,12.4693,13.4186,
2024-02-28T05:00:00Z,2024-02-23T12:00:00Z,Quito_Tumbaco,-0.2100,-78.4000,709.8547,283.5682,808.7158,-0.4680,0.1330,3.8803,9.3154,47.3208,15.9798,62.6190,12.4888,14.6262,
2024-02-28T06:00:00Z,2024-02-23T12:00:00Z,Quito_Tumbaco,-0.2100,-78.4000,709.2222,283.3595,660.8963,0.0316,0.7926,2.7239,6.9103,46.5074,14.5053,69.4941,12.4788,16.3436,
2024-02-28T07:00:00Z,2024-02-23T12:00:00Z,Quito_Tumbaco,-0.2100,-78.4000,708.7051,283.2291,146.1506,-0.1315,0.7309,3.2688,10.5273,43.7552,15.1240,73.9964,15.0940,16.4895,
2024-02-28T08:00:00Z,2024-02-23T12:00:00Z,Quito_Tumbaco,-0.2100,-78.4000,708.5608,283.2529,26.1664,-0.4396,0.1836,2.7214,8.8596,42.6954,15.8983,82.1243,10.2449,17.2455,
2024-02-28T09:00:00Z,2024-02-23T12:00:00Z,Quito_Tumbaco,-0.2100,-78.4000,708.8069,283.2000,73.1945,-0.5718,0.0836,2.3497,6.9806,41.9928,16.2655,90.7497,19.0354,19.5740,
2024-02-28T10:00:00Z,2024-02-23T12:00:00Z,Quito_Tumbaco,-0.2100,-78.4000,709.1301,283.0705,179.0524,-0.6641,0.2745,2.7096,10.5866,40.1353,20.9606,96.3707,23.9057,23.2433,
2024-02-28T11:00:00Z,2024-02-23T12:00:00Z,Quito_Tumbaco,-0.2100,-78.4000,709.5497,283.0406,234.3655,-0.7543,0.2760,7.0130,9.5510,34.8754,29.9553,98.7400,18.6819,26.5921,
2024-02-23T12:00:00Z,2024-02-23T12:00:00Z,Quito_LosChillos,-0.3000,-78.4600,709.9154,284.3588,334.2628,1.5294,-0.7421,18.3725,8.1734,22.3505,19.4600,48.3705,23.2412,3.3719,
2024-02-23T13:00:00Z,2024-02-23T12:00:00Z,Quito_LosChillos,-0.3000,-78.4600,710.0526,284.8347,400.5432,2.2484,-0.7927,31.3715,13.9841,9.7438,19.0123,19.5934,21.3627,2.2911,
2024-02-23T14:00:00Z,2024-02-23T12:00:00Z,Quito_LosChillos,-0.3000,-78.4600,710.1677,285.7476,591.2781,2.4580,-0.7104,36.5377,23.0102,5.5425,14.7499,12.6803,12.3128,2.3753,
2024-02-23T15:00:00Z,2024-02-23T12:00:00Z,Quito_LosChillos,-0.3000,-78.4600,710.1758,286.6327,596.0464,2.6615,-0.8397,41.6706,33.0484,3.9296,13.5575,9.7955,10.3227,2.6529,
2024-02-23T16:00:00Z,2024-02-23T12:00:00Z,Quito_LosChillos,-0.3000,-78.4600,709.8429,286.6355,745.7733,2.9562,-1.3268,43.0237,56.4862,3.9277,13.4318,9.9646,13.0820,5.0860,
2024-02-23T17:00:00Z,2024-02-23T12:00:00Z,Quito_LosChillos,-0.3000,-78.4600,709.3926,286.7314,1115.7990,3.1411,-1.6035,43.4809,73.1786,3.6849,10.3063,9.5731,19.3993,7.6596,
2024-02-23T18:00:00Z,2024-02-23T12:00:00Z,Quito_LosChillos,-0.3000,-78.4600,708.8370,287.0427,1749.0387,3.4030,-1.7236,44.4785,60.9507,3.3102,18.1000,8.2427,16.1634,11.4643,
2024-02-23T19:00:00Z,2024-02-23T12:00:00Z,Quito_LosChillos,-0.3000,-78.4600,708.2743,287.4636,2700.8057,3.8423,-2.0926,45.9512,57.9108,2.7077,16.9972,6.6856,16.3643,8.5970,
2024-02-23T20:00:00Z,2024-02-23T12:00:00Z,Quito_LosChillos,-0.3000,-78.4600,707.8104,287.4401,4081.7261,4.2876,-2.9030,45.1801,55.5532,2.6367,16.5794,5.5211,15.1371,5.8405,
2024-02-23T21:00:00Z,2024-02-23T12:00:00Z,Quito_LosChillos,-0.3000,-78.4600,707.8792,286.4564,3898.6206,3.2354,-2.3457,37.8246,43.8354,5.8790,17.8041,6.1784,19.9552,2.5518,
2024-02-23T22:00:00Z,2024-02-23T12:00:00Z,Quito_LosChillos,-0.3000,-78.4600,708.5370,285.6989,1987.4573,2.2108,-0.6425,29.2931,23.6740,10.9215,23.4908,7.6645,15.4586,2.4163,
2024-02-23T23:00:00Z,2024-02-23T12:00:00Z,Quito_LosChillos,-0.3000,-78.4600,709.3104,285.2268,1279.8309,1.7331,-0.7085,24.6938,18.2300,13.1739,20.2734,8.5566,15.0684,2.2840,
2024-02-24T00:00:00Z,2024-02-23T12:00:00Z,Quito_LosChillos,-0.3000,-78.4600,709.3301,284.6925,348.5680,1.8744,0.2166,23.3175,11.5519,13.1589,22.3778,10.2610,13.8482,2.7118,
2024-02-24T01:00:00Z,2024-02-23T12:00:00Z,Quito_LosChillos,-0.3000,-78.4600,709.5350,284.2344,116.1098,1.2547,0.1667,19.3564,7.6134,15.5353,21.1677,13.9353,12.0027,2.9948,
2024-02-24T02:00:00Z,2024-02-23T12:00:00Z,Quito_LosChillos,-0.3000,-78.4600,710.6526,283.9885,264.1678,0.6876,-0.5451,16.7128,5.9540,17.4267,23.0043,16.0481,14.4940,2.9617,
2024-02-24T03:00:00Z,2024-02-23T12:00:00Z,Quito_LosChillos,-0.3000,-78.4600,711.1859,283.8132,216.7225,0.3075,-0.1107,14.1885,6.8137,19.8513,23.8384,17.5354,13.4805,3.3356,
2024-02-24T04:00:00Z,2024-02-23T12:00:00Z,Quito_LosChillos,-0.3000,-78.4600,711.2537,283.6087,76.2939,0.1114,-0.0251,9.4175,13.2162,24.1882,22.0784,23.7139,18.4990,4.1838,
2024-02-24T05:00:00Z,2024-02-23T12:00:00Z,Quito_LosChillos,-0.3000,-78.4600,710.7509,283.3606,5.7817,-0.3316,-0.0195,6.1530,7.3066,26.6963,17.1986,33.2032,15.4190,5.2139,
2024-02-24T06:00:00Z,2024-02-23T12:00:00Z,Quito_LosChillos,-0.3000,-78.4600,710.1085,283.0963,1.4771,-0.4908,0.0048,3.7298,7.1646,28.3127,13.6811,42.2002,13.9145,6.5020,
2024-02-24T07:00:00Z,2024-02-23T12:00:00Z,Quito_LosChillos,-0.3000,-78.4600,709.7428,282.8780,6.4224,-0.1937,0.0196,2.2105,10.1292,29.6127,12.2364,51.9549,14.9535,7.2332,
2024-02-24T08:00:00Z,2024-02-23T12:00:00Z,Quito_LosChillos,-0.3000,-78.4600,709.6476,282.6972,23.0968,0.3948,-0.1077,2.6941,6.4803,28.5768,10.7371,58.4682,12.1599,6.6078,
2024-02-24T09:00:00Z,2024-02-23T12:00:00Z,Quito_LosChillos,-0.3000,-78.4600,709.4856,282.5596,54.2402,0.5311,-0.1693,3.3539,9.0740,26.1988,11.4145,46.3449,13.0599,5.6540,
2024-02-24T10:00:00Z,2024-02-23T12:00:00Z,Quito_LosChillos,-0.3000,-78.4600,709.6081,282.5343,62.1080,0.1514,-0.2140,2.0863,14.9926,26.2865,10.9845,47.7836,10.6255,5.3938,
2024-02-24T11:00:00Z,2024-02-23T12:00:00Z,Quito_LosChillos,-0.3000,-78.4600,710.0169,282.5597,78.5589,-0.6301,-0.0286,3.4884,8.3341,24.6000,11.4550,51.4601,14.2096,5.6286,
2024-02-24T12:00:00Z,2024-02-23T12:00:00Z,Quito_LosChillos,-0.3000,-78.4600,710.5227,283.2030,124.6929,-1.3447,0.3258,11.3393,4.7711,18.1586,19.1170,39.6427,9.1244,5.1460,
2024-02-24T13:00:00Z,2024-02-23T12:00:00Z,Quito_LosChillos,-0.3000,-78.4600,711.0113,284.2640,234.8423,-1.2075,0.1571,18.5121,9.6055,13.2704,21.5302,25.9559,16.6287,4.3292,
2024-02-24T14:00:00Z,2024-02-23T12:00:00Z,Quito_LosChillos,-0.3000,-78.4600,711.2664,285.4574,270.8435,-0.3155,-0.5990,25.2862,15.6438,9.0572,19.7574,18.7394,12.8954,4.0654,
2024-02-24T15:00:00Z,2024-02-23T12:00:00Z,Quito_LosChillos,-0.3000,-78.4600,711.3923,286.1382,371.4561,0.8211,-1.5200,30.4938,31.5202,6.5953,20.0035,14.9401,11.8885,4.4205,
2024-02-24T16:00:00Z,2024-02-23T12:00:00Z,Quito_LosChillos,-0.3000,-78.4600,711.2661,286.2285,611.3052,1.1687,-1.9849,33.6101,60.4373,4.9715,17.5145,13.4692,16.0367,5.7502,
2024-02-24T17:00:00Z,2024-02-23T12:00:00Z,Quito_LosChillos,-0.3000,-78.4600,710.8978,286.3365,807.7621,1.4383,-2.1578,34.1641,61.5874,4.3824,14.9299,12.1725,16.4807,7.3351,
2024-02-24T18:00:00Z,2024-02-23T12:00:00Z,Quito_LosChillos,-0.3000,-78.4600,710.2263,286.4287,1110.0769,1.7818,-2.1528,33.7875,64.5149,3.8778,13.9764,10.3751,17.6819,9.5023,
2024-02-24T19:00:00Z,2024-02-23T12:00:00Z,Quito_LosChillos,-0.3000,-78.4600,709.5159,286.4984,1403.8086,1.9668,-2.0037,33.0798,60.4274,3.8231,12.9916,8.8930,15.5233,10.7971,
2024-02-24T20:00:00Z,2024-02-23T12:00:00Z,Quito_LosChillos,-0.3000,-78.4600,708.8809,286.5199,1815.7959,1.9985,-1.6450,32.2579,31.1928,4.0734,20.2532,7.8825,14.3905,11.3053,
2024-02-24T21:00:00Z,2024-02-23T12:00:00Z,Quito_LosChillos,-0.3000,-78.4600,708.5010,286.4671,2471.9238,1.8270,-1.1145,31.0830,36.9149,4.7390,20.7430,7.4446,14.5433,11.9159,
2024-02-24T22:00:00Z,2024-02-23T12:00:00Z,Quito_LosChillos,-0.3000,-78.4600,708.4877,286.1570,3108.9783,1.3133,-0.3944,26.1242,21.8343,8.2722,26.5179,8.5194,14.9873,9.2226,
2024-02-24T23:00:00Z,2024-02-23T12:00:00Z,Quito_LosChillos,-0.3000,-78.4600,708.8987,285.5186,3433.2275,0.5657,0.1129,14.7467,18.1375,19.0496,30.7092,13.6946,16.0950,4.7859,
2024-02-25T00:00:00Z,2024-02-23T12:00:00Z,Quito_LosChillos,-0.3000,-78.4600,709.5926,285.2998,2685.5469,0.3819,0.0704,10.2906,18.3755,25.9911,28.1332,19.2274,15.7166,3.7810,
2024-02-25T01:00:00Z,2024-02-23T12:00:00Z,Quito_LosChillos,-0.3000,-78.4600,710.2122,285.1118,1102.4475,0.2889,0.0158,8.4229,13.9321,29.8814,27.1824,25.0937,15.6234,4.9171,
2024-02-25T02:00:00Z,2024-02-23T12:00:00Z,Quito_LosChillos,-0.3000,-78.4600,710.8196,284.8536,371.9330,0.2691,0.2767,6.8341,11.7047,32.5860,20.7787,32.4385,14.5016,5.8636,
2024-02-25T03:00:00Z,2024-02-23T12:00:00Z,Quito_LosChillos,-0.3000,-78.4600,711.2397,284.5323,277.9961,0.2120,0.3486,6.4469,11.9906,33.7288,20.6377,38.3659,16.3977,6.6518,
2024-02-25T04:00:00Z,2024-02-23T12:00:00Z,Quito_LosChillos,-0.3000,-78.4600,711.4033,284.2493,195.9801,0.1302,0.1680,5.9712,11.2011,34.3343,19.1838,43.6794,14.6894,7.0595,
2024-02-25T05:00:00Z,2024-02-23T12:00:00Z,Quito_LosChillos,-0.3000,-78.4600,711.0579,283.9357,96.0827,0.0685,0.0168,4.7967,10.1912,34.9200,18.4675,48.9385,14.9122,7.4880,
2024-02-25T06:00:00Z,2024-02-23T12:00:00Z,Quito_LosChillos,-0.3000,-78.4600,710.6063,283.6638,72.1216,-0.0224,0.0101,3.9982,8.6510,35.0523,16.5735,54.8153,16.1275,8.2293,
2024-02-25T07:00:00Z,2024-02-23T12:00:00Z,Quito_LosChillos,-0.3000,-78.4600,710.2416,283.4753,57.8761,-0.1811,0.0038,3.7635,8.4074,35.0173,16.2279,61.5737,11.1653,8.7672,
2024-02-25T08:00:00Z,2024-02-23T12:00:00Z,Quito_LosChillos,-0.3000,-78.4600,710.0819,283.2906,52.5117,-0.3199,-0.0008,3.8148,6.6896,35.3955,16.5981,68.7617,11.6247,9.5240,
2024-02-25T09:00:00Z,2024-02-23T12:00:00Z,Quito_LosChillos,-0.3000,-78.4600,710.1224,283.0954,55.3131,-0.4747,0.0876,4.1674,5.9089,35.9066,14.9401,75.2665,14.2691,10.6864,
2024-02-25T10:00:00Z,2024-02-23T12:00:00Z,Quito_LosChillos,-0.3000,-78.4600,710.3074,282.9103,43.9286,-0.6382,0.1731,4.7722,5.1510,35.8182,17.1980,80.0119,14.1106,11.5295,
2024-02-25T11:00:00Z,2024-02-23T12:00:00Z,Quito_LosChillos,-0.3000,-78.4600,710.5690,282.7828,26.0174,-0.8420,0.2849,7.2722,3.0726,33.5413,17.3234,82.2585,13.5417,12.0674,
2024-02-25T12:00:00Z,2024-02-23T12:00:00Z,Quito_LosChillos,-0.3000,-78.4600,710.9892,283.2734,12.1593,-1.0677,0.2842,14.6965,4.1108,26.9560,22.9579,72.1287,18.3617,11.1208,
2024-02-25T13:00:00Z,2024-02-23T12:00:00Z,Quito_LosChillos,-0.3000,-78.4600,711.3647,284.5323,8.0168,-1.1401,0.0657,28.1023,7.4345,15.9616,22.3126,41.1271,19.5621,7.7134,
2024-02-25T14:00:00Z,2024-02-23T12:00:00Z,Quito_LosChillos,-0.3000,-78.4600,711.5154,285.8587,6.1765,-1.0058,-0.4144,38.4329,15.7936,8.9574,20.9109,25.6583,20.3610,6.0897,
2024-02-25T15:00:00Z,2024-02-23T12:00:00Z,Quito_LosChillos,-0.3000,-78.4600,711.3895,287.0486,6.8992,-0.7375,-0.8781,46.3033,34.7640,5.4271,15.4262,19.3152,20.6420,5.5356,
2024-02-25T16:00:00Z,2024-02-23T12:00:00Z,Quito_LosChillos,-0.3000,-78.4600,710.9844,288.0376,9.2536,-0.1214,-1.3543,53.5003,45.3872,3.3933,13.4247,16.2836,17.3316,5.4393,
2024-02-25T17:00:00Z,2024-02-23T12:00:00Z,Quito_LosChillos,-0.3000,-78.4600,710.3065,288.5532,24.0207,0.7655,-1.8583,58.7305,62.8717,2.4401,14.0769,14.8416,18.8002,5.6487,
2024-02-25T18:00:00Z,2024-02-23T12:00:00Z,Quito_LosChillos,-0.3000,-78.4600,709.7331,288.1542,96.2019,1.3408,-2.3080,60.6679,90.5119,2.0747,12.5366,14.2493,15.4810,6.7322,
2024-02-25T19:00:00Z,2024-02-23T12:00:00Z,Quito_LosChillos,-0.3000,-78.4600,709.3325,287.0009,240.8028,1.5379,-2.4834,57.0570,78.3969,2.5519,12.8236,13.8722,17.3076,9.0188,
2024-02-25T20:00:00Z,2024-02-23T12:00:00Z,Quito_LosChillos,-0.3000,-78.4600,709.0857,286.2009,405.7884,1.4109,-2.2633,49.3705,58.0024,3.9046,14.6909,13.1210,18.3491,12.3527,
2024-02-25T21:00:00Z,2024-02-23T12:00:00Z,Quito_LosChillos,-0.3000,-78.4600,709.0443,285.7866,463.4857,1.1500,-1.9170,41.9358,39.1651,5.5829,25.0063,12.1051,19.9550,17.1247,
2024-02-25T22:00:00Z,2024-02-23T12:00:00Z,Quito_LosChillos,-0.3000,-78.4600,709.2690,285.4010,452.9953,0.7780,-1.4854,34.0305,30.2051,9.1135,31.5945,12.4972,22.0953,28.8245,
2024-02-25T23:00:00Z,2024-02-23T12:00:00Z,Quito_LosChillos,-0.3000,-78.4600,709.7627,285.1064,346.6606,0.4000,-1.0736,23.8417,22.4407,16.3746,27.7928,15.5160,21.6240,29.9603,
2024-02-26T00:00:00Z,2024-02-23T12:00:00Z,Quito_LosChillos,-0.3000,-78.4600,710.2787,284.8861,168.5619,0.3238,-0.8758,14.5569,19.6720,24.1270,28.6690,23.0358,23.6766,23.1507,
2024-02-26T01:00:00Z,2024-02-23T12:00:00Z,Quito_LosChillos,-0.3000,-78.4600,710.7394,284.5531,60.7371,0.1409,-0.7427,6.8198,15.2612,31.7721,20.6052,32.5703,16.5577,17.3019,
2024-02-26T02:00:00Z,2024-02-23T12:00:00Z,Quito_LosChillos,-0.3000,-78.4600,711.1577,284.3700,24.5869,-0.2529,-0.4801,3.6083,13.8258,37.8514,24.2809,43.6999,25.6684,13.3308,
2024-02-26T03:00:00Z,2024-02-23T12:00:00Z,Quito_LosChillos,-0.3000,-78.4600,711.3344,284.2097,28.3420,-0.4180,-0.2571,2.8858,11.7766,42.7988,29.6658,56.3282,25.5593,13.7451,
2024-02-26T04:00:00Z,2024-02-23T12:00:00Z,Quito_LosChillos,-0.3000,-78.4600,711.1835,284.0580,69.0222,-0.2938,-0.4038,2.3899,11.0092,46.4407,25.2720,68.8906,22.9782,15.0731,
2024-02-26T05:00:00Z,2024-02-23T12:00:00Z,Quito_LosChillos,-0.3000,-78.4600,710.7319,283.8518,117.5404,-0.1015,-0.5460,1.8852,11.7011,47.5738,18.4370,81.0169,20.9034,15.3963,
2024-02-26T06:00:00Z,2024-02-23T12:00:00Z,Quito_LosChillos,-0.3000,-78.4600,710.2642,283.6812,207.9010,-0.0375,-0.5717,1.7064,15.1882,46.1198,17.5403,92.8900,16.1749,14.4667,
2024-02-26T07:00:00Z,2024-02-23T12:00:00Z,Quito_LosChillos,-0.3000,-78.4600,709.8390,283.5916,284.6718,-0.0300,-0.5498,1.6691,11.1211,43.5274,17.5601,103.2659,16.4934,12.1755,
2024-02-26T08:00:00Z,2024-02-23T12:00:00Z,Quito_LosChillos,-0.3000,-78.4600,709.5334,283.4782,242.4717,0.0500,-0.5667,1.6559,12.6519,40.5034,14.6005,111.5134,16.7748,11.0346,
2024-02-26T09:00:00Z,2024-02-23T12:00:00Z,Quito_LosChillos,-0.3000,-78.4600,709.5232,283.3096,123.0240,0.1852,-0.6214,1.7411,17.4952,35.9298,15.0182,102.5146,16.1898,9.9657,
2024-02-26T10:00:00Z,2024-02-23T12:00:00Z,Quito_LosChillos,-0.3000,-78.4600,709.6683,283.1553,96.6787,0.1757,-0.6420,1.6347,14.1341,32.7687,14.5869,98.3888,14.5357,8.7995,
2024-02-26T11:00:00Z,2024-02-23T12:00:00Z,Quito_LosChillos,-0.3000,-78.4600,710.1521,283.2185,183.5823,0.2979,-0.5432,2.8227,4.0935,30.1190,16.7879,103.2684,14.1308,7.9122,
2024-02-26T12:00:00Z,2024-02-23T12:00:00Z,Quito_LosChillos,-0.3000,-78.4600,710.8998,283.9260,179.0524,1.0550,-0.8775,16.7854,9.8317,18.1824,18.7606,45.3968,17.3439,3.8462,
2024-02-26T13:00:00Z,2024-02-23T12:00:00Z,Quito_LosChillos,-0.3000,-78.4600,711.4758,284.9055,238.6570,1.6551,-1.1052,28.9510,15.6760,8.5144,19.6212,19.6462,12.7490,2.7690,
2024-02-26T14:00:00Z,2024-02-23T12:00:00Z,Quito_LosChillos,-0.3000,-78.4600,711.7136,286.2100,298.0232,2.2943,-1.3150,35.0540,26.6934,5.0300,16.8220,12.3355,11.1974,2.1591,
2024-02-26T15:00:00Z,2024-02-23T12:00:00Z,Quito_LosChillos,-0.3000,-78.4600,711.5228,286.8844,379.5624,2.8341,-1.5212,39.5877,41.8612,3.9386,15.3513,9.8217,15.4597,2.4858,
2024-02-26T16:00:00Z,2024-02-23T12:00:00Z,Quito_LosChillos,-0.3000,-78.4600,711.0115,286.9358,567.4362,3.1264,-1.5692,43.2160,46.2516,3.2568,14.7248,8.6764,12.9529,3.2984,
2024-02-26T17:00:00Z,2024-02-23T12:00:00Z,Quito_LosChillos,-0.3000,-78.4600,710.3151,286.5550,885.9634,3.1303,-1.5077,43.0645,50.1055,3.0983,15.4374,7.9009,13.0734,4.5014,
2024-02-26T18:00:00Z,2024-02-23T12:00:00Z,Quito_LosChillos,-0.3000,-78.4600,709.5536,286.4558,1405.7159,3.0347,-1.5049,41.2020,51.0291,3.0312,15.7481,7.2680,14.4859,6.5295,
2024-02-26T19:00:00Z,2024-02-23T12:00:00Z,Quito_LosChillos,-0.3000,-78.4600,708.8839,286.6603,2178.1921,2.9439,-1.6230,39.8457,45.8270,2.8918,22.8955,6.5351,15.2016,5.2988,
2024-02-26T20:00:00Z,2024-02-23T12:00:00Z,Quito_LosChillos,-0.3000,-78.4600,708.3580,287.0144,3150.9399,2.9272,-1.6487,39.1865,40.9830,2.7917,16.4452,5.7769,13.6961,3.3933,
2024-02-26T21:00:00Z,2024-02-23T12:00:00Z,Quito_LosChillos,-0.3000,-78.4600,708.1490,286.6165,4280.0903,2.6264,-1.1562,36.1989,36.9744,4.5054,14.9868,5.9858,9.8698,1.9728,
2024-02-26T22:00:00Z,2024-02-23T12:00:00Z,Quito_LosChillos,-0.3000,-78.4600,708.6304,285.7758,4806.5186,1.6056,-0.3318,27.4142,33.2364,11.4990,28.5837,8.5227,16.0971,0.6671,
2024-02-26T23:00:00Z,2024-02-23T12:00:00Z,Quito_LosChillos,-0.3000,-78.4600,709.5037,284.5472,3704.0710,0.3798,0.1061,18.0984,16.9148,20.1948,29.5529,12.0327,18.5840,0.7886,
2024-02-27T00:00:00Z,2024-02-23T12:00:00Z,Quito_LosChillos,-0.3000,-78.4600,710.1393,283.2802,2616.8823,-1.0410,0.7760,19.8804,16.0092,18.6282,28.1362,11.4813,13.1251,1.3008,
2024-02-27T01:00:00Z,2024-02-23T12:00:00Z,Quito_LosChillos,-0.3000,-78.4600,710.7869,281.7348,1840.5914,-2.0808,1.6259,19.6897,14.5898,19.5802,26.5016,12.8773,13.8660,2.0331,
2024-02-27T02:00:00Z,2024-02-23T12:00:00Z,Quito_LosChillos,-0.3000,-78.4600,711.1896,280.4721,1121.5210,-2.5116,1.5480,18.7032,12.2091,21.0677,26.7458,15.7519,13.7596,2.4888,
2024-02-27T03:00:00Z,2024-02-23T12:00:00Z,Quito_LosChillos,-0.3000,-78.4600,711.1900,279.8867,676.1551,-2.5682,1.0753,16.6290,14.7017,22.3801,24.2535,18.7285,12.3422,3.0292,
2024-02-27T04:00:00Z,2024-02-23T12:00:00Z,Quito_LosChillos,-0.3000,-78.4600,710.9282,279.9288,462.5320,-2.2863,0.7318,14.0388,13.3773,23.8407,27.0138,21.4157,9.2536,3.6284,
2024-02-27T05:00:00Z,2024-02-23T12:00:00Z,Quito_LosChillos,-0.3000,-78.4600,710.3355,280.1929,300.8842,-1.9049,0.4530,10.3187,13.4285,26.6150,25.1110,24.6356,11.2495,4.3252,
2024-02-27T06:00:00Z,2024-02-23T12:00:00Z,Quito_LosChillos,-0.3000,-78.4600,709.7416,280.5938,132.0839,-1.6909,0.4785,8.3935,12.4495,27.9395,20.4076,26.9776,11.9349,4.9898,
2024-02-27T07:00:00Z,2024-02-23T12:00:00Z,Quito_LosChillos,-0.3000,-78.4600,709.3159,281.0035,33.7362,-1.2193,0.5590,7.1887,6.1389,28.6543,20.9500,29.2042,16.2105,5.5807,
2024-02-27T08:00:00Z,2024-02-23T12:00:00Z,Quito_LosChillos,-0.3000,-78.4600,709.0851,281.3865,24.7061,-0.9693,0.6028,6.2981,5.4262,29.0523,19.0418,31.9243,14.4921,6.1613,
2024-02-27T09:00:00Z,2024-02-23T12:00:00Z,Quito_LosChillos,-0.3000,-78.4600,709.2264,281.8064,30.1003,-0.7493,0.5450,5.2383,8.2004,29.4605,16.4733,35.4560,13.9155,6.8351,
2024-02-27T10:00:00Z,2024-02-23T12:00:00Z,Quito_LosChillos,-0.3000,-78.4600,709.6321,282.0717,30.2792,-0.5602,0.4798,3.8257,5.2345,30.3003,15.7874,39.7683,12.6014,7.8437,
2024-02-27T11:00:00Z,2024-02-23T12:00:00Z,Quito_LosChillos,-0.3000,-78.4600,710.1631,282.2768,30.2792,-0.5485,0.4115,4.8136,5.4409,28.8832,19.2958,44.3932,13.4473,8.9930,
2024-02-27T12:00:00Z,2024-02-23T12:00:00Z,Quito_LosChillos,-0.3000,-78.4600,710.7478,283.2498,35.8224,-0.6233,0.0536,17.8759,8.1757,19.3936,20.9573,33.5123,16.4882,7.3347,
2024-02-27T13:00:00Z,2024-02-23T12:00:00Z,Quito_LosChillos,-0.3000,-78.4600,711.2219,284.8447,37.5509,-0.1600,-0.8761,33.3518,18.0602,9.2168,20.0029,17.8542,11.0325,4.6836,
2024-02-27T14:00:00Z,2024-02-23T12:00:00Z,Quito_LosChillos,-0.3000,-78.4600,711.2788,286.2180,34.5707,0.6015,-1.5230,40.7102,24.6248,6.2122,22.8872,15.2694,11.8707,4.2465,
2024-02-27T15:00:00Z,2024-02-23T12:00:00Z,Quito_LosChillos,-0.3000,-78.4600,710.9139,287.4800,47.9221,1.5233,-2.0994,49.5269,48.7058,4.6986,22.5387,14.8935,11.0088,4.0947,
2024-02-27T16:00:00Z,2024-02-23T12:00:00Z,Quito_LosChillos,-0.3000,-78.4600,710.2548,288.1857,102.1624,2.3804,-2.3914,59.7121,52.6668,3.6559,25.8195,15.2531,12.4857,4.0516,
2024-02-27T17:00:00Z,2024-02-23T12:00:00Z,Quito_LosChillos,-0.3000,-78.4600,709.5526,287.7736,217.6762,2.8314,-2.3551,67.1126,75.9202,3.4838,27.5685,16.4350,14.0337,4.2339,
2024-02-27T18:00:00Z,2024-02-23T12:00:00Z,Quito_LosChillos,-0.3000,-78.4600,708.9388,286.8956,440.5975,2.8506,-2.1434,69.5848,75.6946,3.8147,27.9310,17.4295,10.8535,5.4506,
2024-02-27T19:00:00Z,2024-02-23T12:00:00Z,Quito_LosChillos,-0.3000,-78.4600,708.3965,286.4980,812.5305,2.7668,-1.8674,68.2986,61.5940,4.2501,23.0144,17.1758,10.9011,5.3060,
2024-02-27T20:00:00Z,2024-02-23T12:00:00Z,Quito_LosChillos,-0.3000,-78.4600,708.0123,286.3720,1293.1824,2.6548,-1.4696,65.0515,67.2647,4.6975,22.2049,16.0786,14.7542,5.6697,
2024-02-27T21:00:00Z,2024-02-23T12:00:00Z,Quito_LosChillos,-0.3000,-78.4600,708.0408,286.1475,1789.0930,2.4191,-0.9269,60.7814,46.8294,5.8169,24.4754,15.2628,20.7990,7.2636,
2024-02-27T22:00:00Z,2024-02-23T12:00:00Z,Quito_LosChillos,-0.3000,-78.4600,708.4885,285.5431,2197.2656,1.7079,-0.2465,54.6953,30.7554,9.2987,28.5473,15.9493,15.1688,6.7771,
2024-02-27T23:00:00Z,2024-02-23T12:00:00Z,Quito_LosChillos,-0.3000,-78.4600,709.1353,284.4122,2231.5979,0.3114,0.4818,42.6466,16.6146,19.2505,33.3698,19.9480,19.6886,7.3520,
2024-02-28T00:00:00Z,2024-02-23T12:00:00Z,Quito_LosChillos,-0.3000,-78.4600,709.5609,283.6740,1235.9619,-0.5185,0.7791,30.6375,22.8772,29.4415,34.0970,25.1640,18.4459,8.7922,
2024-02-28T01:00:00Z,2024-02-23T12:00:00Z,Quito_LosChillos,-0.3000,-78.4600,709.5618,283.4236,249.3858,-0.2442,0.8926,22.2518,15.9038,35.7964,34.6547,30.1887,20.4998,9.6523,
2024-02-28T02:00:00Z,2024-02-23T12:00:00Z,Quito_LosChillos,-0.3000,-78.4600,710.0444,283.7355,66.1612,-0.2479,0.5623,17.8907,10.9451,39.7302,27.6404,36.2836,18.3544,10.2944,
2024-02-28T03:00:00Z,2024-02-23T12:00:00Z,Quito_LosChillos,-0.3000,-78.4600,710.5952,283.8023,268.4593,-0.7549,-0.0462,12.9362,9.5192,43.0576,17.8165,44.6605,12.1262,11.7473,
2024-02-28T04:00:00Z,2024-02-23T12:00:00Z,Quito_LosChillos,-0.3000,-78.4600,710.4468,283.6662,431.0608,-0.8292,-0.0866,7.3851,9.1027,45.7308,21.1582,53.9222,15.6807,13.4186,
2024-02-28T05:00:00Z,2024-02-23T12:00:00Z,Quito_LosChillos,-0.3000,-78.4600,709.8547,283.5682,808.7158,-0.4680,0.1330,3.8803,7.6330,47.3208,19.9193,62.6190,15.3137,14.6262,
2024-02-28T06:00:00Z,2024-02-23T12:00:00Z,Quito_LosChillos,-0.3000,-78.4600,709.2222,283.3595,660.8963,0.0316,0.7926,2.7239,6.9299,46.5074,19.7971,69.4941,13.7792,16.3436,
2024-02-28T07:00:00Z,2024-02-23T12:00:00Z,Quito_LosChillos,-0.3000,-78.4600,708.7051,283.2291,146.1506,-0.1315,0.7309,3.2688,6.7026,43.7552,18.6128,73.9964,15.6704,16.4895,
2024-02-28T08:00:00Z,2024-02-23T12:00:00Z,Quito_LosChillos,-0.3000,-78.4600,708.5608,283.2529,26.1664,-0.4396,0.1836,2.7214,7.6789,42.6954,15.7463,82.1243,16.5302,17.2455,
2024-02-28T09:00:00Z,2024-02-23T12:00:00Z,Quito_LosChillos,-0.3000,-78.4600,708.8069,283.2000,73.1945,-0.5718,0.0836,2.3497,12.2950,41.9928,12.0495,90.7497,10.5905,19.5740,
2024-02-28T10:00:00Z,2024-02-23T12:00:00Z,Quito_LosChillos,-0.3000,-78.4600,709.1301,283.0705,179.0524,-0.6641,0.2745,2.7096,10.8962,40.1353,21.2370,96.3707,12.0337,23.2433,
2024-02-28T11:00:00Z,2024-02-23T12:00:00Z,Quito_LosChillos,-0.3000,-78.4600,709.5497,283.0406,234.3655,-0.7543,0.2760,7.0130,7.1942,34.8754,20.6431,98.7400,16.8855,26.5921,